[[{"header":{"parameterUnit":"m.s-1","parameterCategory":1,"la1":30.6,"la2":29.2853,"lo1":-89.7004,"lo2":-87.6739,"dy":0.0162,"dx":0.0183,"nx":112,"ny":82,"refTime":"2023-09-27T00:00:00:Z","depth":0,"parameterNumber":2,"parameterNumberName":"U-component_of_WINDS"},"data":[0.0,0.0,0.0,0.0,0.0,0.0,0.0,0.0,0.0,0.0,0.0,0.0,0.0,0.0,0.0,0.0,0.0,0.0,0.0,0.0,0.0,0.0,0.0,0.0,0.0,0.0,0.0,0.0,0.0,0.0,0.0,0.0,0.0,0.0,0.0,0.0,0.0,0.0,0.0,0.0,0.0,0.0,0.0,0.0,0.0,0.0,0.0,0.0,0.0,0.0,0.0,0.0,0.0,0.0,0.0,0.0,0.0,0.0,0.0,0.0,0.0,0.0,0.0,0.0,0.0,0.0,0.0,0.0,0.0,0.0,0.0,0.0,0.0,0.0,0.0,0.0,0.0,0.0,0.0,0.0,0.0,0.0,0.0,0.0,0.0,0.0,0.0,0.0,0.0,0.0,0.0,3.1867,3.2574,3.2723,3.1995,3.2487,3.2228,3.0809,0.0,0.0,0.0,0.0,0.0,0.0,0.0,0.0,0.0,0.0,0.0,0.0,0.0,0.0,0.0,0.0,0.0,0.0,0.0,0.0,0.0,0.0,0.0,0.0,0.0,0.0,0.0,0.0,0.0,0.0,0.0,0.0,0.0,0.0,0.0,0.0,0.0,0.0,0.0,0.0,0.0,0.0,0.0,0.0,0.0,0.0,0.0,0.0,0.0,0.0,0.0,0.0,0.0,0.0,0.0,0.0,0.0,0.0,0.0,0.0,0.0,0.0,0.0,0.0,0.0,0.0,0.0,0.0,0.0,0.0,0.0,0.0,0.0,0.0,0.0,0.0,0.0,0.0,0.0,0.0,0.0,0.0,0.0,0.0,0.0,0.0,0.0,0.0,0.0,0.0,0.0,0.0,0.0,0.0,0.0,0.0,0.0,0.0,0.0,0.0,0.0,0.0,0.0,0.0,3.1965,3.2648,3.322,3.3434,3.31,3.2747,3.2207,3.1321,0.0,0.0,0.0,0.0,0.0,0.0,0.0,0.0,0.0,0.0,0.0,0.0,0.0,0.0,0.0,0.0,0.0,0.0,0.0,0.0,0.0,0.0,0.0,0.0,0.0,0.0,0.0,0.0,0.0,0.0,0.0,0.0,0.0,0.0,0.0,0.0,0.0,0.0,0.0,0.0,0.0,0.0,0.0,0.0,0.0,0.0,0.0,0.0,0.0,0.0,0.0,0.0,0.0,0.0,0.0,0.0,0.0,0.0,0.0,0.0,0.0,0.0,0.0,0.0,0.0,0.0,0.0,0.0,0.0,0.0,0.0,0.0,0.0,0.0,0.0,0.0,0.0,0.0,0.0,0.0,0.0,0.0,0.0,0.0,0.0,0.0,0.0,0.0,0.0,0.0,0.0,0.0,0.0,0.0,0.0,0.0,0.0,0.0,0.0,0.0,0.0,0.0,0.0,3.1353,3.176,3.2556,3.2762,3.2847,3.2828,3.2359,3.1761,3.1019,3.0857,0.0,0.0,0.0,0.0,0.0,0.0,0.0,0.0,0.0,0.0,0.0,0.0,0.0,0.0,0.0,0.0,0.0,0.0,0.0,0.0,0.0,0.0,0.0,0.0,0.0,0.0,0.0,0.0,0.0,0.0,0.0,0.0,0.0,0.0,0.0,0.0,0.0,0.0,0.0,0.0,0.0,0.0,0.0,0.0,0.0,0.0,0.0,0.0,0.0,0.0,0.0,0.0,0.0,0.0,0.0,0.0,0.0,0.0,0.0,0.0,0.0,0.0,0.0,0.0,0.0,0.0,0.0,0.0,0.0,0.0,0.0,0.0,0.0,0.0,0.0,0.0,0.0,0.0,0.0,0.0,0.0,0.0,0.0,0.0,0.0,0.0,0.0,0.0,0.0,0.0,0.0,0.0,0.0,0.0,0.0,0.0,0.0,0.0,0.0,0.0,0.0,0.0,3.1389,3.1642,3.2313,3.2295,3.2339,3.2501,3.2056,3.1461,3.0796,3.0605,0.0,0.0,0.0,0.0,0.0,0.0,0.0,0.0,0.0,0.0,0.0,0.0,0.0,0.0,0.0,0.0,0.0,0.0,0.0,0.0,0.0,0.0,0.0,0.0,0.0,0.0,0.0,0.0,0.0,0.0,0.0,0.0,0.0,0.0,0.0,0.0,0.0,0.0,0.0,0.0,0.0,0.0,0.0,0.0,0.0,0.0,0.0,0.0,0.0,0.0,0.0,0.0,0.0,0.0,0.0,0.0,0.0,0.0,0.0,0.0,0.0,0.0,0.0,0.0,0.0,0.0,0.0,0.0,0.0,0.0,0.0,0.0,0.0,0.0,0.0,0.0,0.0,0.0,0.0,0.0,0.0,0.0,0.0,0.0,0.0,0.0,0.0,0.0,0.0,0.0,0.0,0.0,0.0,0.0,0.0,0.0,0.0,0.0,0.0,0.0,0.0,0.0,3.1669,3.1858,3.2238,3.252,3.2725,3.294,3.2369,3.175,3.1194,3.0552,0.0,0.0,0.0,0.0,0.0,0.0,0.0,0.0,0.0,0.0,0.0,0.0,0.0,0.0,0.0,0.0,0.0,0.0,0.0,0.0,0.0,0.0,0.0,0.0,0.0,0.0,0.0,0.0,0.0,0.0,0.0,0.0,0.0,0.0,0.0,0.0,0.0,0.0,0.0,0.0,0.0,0.0,0.0,0.0,0.0,0.0,0.0,0.0,0.0,0.0,0.0,0.0,0.0,0.0,0.0,0.0,0.0,0.0,0.0,0.0,0.0,0.0,0.0,0.0,0.0,0.0,0.0,0.0,0.0,0.0,0.0,0.0,0.0,0.0,0.0,0.0,0.0,0.0,0.0,0.0,0.0,0.0,0.0,0.0,0.0,0.0,0.0,0.0,0.0,0.0,0.0,0.0,0.0,0.0,0.0,0.0,0.0,0.0,0.0,0.0,0.0,0.0,3.0752,3.0921,0.0,3.1438,3.1438,3.1909,3.1395,3.0878,3.0482,0.0,0.0,0.0,0.0,0.0,0.0,0.0,0.0,0.0,0.0,0.0,0.0,0.0,0.0,0.0,0.0,0.0,0.0,0.0,0.0,0.0,0.0,0.0,0.0,0.0,0.0,0.0,0.0,0.0,0.0,0.0,0.0,0.0,0.0,0.0,0.0,0.0,0.0,0.0,0.0,0.0,0.0,0.0,0.0,0.0,0.0,0.0,0.0,0.0,0.0,0.0,0.0,0.0,0.0,0.0,0.0,0.0,0.0,0.0,0.0,0.0,0.0,0.0,0.0,0.0,0.0,0.0,0.0,0.0,0.0,0.0,0.0,0.0,0.0,0.0,0.0,0.0,0.0,0.0,0.0,0.0,0.0,0.0,0.0,0.0,0.0,0.0,0.0,0.0,0.0,0.0,0.0,0.0,0.0,0.0,0.0,0.0,0.0,0.0,0.0,0.0,0.0,3.0379,3.0089,3.0273,0.0,3.0683,3.0446,3.1058,3.0673,3.0209,2.9729,0.0,0.0,0.0,0.0,0.0,0.0,0.0,0.0,0.0,0.0,0.0,0.0,0.0,0.0,0.0,0.0,0.0,0.0,0.0,0.0,0.0,0.0,0.0,0.0,0.0,0.0,0.0,0.0,0.0,0.0,0.0,0.0,0.0,0.0,0.0,0.0,0.0,0.0,0.0,0.0,0.0,0.0,0.0,0.0,0.0,0.0,0.0,0.0,0.0,0.0,0.0,0.0,0.0,0.0,0.0,0.0,0.0,0.0,0.0,0.0,0.0,0.0,0.0,0.0,0.0,0.0,0.0,0.0,0.0,0.0,0.0,0.0,0.0,0.0,0.0,0.0,0.0,0.0,0.0,0.0,0.0,0.0,0.0,0.0,0.0,0.0,0.0,0.0,0.0,0.0,0.0,0.0,0.0,0.0,0.0,0.0,0.0,0.0,0.0,0.0,0.0,0.0,3.0073,2.9802,3.0011,3.114,3.0404,3.0021,3.0628,3.0388,2.9863,0.0,0.0,0.0,0.0,0.0,0.0,0.0,0.0,0.0,0.0,0.0,0.0,0.0,0.0,0.0,0.0,0.0,0.0,0.0,0.0,0.0,0.0,0.0,0.0,0.0,0.0,0.0,0.0,0.0,0.0,0.0,0.0,0.0,0.0,0.0,0.0,0.0,0.0,0.0,0.0,0.0,0.0,0.0,0.0,0.0,0.0,0.0,0.0,0.0,0.0,0.0,0.0,0.0,0.0,0.0,0.0,0.0,0.0,0.0,0.0,0.0,0.0,0.0,0.0,0.0,0.0,0.0,0.0,0.0,0.0,0.0,0.0,0.0,0.0,0.0,0.0,0.0,0.0,0.0,0.0,0.0,0.0,0.0,0.0,0.0,0.0,0.0,0.0,0.0,0.0,0.0,0.0,0.0,0.0,0.0,0.0,0.0,0.0,0.0,0.0,0.0,0.0,0.0,2.9203,2.9146,2.927,2.9687,2.9481,2.9297,2.9276,2.9293,2.8974,2.8301,0.0,0.0,0.0,0.0,0.0,0.0,0.0,0.0,0.0,0.0,0.0,0.0,0.0,0.0,0.0,0.0,0.0,0.0,0.0,0.0,0.0,0.0,0.0,0.0,0.0,0.0,0.0,0.0,0.0,0.0,0.0,0.0,0.0,0.0,0.0,0.0,0.0,0.0,0.0,0.0,0.0,0.0,0.0,0.0,0.0,0.0,0.0,0.0,0.0,0.0,0.0,0.0,0.0,0.0,0.0,0.0,0.0,0.0,0.0,0.0,0.0,0.0,0.0,0.0,0.0,0.0,0.0,0.0,0.0,0.0,0.0,0.0,0.0,0.0,0.0,0.0,0.0,0.0,0.0,0.0,0.0,0.0,0.0,0.0,0.0,0.0,0.0,0.0,0.0,0.0,0.0,0.0,0.0,0.0,0.0,0.0,0.0,0.0,0.0,0.0,0.0,0.0,2.8511,2.862,2.8826,2.9084,2.8982,2.8785,2.8531,2.8543,2.824,2.7576,0.0,0.0,0.0,0.0,0.0,0.0,0.0,0.0,0.0,0.0,0.0,0.0,0.0,0.0,0.0,0.0,0.0,0.0,0.0,0.0,0.0,0.0,0.0,0.0,0.0,0.0,0.0,0.0,0.0,0.0,0.0,0.0,0.0,0.0,0.0,0.0,0.0,0.0,0.0,0.0,0.0,0.0,0.0,0.0,0.0,0.0,0.0,0.0,0.0,0.0,0.0,0.0,0.0,0.0,0.0,0.0,0.0,0.0,0.0,0.0,0.0,0.0,0.0,0.0,0.0,0.0,0.0,0.0,0.0,0.0,0.0,0.0,0.0,0.0,0.0,0.0,0.0,0.0,0.0,0.0,0.0,0.0,0.0,0.0,0.0,0.0,0.0,0.0,0.0,0.0,0.0,0.0,0.0,0.0,0.0,0.0,0.0,0.0,0.0,0.0,0.0,0.0,2.7996,2.8261,2.8627,2.9001,2.8795,2.8511,2.821,2.8033,2.7676,2.7027,0.0,0.0,0.0,0.0,0.0,0.0,0.0,0.0,0.0,0.0,0.0,0.0,0.0,0.0,0.0,0.0,0.0,0.0,0.0,0.0,0.0,0.0,0.0,0.0,0.0,0.0,0.0,0.0,0.0,0.0,0.0,0.0,0.0,0.0,0.0,0.0,0.0,0.0,0.0,0.0,0.0,0.0,0.0,0.0,0.0,0.0,0.0,0.0,0.0,0.0,0.0,0.0,0.0,0.0,0.0,0.0,0.0,0.0,0.0,0.0,3.2491,0.0,0.0,0.0,0.0,0.0,0.0,0.0,0.0,0.0,0.0,0.0,0.0,0.0,0.0,0.0,0.0,0.0,0.0,0.0,0.0,0.0,0.0,0.0,0.0,0.0,0.0,0.0,0.0,0.0,0.0,0.0,0.0,0.0,0.0,0.0,0.0,0.0,0.0,0.0,0.0,0.0,2.7679,2.8014,2.8342,2.8541,2.8769,2.8637,2.7934,2.7862,2.7493,2.6737,2.6989,0.0,0.0,0.0,0.0,0.0,0.0,0.0,0.0,0.0,0.0,0.0,0.0,0.0,0.0,0.0,0.0,0.0,0.0,0.0,0.0,0.0,0.0,0.0,0.0,0.0,0.0,0.0,0.0,0.0,0.0,0.0,0.0,0.0,0.0,0.0,0.0,0.0,0.0,0.0,0.0,0.0,0.0,0.0,0.0,0.0,0.0,0.0,0.0,0.0,0.0,0.0,0.0,0.0,0.0,0.0,0.0,0.0,0.0,0.0,0.0,3.2875,0.0,0.0,0.0,0.0,0.0,0.0,0.0,0.0,0.0,0.0,0.0,0.0,0.0,0.0,0.0,0.0,0.0,0.0,0.0,0.0,0.0,0.0,0.0,0.0,0.0,0.0,0.0,0.0,0.0,0.0,0.0,0.0,0.0,0.0,0.0,0.0,0.0,0.0,0.0,0.0,2.7604,2.7949,2.8244,2.8381,2.8755,2.8766,2.8142,2.7903,2.7536,2.693,2.6847,0.0,0.0,0.0,0.0,0.0,0.0,0.0,0.0,0.0,0.0,0.0,0.0,0.0,0.0,0.0,0.0,0.0,0.0,0.0,0.0,0.0,0.0,0.0,0.0,0.0,0.0,0.0,0.0,0.0,0.0,0.0,0.0,0.0,0.0,0.0,0.0,0.0,0.0,0.0,0.0,0.0,0.0,0.0,0.0,0.0,0.0,0.0,0.0,0.0,0.0,0.0,0.0,0.0,3.4412,3.4936,3.5815,3.5815,3.621,3.6756,3.4784,3.3839,3.3577,0.0,0.0,0.0,0.0,0.0,0.0,0.0,0.0,0.0,0.0,0.0,0.0,0.0,0.0,0.0,0.0,0.0,0.0,0.0,0.0,0.0,0.0,0.0,0.0,0.0,2.7692,2.7845,0.0,0.0,0.0,0.0,0.0,0.0,0.0,0.0,0.0,0.0,0.0,0.0,2.7623,2.8032,2.8356,2.8472,2.8792,2.8858,2.8425,2.8105,2.7701,2.7243,2.6894,2.6664,0.0,0.0,0.0,0.0,0.0,0.0,0.0,0.0,0.0,0.0,0.0,0.0,0.0,0.0,0.0,0.0,0.0,0.0,0.0,0.0,0.0,0.0,0.0,0.0,0.0,0.0,0.0,0.0,0.0,0.0,0.0,0.0,3.1621,3.1693,0.0,0.0,0.0,0.0,0.0,0.0,0.0,0.0,0.0,0.0,0.0,0.0,0.0,3.4334,3.451,3.5429,3.5793,3.5576,3.6018,3.6395,3.6649,3.6649,3.6948,3.7448,3.6797,0.0,3.4813,3.4396,0.0,0.0,0.0,0.0,0.0,0.0,0.0,0.0,0.0,0.0,0.0,0.0,0.0,0.0,0.0,0.0,0.0,0.0,0.0,0.0,0.0,0.0,2.7419,2.7582,2.8041,2.8426,0.0,2.8338,2.8363,2.8043,2.797,0.0,0.0,0.0,0.0,0.0,0.0,0.0,2.7778,2.8327,2.8764,2.8924,2.8986,2.8858,2.8425,2.8333,2.7985,2.7261,2.7151,2.6967,2.6609,2.6646,0.0,0.0,0.0,0.0,0.0,0.0,0.0,0.0,0.0,0.0,0.0,0.0,0.0,0.0,0.0,0.0,0.0,0.0,0.0,0.0,0.0,0.0,0.0,0.0,0.0,0.0,0.0,0.0,0.0,3.2152,3.2273,3.2561,3.2609,3.2609,0.0,0.0,0.0,0.0,0.0,0.0,0.0,0.0,0.0,3.4549,3.5617,3.6017,3.56,3.6333,3.6698,3.6663,3.6867,3.7488,3.8379,3.8379,3.8694,3.926,3.8817,3.785,3.6472,3.5286,3.3783,3.2225,0.0,0.0,0.0,0.0,2.9803,2.9448,2.9589,2.9458,0.0,2.9246,0.0,0.0,0.0,0.0,0.0,0.0,0.0,0.0,0.0,0.0,2.8032,2.8325,2.8623,2.8793,2.8676,2.8658,2.8578,0.0,2.7897,2.7645,2.7343,0.0,0.0,0.0,0.0,2.7996,2.842,2.8872,2.9283,2.9629,2.9452,2.928,2.9097,2.8645,2.8242,2.7893,2.7463,2.7224,2.7279,2.7059,2.7096,0.0,0.0,0.0,0.0,0.0,0.0,0.0,0.0,0.0,0.0,0.0,0.0,0.0,0.0,0.0,0.0,0.0,0.0,0.0,0.0,0.0,0.0,0.0,0.0,0.0,0.0,0.0,0.0,3.2731,3.3044,3.3428,3.3597,3.3669,0.0,0.0,0.0,0.0,0.0,0.0,3.4397,3.5394,3.5963,3.5884,3.7246,3.7659,3.707,3.7554,3.7769,3.7739,3.7739,3.8306,3.9394,3.9394,3.9638,4.0103,3.967,3.8678,3.723,3.5733,3.4205,3.2778,3.2177,3.1114,2.9998,3.0388,3.0135,2.9685,3.0078,3.0014,2.9726,2.9726,0.0,2.9198,2.8534,0.0,0.0,0.0,0.0,2.7697,2.8483,2.8773,2.8957,2.9342,2.9556,2.9629,2.9629,2.9629,2.9329,0.0,2.8003,2.7706,2.7399,0.0,0.0,0.0,0.0,2.831,2.8924,2.9427,2.9858,3.0161,2.991,2.9721,2.9611,2.906,2.8608,2.8407,2.7848,2.7591,2.7793,2.7518,2.75,2.7793,0.0,0.0,0.0,0.0,0.0,0.0,0.0,0.0,0.0,0.0,0.0,0.0,0.0,0.0,0.0,0.0,0.0,0.0,0.0,0.0,0.0,0.0,0.0,0.0,0.0,0.0,0.0,0.0,0.0,3.3958,3.4414,0.0,0.0,0.0,0.0,3.5637,3.5362,3.5681,3.677,3.6592,3.6742,3.7366,3.8385,3.8985,3.9147,3.968,3.9606,3.892,3.892,3.8865,3.8743,3.8743,3.8808,3.8861,3.8529,3.766,3.6375,3.548,3.4261,3.2884,3.1639,3.0954,3.0674,3.0827,3.0862,3.083,3.0998,3.0732,3.0362,3.0362,2.9667,2.8836,2.877,2.8549,0.0,0.0,2.8601,2.8986,2.9427,2.9819,3.0204,3.0607,3.1006,3.1281,3.1281,3.1281,3.0712,0.0,2.8381,2.8234,2.783,0.0,2.7738,2.7757,2.8708,2.9316,2.9035,2.9957,3.0519,3.0235,3.0185,3.0002,2.9629,2.9556,2.9225,2.8443,2.8352,2.8197,2.7812,2.7775,2.7775,2.7793,2.7793,0.0,0.0,0.0,0.0,0.0,0.0,0.0,0.0,0.0,0.0,0.0,0.0,0.0,0.0,0.0,0.0,0.0,0.0,0.0,0.0,0.0,0.0,0.0,0.0,0.0,0.0,0.0,0.0,3.5674,3.5864,0.0,3.5829,3.5875,3.6018,3.6285,3.6569,3.7045,3.7727,3.8249,3.8605,3.8654,3.9614,3.9752,3.8974,3.9466,3.9343,3.8596,3.8596,3.8718,3.8972,3.8972,3.897,3.8982,3.8596,3.7889,3.6899,3.5815,3.4557,3.3238,3.2487,3.1903,3.1488,3.1515,3.1396,3.1226,3.128,3.118,3.105,3.1038,3.042,2.9695,2.9695,2.9451,2.9243,2.9489,2.9837,3.0351,3.1286,3.1634,3.1909,3.257,3.2845,3.2936,3.2936,3.2753,3.2276,3.1286,3.0259,2.9415,2.9023,2.8748,2.8656,2.8913,2.9297,2.9695,3.0106,3.053,3.0838,3.0969,3.0736,3.0516,3.0369,2.9904,2.9482,2.9207,2.8711,2.8443,2.8564,2.8326,2.8326,2.8564,2.8583,2.8583,0.0,0.0,0.0,0.0,0.0,0.0,0.0,0.0,0.0,0.0,0.0,0.0,0.0,0.0,0.0,0.0,0.0,0.0,0.0,0.0,0.0,0.0,0.0,0.0,0.0,0.0,3.6435,3.7173,3.7405,3.7439,3.7229,3.7352,3.7479,3.7449,3.7859,3.8305,3.8846,3.9411,3.9674,3.9636,4.0263,4.0185,3.9347,3.9645,3.9486,3.8867,3.901,3.9034,3.8938,3.8938,3.8691,3.8299,3.8045,3.749,3.6648,3.5851,3.4928,3.3964,3.335,3.2819,3.2384,3.2644,3.253,3.2221,3.2349,3.2313,3.2184,3.2056,3.1469,3.0809,3.0809,3.0607,3.0479,3.0901,3.1304,3.1854,3.2936,3.3211,3.3376,3.4055,3.4185,3.4185,3.4185,3.3983,3.3672,3.3285,3.1909,3.0681,3.029,2.9996,2.9904,3.018,3.0314,3.0589,3.1121,3.1322,3.1451,3.1579,3.1359,3.1084,3.0809,3.0198,2.9758,2.9611,2.8957,2.8718,2.9005,2.8737,2.8718,2.8975,2.9005,2.9005,2.9005,0.0,0.0,0.0,0.0,0.0,0.0,0.0,0.0,0.0,0.0,0.0,0.0,0.0,0.0,0.0,0.0,0.0,0.0,0.0,0.0,0.0,0.0,0.0,3.5277,3.6924,3.8182,3.8364,3.8919,3.9076,3.8511,3.9282,3.9609,3.9192,3.9296,3.9643,4.0243,3.9943,3.9947,4.0352,4.04,4.0411,4.0372,4.0372,4.0184,3.975,4.0164,3.9704,3.8626,3.8626,3.793,3.6831,3.6849,3.6405,3.565,3.5632,3.5412,3.4991,3.4148,3.358,3.3342,3.4147,3.4202,3.3927,3.4293,3.4165,3.378,3.3379,3.2701,3.2074,3.2074,3.2074,3.2166,3.2551,3.2955,3.3434,3.4238,3.4458,3.4568,3.4954,3.5046,3.5046,3.5046,3.5028,3.4881,3.4513,3.3175,3.1964,3.1538,3.1465,3.1433,3.1451,3.1781,0.0,3.2019,3.2368,3.2441,3.2074,3.2019,3.1689,3.0901,3.0461,3.0039,2.9666,2.9262,2.9042,2.9042,2.9042,2.9042,2.9042,2.9042,2.9042,2.9042,0.0,0.0,0.0,0.0,0.0,0.0,0.0,0.0,0.0,0.0,0.0,0.0,0.0,0.0,0.0,0.0,0.0,0.0,0.0,0.0,0.0,0.0,3.6924,3.7075,3.7953,3.8918,3.9783,3.9702,3.9679,3.9817,3.9958,4.0091,4.0315,4.0724,4.122,4.1762,4.1727,4.1559,4.1386,4.1404,4.0955,4.0066,4.0027,3.9682,3.8937,3.9032,3.8899,3.8614,3.8614,3.8104,3.7259,3.7538,3.7201,3.6493,3.6768,3.6823,3.6585,3.5211,3.4588,3.457,3.5064,3.521,3.5064,3.4881,3.4753,3.4643,3.4533,3.4183,3.3743,3.3743,3.3743,3.3762,3.3872,3.4202,3.4606,3.5155,3.5504,3.5815,3.62,3.631,3.631,3.631,3.5834,3.5394,3.5302,3.4661,3.3855,3.2881,3.2716,3.2625,3.2313,3.2368,0.0,3.2441,3.2533,3.2551,3.2441,3.2184,3.1909,3.1689,3.1029,3.0571,3.0492,3.0094,2.9874,2.9874,2.9874,2.9874,2.9874,2.9874,2.9874,0.0,0.0,0.0,0.0,0.0,0.0,0.0,0.0,0.0,0.0,0.0,0.0,0.0,0.0,0.0,0.0,0.0,0.0,0.0,0.0,0.0,0.0,3.7084,3.8344,3.8959,3.9281,3.9866,4.0983,4.0702,4.058,4.09,4.1032,4.1111,4.1221,4.165,4.2071,4.2388,4.2229,4.2047,4.1798,4.1435,4.0884,4.0153,4.0153,3.9815,3.9137,3.9331,3.9142,3.8629,3.8629,3.8194,0.0,3.7459,3.7326,3.7043,3.7116,3.7244,0.0,0.0,0.0,0.0,0.0,3.62,3.631,3.6072,3.5889,3.5742,3.5742,3.5467,3.5155,3.5155,3.5155,3.5192,3.5375,3.5559,3.5834,3.6237,3.6549,3.6787,3.6988,3.7043,3.7043,3.7043,3.6676,3.6292,3.6127,3.5907,0.0,3.4368,3.4057,3.3855,3.3651,3.3615,3.3615,3.3615,3.3468,3.3285,3.312,3.2753,3.2441,3.2276,3.1506,0.0,0.0,0.0,3.0204,3.0204,3.0204,0.0,0.0,0.0,3.0204,3.0204,0.0,0.0,0.0,2.9727,2.9868,0.0,0.0,0.0,0.0,0.0,0.0,0.0,0.0,0.0,0.0,0.0,0.0,0.0,0.0,0.0,0.0,3.8094,3.9536,4.0874,4.0841,4.1045,4.1975,4.1846,4.1761,4.1951,4.2368,4.2467,4.2129,4.24,4.2594,4.2594,0.0,0.0,0.0,0.0,4.0574,4.0495,4.0495,4.0291,3.99,4.0283,3.9888,3.8842,3.8842,3.8367,3.7574,3.7263,3.7318,3.7574,3.7263,3.7318,3.7574,3.7446,3.7208,3.6933,3.6878,3.7116,3.7446,3.7409,0.0,0.0,3.686,3.6621,3.6347,3.6347,3.6347,3.6421,3.6768,3.686,3.6951,3.7299,3.7409,3.7446,3.7446,3.7446,3.7446,3.7446,3.7409,3.7281,3.6933,3.686,3.664,3.5907,3.5376,3.5046,3.5009,3.4991,3.4991,3.4991,3.4697,3.433,3.3982,0.0,0.0,3.2771,3.2074,3.1648,3.1557,3.0864,3.0479,3.0479,3.0479,3.0479,3.0479,3.0479,3.0479,3.0479,3.0479,3.0479,3.0461,3.0332,3.0259,0.0,0.0,0.0,0.0,0.0,0.0,0.0,0.0,0.0,0.0,0.0,0.0,0.0,0.0,0.0,3.7127,3.8824,4.0638,4.2328,4.2554,4.2695,4.3229,4.2958,4.3002,4.3714,4.3921,4.397,4.3906,4.39,4.3922,4.3922,4.3174,4.2606,4.2246,4.1742,4.1156,4.0511,4.0511,4.0308,3.9884,0.0,0.0,3.9664,3.9664,3.9384,3.8856,3.9153,3.9116,3.8856,3.9193,3.9116,3.8747,3.7776,3.7537,3.7741,3.7391,3.7519,3.7851,3.7501,3.7336,3.7281,3.7281,3.7208,3.7153,3.7153,3.7153,0.0,3.7244,3.7281,3.7299,3.7373,3.7629,3.7867,3.7867,3.7867,3.7867,3.7867,3.7611,3.7373,3.7281,3.7281,3.7226,3.7061,3.6163,3.5357,3.5046,3.4991,3.4991,3.4991,3.4918,3.4844,3.4771,3.4422,3.4018,3.3615,3.3431,3.3065,3.2404,3.2221,3.2129,3.2129,3.2129,3.2129,3.2129,3.2129,3.2129,3.2129,3.2129,3.2129,3.2111,3.1121,3.0681,0.0,0.0,0.0,0.0,0.0,0.0,0.0,0.0,0.0,0.0,0.0,3.4715,0.0,0.0,3.7665,3.8723,4.0464,4.2067,4.318,4.3729,4.4064,4.4296,4.395,4.396,4.4609,4.4674,4.4707,4.4707,4.4435,4.4295,4.4295,4.3443,4.2841,4.2603,4.1981,4.1516,4.1079,4.0919,4.0607,4.0203,4.0203,4.0093,3.9891,3.9891,3.9762,3.9538,3.9538,3.9538,3.9557,3.9799,3.9762,3.9483,3.886,3.8472,3.827,3.8069,3.8124,3.827,3.8069,3.7995,3.7995,3.7995,3.7995,3.7995,3.7995,3.7995,3.7995,3.7995,3.7995,3.7995,3.7995,3.8142,3.8289,3.8289,3.8289,3.8289,3.8289,3.8142,3.794,3.7721,3.7723,3.7649,3.7409,3.6896,3.642,3.6218,3.6182,3.6182,3.6182,3.6017,3.5815,3.5596,3.5247,3.4844,3.4423,3.4055,3.3633,3.323,3.301,3.2991,3.3193,3.301,3.2918,3.2918,3.2698,3.2588,3.2588,3.2588,3.2588,3.2588,3.1964,3.1689,0.0,0.0,0.0,0.0,0.0,0.0,0.0,3.4211,3.4182,3.4784,3.5211,3.581,3.6898,3.8122,3.9353,4.0591,4.2191,4.345,4.4006,4.4707,4.5147,4.5131,4.4859,4.4805,4.5192,4.5231,4.5231,4.5231,4.4716,4.4415,4.4415,4.3458,4.2883,4.2883,4.2211,4.1794,4.1794,4.1506,4.1139,4.0754,4.0754,4.0533,4.0111,4.0111,4.0111,4.0111,3.9813,3.9887,4.024,4.024,4.0185,4.0111,3.9978,3.9502,3.882,3.8747,3.8673,3.86,3.86,3.86,3.86,3.86,3.86,3.86,3.86,3.86,3.86,3.86,3.86,3.86,3.86,3.86,3.86,3.86,3.86,3.86,3.86,3.86,3.8508,3.816,3.8126,3.7995,3.7684,3.7629,3.7574,3.7409,3.7391,3.7391,3.7391,3.7116,3.6786,3.6476,3.6127,3.5779,3.5376,3.4606,3.4202,3.4275,3.3873,3.38,3.4147,3.3745,3.3544,3.3544,3.3248,3.3065,3.3065,3.3065,3.3065,3.3065,3.3065,3.29,3.4212,3.4457,3.4892,3.4892,3.5082,3.5075,0.0,3.4631,3.5283,3.5813,3.6659,3.7634,3.8624,4.0204,4.1499,4.2071,4.3322,4.4515,4.5375,4.5547,4.5629,4.5613,4.557,4.5703,4.6113,4.6152,4.6152,4.6152,4.5321,4.4857,4.4857,4.3602,4.289,4.289,4.2461,4.2216,4.2216,4.2204,4.1941,4.1555,4.1555,4.1378,4.0974,4.0974,4.0974,4.0992,4.1262,4.1445,4.1482,4.1482,4.1304,4.0937,4.057,4.0166,3.9707,3.93,3.8911,3.86,3.86,3.86,3.86,3.86,3.86,3.86,3.86,3.86,3.86,3.86,3.86,3.86,3.86,3.86,3.86,3.86,3.86,3.86,3.86,3.86,3.8582,3.8545,3.8527,3.8527,3.8472,3.8472,3.8215,3.7501,3.7391,3.7391,3.7391,3.7354,3.7299,3.7263,3.7208,3.7024,3.6621,3.5852,3.5559,3.5925,3.5559,3.5339,3.5412,3.5009,3.4789,3.4789,3.4753,3.4716,3.4716,3.4716,3.4716,3.4716,3.4716,3.3982,3.4342,3.4513,3.5019,3.5644,3.5909,3.6034,3.6321,3.672,3.7233,3.7986,3.8717,3.9586,4.0745,4.1797,4.2759,0.0,4.4453,4.5273,4.5668,4.5727,4.5727,4.5727,4.5215,4.5191,4.5898,4.589,4.5914,4.5914,4.5299,4.4769,4.4503,4.3715,4.3224,4.3224,4.2883,4.2663,4.2663,4.2443,4.2241,4.2032,4.2032,4.1984,4.1818,4.1818,4.1818,4.1818,4.2002,4.2032,4.2014,4.1794,4.1592,4.1433,4.1011,4.0607,4.0203,3.9781,3.9336,3.8948,3.8948,3.8801,3.86,3.86,3.8765,3.8948,3.8948,3.9153,3.9281,3.9021,3.8948,3.8893,3.8655,3.86,3.86,3.86,3.86,3.86,3.86,3.86,3.86,3.86,3.86,3.86,3.86,3.86,3.849,3.8142,3.8087,3.8087,3.8087,3.8087,3.7995,3.7757,3.7519,3.7318,3.7153,3.6402,3.6237,3.6879,3.6311,3.6182,3.6621,3.6255,3.6054,3.6054,3.5577,3.5339,3.5339,3.5101,3.4991,3.4991,3.4991,3.4625,3.4625,3.4891,3.541,3.6639,3.7087,3.7398,3.8106,3.8778,3.9369,3.9934,4.0645,4.1442,4.2329,4.3013,4.3691,4.4453,4.5195,4.5766,4.584,4.5742,4.5582,4.5336,4.4596,4.4333,4.4907,4.515,4.5239,4.5239,4.4914,4.4548,4.4237,4.3748,4.3499,4.3499,4.325,4.3085,4.3085,4.2791,4.2589,4.2479,4.2479,4.2424,4.2314,4.2314,4.2314,4.2332,4.2443,4.2479,4.2461,4.2124,4.1959,4.1812,4.1433,4.1029,4.0644,4.0331,3.9891,3.9392,3.9392,3.9208,3.897,3.897,3.9171,3.9392,3.9392,3.9652,3.9817,3.9483,3.9318,3.9131,3.8838,3.8692,3.86,3.86,3.86,3.86,3.86,3.86,3.86,3.86,3.86,3.86,3.86,3.86,3.86,3.86,3.86,3.86,3.86,3.86,3.849,3.8218,3.7833,3.7594,3.7594,3.7044,3.6916,3.7354,3.6861,3.6768,3.7354,3.7006,3.686,3.6951,3.6383,3.609,3.609,3.5797,3.565,3.565,3.565,3.5596,3.5279,3.5943,3.6516,3.7975,3.889,3.9339,3.9122,4.0387,4.1519,4.121,4.2149,4.3029,4.3068,4.3769,4.4492,4.4899,4.5391,4.582,4.623,4.5937,4.5379,4.4461,4.3933,4.3462,0.0,4.3827,4.4364,4.4364,4.4278,4.4237,4.4193,4.3748,4.3499,4.3499,4.3481,4.3481,4.3481,4.3463,4.3261,4.2901,4.2901,4.27,4.2314,4.2314,4.2314,4.2307,4.2718,4.2901,4.2883,4.2883,4.2644,4.2216,4.1831,4.1451,4.1084,4.1066,4.0552,3.9872,3.9872,3.9854,3.9836,3.9836,3.9854,3.9872,3.9872,3.9872,3.9891,3.9872,3.9538,3.9186,3.9168,3.8893,3.86,3.86,3.86,3.86,3.86,3.86,3.86,3.86,3.86,3.86,3.86,3.86,3.86,3.86,3.86,3.86,3.86,3.86,3.86,3.8582,3.8215,3.7998,3.7998,3.7979,3.7814,3.7409,3.7373,3.7354,3.7391,3.7006,3.6988,3.7354,3.7336,3.7336,3.7336,3.7318,3.7318,3.7318,3.7318,3.7116,3.5437,3.6535,3.7595,3.9251,4.0499,4.1408,4.1635,4.2388,4.2973,4.2892,4.2969,4.3164,4.3437,4.373,4.4082,4.4531,4.4961,4.5293,4.543,4.5032,4.4566,4.3995,4.3216,0.0,0.0,0.0,0.0,4.3822,4.4039,4.406,4.3767,4.3589,4.3499,4.3499,4.3499,4.3499,4.3499,4.3499,4.3426,4.3279,4.3279,4.3224,4.3096,4.3096,4.3096,4.3096,4.3224,4.3279,4.3261,4.303,4.2828,4.2644,4.1941,4.1592,4.1488,4.1213,4.0919,4.0662,4.0387,4.0111,3.9891,3.9891,4.0074,4.0295,4.0295,4.0478,4.0644,4.0368,4.0162,3.9997,3.9744,3.9579,3.9487,3.9487,3.9226,3.8985,3.8985,3.8783,3.86,3.86,3.86,3.86,3.86,3.86,3.86,3.86,3.86,3.86,3.86,3.86,3.86,3.86,3.8472,3.8398,3.8398,3.8142,3.8071,3.8179,3.794,3.7904,3.8179,3.8069,3.7922,3.7776,3.7814,3.7686,3.7391,3.7391,3.7391,3.7391,3.7391,3.7318,3.6301,3.7684,3.9086,4.0843,4.205,4.288,4.3196,4.3719,4.4043,4.3574,4.3144,4.2871,4.3008,4.291,4.3047,4.3808,4.4277,4.4642,4.4982,4.4605,4.4128,4.3719,4.2988,4.2467,0.0,0.0,0.0,4.334,4.373,4.3811,4.3544,4.3499,4.3499,4.3499,4.3499,4.3499,4.3499,4.3499,4.3499,4.3499,4.3499,4.3499,4.3499,4.3499,4.3499,4.3499,4.3499,4.3499,4.3481,4.3206,4.3048,4.2865,4.2307,4.1941,4.1666,4.1433,4.1231,4.1066,4.0809,4.0552,4.0313,4.0313,4.0497,4.0717,4.0717,4.0901,4.1047,4.079,4.0625,4.0442,4.0185,4.0001,3.9891,3.9891,3.9689,3.9447,3.9447,3.9245,3.908,3.908,3.908,3.9025,3.8838,3.8692,3.86,3.86,3.86,3.86,3.86,3.86,3.86,3.86,3.86,3.86,3.86,3.8362,3.8252,3.838,3.8124,3.8126,3.8362,3.838,3.8325,3.8197,3.8197,3.8069,3.7812,3.7666,3.7592,3.7592,3.7446,3.7318,3.7846,3.944,4.0925,4.2645,4.3408,4.3769,4.3769,4.4394,4.459,4.334,4.2695,4.2187,4.1816,0.0,4.1621,4.2812,4.3398,4.3932,4.4827,4.4564,4.4081,0.0,0.0,0.0,0.0,0.0,0.0,4.2938,0.0,4.3499,4.3499,4.3499,4.3499,4.3499,4.3499,4.3499,4.3499,4.3499,4.3499,4.3499,4.3499,4.3499,4.3499,4.3499,4.3499,4.3499,4.3499,4.3499,4.3499,4.3499,4.3261,4.2938,4.292,4.2443,4.1739,4.1721,4.1506,4.1158,4.1139,4.1121,4.1102,4.1102,4.1102,4.1102,4.1102,4.1102,4.1102,4.1121,4.0845,4.0552,4.057,4.0258,3.9946,3.9946,3.9928,3.9909,3.9909,3.9891,3.9891,3.9891,3.9891,3.9762,3.9336,3.8911,3.8655,3.8637,3.8637,3.8618,3.86,3.86,3.86,3.86,3.86,3.86,3.86,3.86,3.8435,3.8032,3.8053,3.8053,3.8053,3.8053,3.8179,3.8563,3.86,3.86,3.8563,3.8197,3.8053,3.8034,3.7629,3.7244,3.9728,4.1068,4.2248,4.3658,4.4339,4.4687,4.4687,4.4355,4.3867,4.3203,4.2226,4.1367,4.0937,4.1035,0.0,4.2031,4.2723,0.0,4.3956,4.3827,0.0,4.3131,0.0,4.2842,4.2755,4.2846,0.0,0.0,4.3426,4.3499,4.3499,4.3499,4.3499,4.3499,4.3499,4.3499,4.3499,4.3499,4.3499,4.3499,4.3499,4.3499,4.3499,4.3499,4.3499,4.3499,4.3499,4.3499,4.3499,4.3499,4.3426,4.3298,4.303,4.2791,4.2571,4.2277,4.2051,4.1965,4.1672,4.1359,4.1102,4.1102,4.1102,4.1102,4.1102,4.1102,4.1158,4.1445,4.1268,4.1029,4.1341,4.1102,4.079,4.079,4.057,4.035,4.035,4.0111,3.9891,3.9891,3.9891,3.9854,3.9744,3.9634,3.9428,3.9095,3.904,3.893,3.8637,3.86,3.86,3.86,3.86,3.86,3.86,3.86,3.8563,3.8453,3.8435,3.8435,3.8435,3.8435,3.8343,3.8181,3.8435,3.8453,3.8142,3.8343,3.8435,3.8435,3.8343,3.8234,4.1188,4.2562,4.3748,4.4726,4.5137,4.5156,4.457,4.3926,4.3105,4.1933,4.0801,3.9902,3.9473,3.9746,4.039,0.0,0.0,0.0,4.3808,4.367,4.3428,0.0,4.3181,0.0,4.3151,4.3151,4.3243,0.0,4.3499,4.3499,4.3499,4.3499,4.3499,4.3499,4.3499,4.3499,4.3499,4.3499,4.3499,4.3499,4.3499,4.3499,4.3499,4.3499,4.3499,4.3499,0.0,4.3499,4.3499,4.3499,4.3499,4.3481,4.3224,4.3067,4.2883,4.2663,4.2461,4.2296,4.2032,4.1837,4.158,4.1213,4.1231,4.1378,4.1378,4.1506,4.169,4.1886,4.1818,4.169,4.1886,4.1647,4.1378,4.1378,4.1066,4.0772,4.0772,4.0588,4.0423,4.0423,4.0276,4.0166,4.0166,4.0001,3.9799,3.9538,3.9502,3.9355,3.8911,3.871,3.86,3.86,3.86,3.86,3.86,3.86,3.86,3.86,3.86,3.86,3.86,3.86,3.849,3.8252,3.849,3.849,3.8252,3.8307,3.8338,3.8322,3.814,3.7961,4.2598,4.3926,4.5137,4.5644,4.5625,4.5176,4.3906,4.3164,4.2187,4.0215,3.9101,3.8359,3.793,3.8242,3.9158,4.082,0.0,4.2742,4.3955,4.3753,4.3512,4.3562,4.3573,4.3591,4.3646,4.3646,4.3646,4.3646,4.3646,4.3628,4.3573,4.3573,4.3554,4.3499,4.3499,4.3499,4.3499,4.3499,4.3499,4.3499,4.3499,4.3499,4.3499,4.3499,4.3499,4.3499,4.3499,0.0,4.3499,4.3499,4.3499,4.3499,4.3499,4.3279,4.2993,4.2993,4.2773,4.2436,4.2424,4.2406,4.2277,4.1506,4.1506,4.1776,4.1776,4.1996,4.2332,4.2344,4.2326,4.2332,4.2387,4.2069,4.1776,4.1776,4.1488,4.1194,4.1194,4.1139,4.1102,4.1102,4.0827,4.0588,4.0588,4.0295,4.0019,3.9964,3.9964,3.9817,3.9355,3.893,3.8655,3.8618,3.86,3.86,3.86,3.86,3.86,3.86,3.86,3.86,3.86,3.86,3.8637,3.8673,3.8692,3.867,3.8685,3.832,3.8083,3.7948,3.7528,3.7069,4.4687,4.5078,4.5215,4.5996,4.5391,4.4375,4.3398,4.2031,4.0644,3.9551,3.8633,3.7874,3.748,3.8047,3.9023,4.041,4.1295,4.2273,4.3538,4.3609,4.3625,0.0,4.3976,4.4105,4.448,4.4471,0.0,0.0,0.0,4.437,4.3995,4.3976,4.3829,4.3499,4.3499,4.3499,4.3499,4.3499,4.3499,4.3499,4.3499,4.3499,4.3499,4.3499,4.3499,4.3499,4.3499,0.0,4.3499,4.3499,4.3499,4.3499,4.3499,4.3444,4.3389,4.3389,4.3334,4.3243,4.292,4.281,4.2736,4.2259,4.2167,4.2222,4.2222,4.2216,4.2387,4.2718,4.2571,4.2387,4.2718,4.2516,4.2222,4.2222,4.1867,4.1574,4.1574,4.1341,4.1102,4.1102,4.1047,4.0992,4.0992,4.0937,4.0772,4.046,4.0405,4.0258,3.9836,3.9392,3.8966,3.8637,3.86,3.86,3.86,3.86,3.86,3.86,3.86,3.86,3.86,3.86,3.8765,3.9076,3.9095,3.9098,3.9119,3.9046,3.8597,3.783,3.7349,3.6895,4.5644,4.584,4.5781,4.6191,4.5156,4.3691,4.2423,4.0742,3.9199,3.8105,3.7383,3.684,3.668,3.7519,3.8579,3.9658,4.0713,4.1925,4.3424,4.3784,4.403,4.4437,4.4659,4.4772,0.0,4.4719,0.0,0.0,0.0,4.482,4.4416,4.4196,4.3903,4.3499,4.3499,4.3499,4.3499,4.3499,4.3499,4.3499,4.3499,4.3499,4.3499,4.3499,4.3499,4.3499,4.3499,0.0,4.3499,4.3499,4.3499,4.3499,4.3499,4.3499,4.3499,4.3499,4.3499,4.3463,4.3261,4.3188,4.3169,4.2968,4.2766,4.2626,4.2626,4.2773,4.2949,4.3133,4.3059,4.2949,4.3151,4.2894,4.2626,4.2626,4.2289,4.1996,4.1996,4.1727,4.1433,4.1433,4.1249,4.1102,4.1102,4.1102,4.1029,4.0845,4.0809,4.0662,4.0258,3.9997,3.963,3.8985,3.8911,3.874,3.834,3.8282,3.8203,3.8004,3.7964,3.8084,3.8282,3.8084,3.8174,3.8555,3.8312,3.8144,3.8176,3.7876,3.7504,3.7022,3.6559,3.5923,4.6133,4.6308,4.6191,4.6289,4.4922,4.3125,4.1426,3.9609,3.7969,3.6777,3.6191,3.5879,3.5879,3.6855,3.7942,3.8816,3.9908,4.1301,4.305,4.3597,4.403,4.4715,4.5053,0.0,4.4958,4.4976,0.0,0.0,0.0,0.0,4.4884,4.4508,4.4123,4.3628,4.3628,4.3573,4.3499,4.3499,4.3499,4.3499,4.3499,4.3499,4.3499,4.3499,4.3499,4.3499,4.3499,0.0,0.0,4.3499,4.3499,4.3499,4.3499,4.3499,4.3499,4.3499,4.3499,4.3499,4.3499,4.3499,4.3499,4.3499,4.3279,4.3048,4.3048,4.3224,4.3499,4.3499,4.3499,4.3499,4.3499,4.3243,4.303,4.2938,4.2681,4.2424,4.2332,4.2032,4.1794,4.1702,4.1427,4.1213,4.1121,4.1018,4.0934,4.0934,4.0765,4.0554,4.0203,4.0083,3.9728,3.8947,3.9086,3.8922,3.8154,3.7935,3.7618,3.7128,3.707,3.7196,3.7428,3.7228,3.7281,3.7552,3.7166,3.6908,3.6772,3.6358,3.5989,3.5632,3.5163,3.4404,4.6265,4.6308,4.582,4.6211,4.4707,4.2695,4.0976,3.8945,3.7168,3.6269,3.5742,3.5449,3.5449,3.6226,3.7101,3.7949,3.8804,3.9995,4.1742,4.2268,4.3022,4.4551,0.0,0.0,4.57,4.5773,0.0,0.0,0.0,0.0,4.5306,4.5205,4.4838,4.405,4.4031,4.3866,4.3499,4.3499,4.3499,4.3499,4.3499,4.3499,4.3499,4.3499,4.3499,4.3499,4.3499,0.0,0.0,4.3499,4.3499,4.3499,4.3499,4.3499,4.3499,4.3499,4.3499,4.3499,4.3499,4.3499,4.3499,4.3499,4.3463,4.3444,4.3444,4.3463,4.3499,4.3499,4.3499,4.3499,4.3499,4.3463,4.3334,4.2993,4.2883,4.2755,4.2387,4.2252,4.2167,4.1757,4.1666,4.1519,4.1176,4.0765,4.0469,4.0469,3.9731,3.9186,3.9168,3.8785,3.8331,3.79,3.8636,3.8999,3.8494,3.767,3.6853,3.6085,3.6027,3.5916,3.5659,3.6005,3.6217,3.6191,3.616,3.5916,3.5455,3.5446,3.4746,3.3464,3.2996,3.2299,4.5664,4.6113,4.6035,4.5957,4.4297,4.2246,4.0527,3.8262,3.6367,3.5762,3.5293,3.5059,3.5351,3.5923,3.6537,3.7126,3.7934,3.9003,4.0489,4.1863,4.305,4.3907,4.4665,0.0,0.0,0.0,0.0,0.0,0.0,0.0,4.571,4.5425,4.493,4.4105,4.4086,4.3903,4.3499,4.3499,4.3499,4.3499,4.3499,4.3499,4.3499,4.3499,4.3499,4.3499,4.3499,0.0,0.0,4.3499,4.3499,4.3499,4.3499,4.3499,4.3499,4.3499,4.3499,4.3499,4.3499,4.3499,4.3499,4.3499,4.3499,4.3499,4.3499,4.3499,4.3499,4.3499,4.3499,4.3499,4.3499,4.3499,4.3444,4.3279,4.3243,4.3206,4.3041,4.2803,4.2539,4.2025,4.1764,4.1416,4.0977,4.0528,4.0095,3.9774,3.9209,3.8668,3.8346,3.7986,3.7698,3.7547,3.8005,3.7892,3.6943,3.6509,3.5941,3.5041,3.483,3.4857,3.5187,3.4933,3.49,3.513,3.4552,3.4087,3.373,3.3129,3.2539,3.1983,3.1511,3.0923,4.4238,4.5117,4.543,4.5019,4.3379,4.1445,3.9863,3.7598,3.5703,3.5273,3.4922,3.4805,3.5137,3.5573,3.6061,3.6474,3.7147,3.8117,3.9426,4.1151,4.2536,4.3298,0.0,4.4947,0.0,0.0,0.0,0.0,0.0,0.0,4.593,4.5627,4.5095,4.4288,4.4251,4.4013,4.3499,4.3499,4.3499,4.3499,4.3499,4.3499,4.3499,4.3499,4.3499,4.3499,4.3499,0.0,0.0,4.3499,4.3499,4.3499,4.3499,4.3499,4.3499,4.3499,4.3499,4.3499,4.3499,4.3499,4.3499,4.3499,4.3499,4.3499,4.3499,4.3499,4.3499,4.3499,4.3499,4.3499,4.3499,4.3499,4.3499,4.3499,4.3499,4.3499,4.3499,4.3261,4.2872,4.2215,4.176,4.122,4.0482,3.985,3.9277,3.8773,3.8047,3.7452,3.7095,3.6603,3.6282,3.6282,3.6307,3.6207,3.5763,3.5306,3.4721,3.3844,3.3399,3.3406,3.3885,3.3498,3.3316,3.3526,3.2844,3.2349,3.204,3.1324,3.088,3.0751,3.0405,3.0028,4.1952,4.3086,4.3633,4.3203,4.1816,4.0195,3.8887,3.6934,3.5273,3.4805,3.4707,3.4707,3.4707,3.5128,3.562,3.6039,3.6509,3.7259,3.8547,3.9748,4.1142,0.0,0.0,4.3976,4.5187,0.0,0.0,0.0,0.0,0.0,4.593,4.5883,4.5517,4.4737,4.4719,4.4333,4.3499,4.3499,4.3499,4.3499,4.3499,4.3499,4.3499,4.3499,4.3499,0.0,0.0,0.0,0.0,4.3499,4.3499,4.3499,4.3499,4.3499,4.3499,4.3499,4.3499,4.3499,4.3499,4.3499,4.3499,4.3499,4.3499,4.3499,4.3499,4.3499,4.3499,4.3499,4.3499,4.3499,4.3499,4.3499,4.3499,4.3499,4.3499,4.3499,4.3499,4.3499,4.3237,4.2269,4.1737,4.0975,3.9576,3.8552,3.7752,3.7306,3.6036,3.5135,3.5135,3.4245,3.3623,3.3623,3.3407,3.3858,3.5367,3.4244,3.3115,3.2382,3.183,3.1381,3.1067,3.1482,3.1525,3.1052,3.1009,3.0837,3.0434,3.0405,3.0189,2.9727,2.9727,2.9629,3.9766,4.0859,4.1504,4.1367,4.0254,3.9004,3.8301,3.6465,3.4961,3.5137,3.4922,3.4686,3.4765,3.495,3.524,3.5684,3.5867,3.6423,3.764,3.9344,0.0,4.1566,4.3221,4.4453,0.0,0.0,0.0,0.0,0.0,0.0,4.593,4.5883,4.5517,4.4737,4.4719,4.447,4.3989,4.3678,4.3678,4.3971,4.3678,4.3499,4.3499,4.3499,4.3499,0.0,0.0,0.0,0.0,4.3499,4.3499,4.3499,4.3499,4.3499,4.3499,4.3499,4.3499,4.3499,4.3499,4.3499,4.3499,4.3499,4.3499,4.3499,4.3499,4.3499,4.3499,4.3499,4.3499,4.3499,4.3499,4.3499,4.3499,4.3499,4.3499,4.341,4.3079,4.3034,4.2533,4.0846,4.0423,3.983,3.8399,3.7625,3.6939,3.6113,3.533,3.459,3.3894,3.3336,3.2977,3.2977,3.2708,3.2744,3.3398,3.2851,3.2204,3.1676,3.1301,3.1143,3.1197,3.1175,3.1076,3.0945,3.064,3.0378,3.0189,2.9896,2.9734,2.9559,2.9559,2.9417,3.7207,3.8516,3.9277,3.9101,3.834,3.75,3.707,3.5699,3.4588,3.4898,3.4741,3.4541,3.4595,3.4804,3.5097,3.5543,3.574,3.6256,3.7484,3.9135,0.0,4.1873,0.0,0.0,0.0,0.0,0.0,0.0,0.0,0.0,4.593,4.5883,4.5517,4.4737,4.4719,4.456,4.4212,4.3722,4.3767,4.4193,4.3704,4.3499,4.3499,4.3499,4.3499,0.0,0.0,0.0,0.0,4.3499,4.3499,4.3499,4.3499,4.3499,4.3499,4.3499,4.3499,4.3499,4.3499,4.3499,4.3499,4.3499,4.3499,4.3455,4.3303,4.3347,4.3499,4.3499,4.3499,4.3499,4.3499,4.3365,4.3258,4.3258,4.2945,4.2568,4.2299,4.1922,4.1245,3.9839,3.9229,3.8497,3.7023,3.639,3.5739,3.4712,3.415,3.3587,3.2974,3.2573,3.2322,3.2322,3.2014,3.1845,3.2004,3.1892,3.1665,3.1395,3.0939,3.0781,3.0959,3.0684,3.0574,3.0684,3.0322,3.0131,3.0195,2.994,2.9873,2.998,2.9918,2.9713,0.0,3.6055,3.6934,3.6656,3.6211,3.5781,3.543,3.4729,0.0,3.4272,3.428,3.4311,3.4334,3.4687,3.5116,3.5509,3.5888,3.6604,3.7833,3.9193,0.0,0.0,4.4196,0.0,0.0,0.0,0.0,0.0,0.0,0.0,4.5883,4.5883,4.5517,4.4737,4.4719,4.456,4.4212,4.3767,4.3767,4.4193,4.3704,4.3499,4.3499,4.3499,4.3499,0.0,0.0,0.0,0.0,4.3499,4.3499,4.3499,4.3499,4.3499,4.3499,4.3499,4.3499,4.3499,4.3499,4.3499,4.3499,4.3499,4.3499,4.3347,4.29,4.3079,4.3455,4.3347,4.3347,4.3365,4.3303,4.299,4.2613,4.2613,4.1877,4.1155,4.111,4.0368,3.9503,3.8926,3.8099,3.6977,3.5506,3.49,3.4244,3.3304,3.2691,3.2374,3.2361,3.1948,3.1711,3.1711,3.1423,3.1263,3.1263,3.1386,3.1473,3.1473,3.0816,3.044,3.044,3.0127,3.0114,3.0426,3.0114,3.0114,3.044,3.0453,3.06,3.0782,3.0587,3.0453,3.2266,0.0,3.4473,3.5019,3.4877,3.459,0.0,3.4212,3.3875,3.4906,3.4641,3.4327,3.469,3.4874,3.5045,3.5151,3.5467,3.6292,3.7796,3.9887,0.0,4.3316,4.4196,4.4756,0.0,0.0,0.0,0.0,0.0,4.5883,4.5883,4.5883,4.5517,4.4737,4.4719,4.456,4.4212,4.4104,4.4104,4.4193,4.3704,4.3499,4.3499,4.3499,4.3499,0.0,0.0,0.0,4.3499,4.3499,4.3499,4.3499,4.3499,4.3499,4.3499,4.3499,4.3499,4.3499,4.3499,4.3499,4.3499,4.3499,4.3258,4.2855,4.2344,4.2524,4.2793,4.2012,4.1832,4.1742,4.1353,4.1218,4.1037,4.0595,4.0322,3.9959,3.9246,3.888,3.8237,3.6576,3.6065,3.546,3.3963,3.3634,3.3304,3.2691,3.2455,3.228,3.1901,3.1758,3.1711,3.1711,3.161,3.157,3.157,3.1182,3.098,3.098,3.082,3.0688,3.0688,3.0621,3.0621,3.0688,3.0621,3.0621,3.0688,3.0915,3.0942,3.0795,3.0955,3.0902,3.1699,3.2461,3.3242,3.3711,3.3789,3.3828,3.4062,3.3934,3.396,3.4691,3.4528,3.4429,3.4884,3.4985,3.5039,3.5229,3.576,0.0,0.0,0.0,4.2472,4.3866,4.4416,4.4866,0.0,0.0,0.0,0.0,0.0,4.5883,4.5883,4.5883,4.5517,4.4737,4.4902,4.4742,4.4212,4.3971,4.3971,4.4193,4.3704,4.3499,4.3499,4.3499,4.3499,0.0,0.0,0.0,4.3499,4.3499,4.3499,4.3499,4.3499,4.3499,4.3499,4.3499,4.3499,4.3499,4.3499,4.3499,4.3455,4.3258,4.2837,4.2254,4.1291,4.1019,4.1019,4.0685,4.0459,4.0232,3.9976,3.9748,3.952,3.9246,3.8634,3.7991,3.7501,3.6853,3.6003,3.4946,3.4525,3.4056,3.3022,3.2958,3.2865,3.2341,3.2402,3.24,3.2174,3.2005,3.1864,3.1864,3.1744,3.1711,3.1711,3.1383,3.1196,3.1196,3.1062,3.0996,3.0996,3.0862,3.0795,3.0795,3.0795,3.0795,3.0795,3.0822,3.0808,3.0795,3.0822,3.0742,3.1825,3.2322,3.2641,3.2758,3.3039,3.3248,3.3306,3.3695,3.4058,3.4192,3.4267,3.4426,3.4927,3.5001,3.5156,3.5687,0.0,0.0,4.0387,4.169,4.2957,4.4444,4.4737,0.0,0.0,0.0,0.0,0.0,0.0,4.5883,4.5883,4.5883,4.5517,4.4737,4.5085,4.4923,4.4123,4.3767,4.3767,4.4104,4.3678,4.3499,4.3499,4.3499,4.3499,4.3499,0.0,0.0,4.3499,4.3499,4.3499,4.3499,4.3499,4.3499,4.3499,4.3499,4.3499,4.3499,4.3499,4.3455,4.3303,4.2837,4.2209,4.1381,4.0004,3.9109,3.8605,3.8909,3.8863,3.8618,3.848,3.8129,3.7823,3.7731,3.6761,3.5847,3.5754,3.4712,3.3775,3.3681,3.3351,3.2908,3.2429,3.26,3.2647,3.2254,3.2433,3.2594,3.2594,3.2367,3.2158,3.2104,3.1877,3.1764,3.1724,3.1711,3.1711,3.1711,3.1436,3.1289,3.1289,3.1062,3.0929,3.0929,3.0835,3.0795,3.0795,3.0547,3.0533,3.0715,3.056,3.0467,3.1127,3.148,3.1961,3.2705,3.2714,3.2644,3.2986,3.3125,3.3396,3.4117,3.4026,3.4038,3.4836,3.5001,3.5357,0.0,0.0,4.029,0.0,0.0,4.3177,4.4068,0.0,4.526,0.0,0.0,0.0,0.0,0.0,4.5883,4.5883,4.5883,4.5517,4.4737,4.4765,4.4424,4.3633,4.3926,4.3926,4.3633,4.3544,4.3499,4.3499,4.3499,4.3499,4.3499,0.0,4.3499,4.3499,4.3499,4.3499,4.3499,4.3499,4.3499,4.3499,4.3499,4.3499,4.3499,4.3499,4.3258,4.2793,4.2299,4.12,3.9959,3.8926,3.7362,3.5925,3.56,3.6065,3.6436,3.56,3.532,3.5133,3.4712,3.4432,3.415,3.3728,3.3445,3.3163,3.2738,3.255,3.2442,3.2176,3.216,3.2281,3.2487,3.2567,3.2594,3.2594,3.2554,3.2433,3.2131,3.2064,3.1931,3.1738,3.1711,3.1711,3.1711,3.1671,3.1597,3.1597,3.1557,3.1577,3.1577,3.1049,3.0795,3.0795,3.0547,3.0426,3.048,3.0635,3.0728,3.1079,3.1222,3.156,3.2446,3.2679,3.2768,3.2957,3.3355,3.3823,3.4221,3.4537,3.4838,3.5246,3.5684,3.6438,3.7867,0.0,4.1409,4.2259,4.3067,4.3874,0.0,0.0,0.0,0.0,0.0,0.0,0.0,0.0,0.0,4.5883,4.5682,4.5297,4.4737,4.4517,4.4068,4.3499,4.3722,4.3722,4.3499,4.3499,4.3499,4.3499,4.3499,4.3499,4.3499,0.0,4.3499,4.3499,4.3499,4.3499,4.3499,4.3499,4.3499,4.3499,4.3499,4.3347,4.3124,4.3124,4.2613,4.1877,4.1065,4.0004,3.8788,3.7254,3.5972,3.4806,3.3728,3.401,3.4478,3.401,3.3869,3.3822,3.3587,3.3304,3.3022,3.2786,3.2563,3.2368,3.2246,3.2225,3.2285,3.234,3.2478,3.2625,3.2808,3.2969,3.3013,3.3013,3.2929,3.2714,3.242,3.2198,3.1984,3.1738,3.1711,3.1711,3.1711,3.1711,3.1711,3.1711,3.1711,3.1711,3.1711,3.1249,3.1022,3.1022,3.0742,3.0641,3.0595,3.0728,3.0715,3.1036,3.1049,3.1227,3.2143,3.2572,3.2842,3.311,3.3707,3.4233,3.4439,3.4983,3.5532,3.5717,3.6718,0.0,3.9557,4.1097,4.2381,4.3214,4.3874,0.0,0.0,0.0,0.0,0.0,0.0,0.0,0.0,0.0,0.0,4.5755,4.5462,4.5058,4.459,4.4233,4.3903,4.3499,4.3499,4.3499,4.3499,4.3499,4.3499,4.3499,4.3499,4.3499,4.3499,4.3499,4.3499,4.3499,4.3499,4.3499,4.3499,4.3499,4.3499,4.3499,4.3392,4.3034,4.2568,4.2344,4.1607,4.0612,3.9594,3.8543,3.7408,3.5739,3.4712,3.3916,3.2738,3.2597,3.2847,3.2847,3.2847,3.2847,3.2847,3.2516,3.2246,3.2314,3.2056,3.1864,3.2144,3.2211,3.2305,3.2648,3.2875,3.3,3.3066,3.3267,3.3414,3.3414,3.3213,3.2995,3.2634,3.2393,3.2064,3.1751,3.1711,3.1711,3.1711,3.1711,3.1711,3.1711,3.1711,3.1711,3.1711,3.1383,3.1176,3.1176,3.0929,3.0795,3.0795,3.0795,3.0635,3.067,3.0741,3.0947,3.1838,3.2034,3.2361,3.35,3.3794,3.4051,3.4823,3.5008,3.5265,3.6017,3.8073,4.0074,4.1299,4.2546,4.3646,4.448,0.0,0.0,0.0,0.0,0.0,0.0,0.0,0.0,0.0,0.0,0.0,4.537,4.5315,4.4948,4.416,4.4105,4.3903,4.3499,4.3499,4.3499,4.3499,4.3499,4.3499,4.3499,4.3499,4.3499,4.3499,4.3499,4.3499,4.3499,4.3499,4.3499,4.3499,4.3499,4.3499,4.3455,4.3034,4.2524,4.1939,4.1082,4.0084,3.9063,3.8083,3.6792,3.5506,3.4946,3.3728,3.255,3.2408,3.209,3.1806,3.1806,3.1806,3.1806,3.1806,3.1758,3.1839,3.2059,3.2112,3.2158,3.25,3.2567,3.2661,3.2893,3.3009,3.3066,3.3334,3.34,3.3414,3.3414,3.3387,3.316,3.2661,3.2581,3.234,3.1764,3.1711,3.1711,3.1711,3.1711,3.1711,3.1711,3.1711,3.1711,3.1711,3.1383,3.1176,3.1176,3.0929,3.0795,3.0795,3.0795,3.0635,3.0334,3.0526,3.0972,3.2099,3.2368,3.2625,3.3596,3.4403,3.51,3.565,3.6328,3.7098,3.7904,0.0,4.068,4.1892,4.3324,4.4416,4.4985,4.5278,0.0,0.0,0.0,0.0,0.0,0.0,0.0,0.0,0.0,0.0,4.4911,4.4673,4.4398,4.4086,4.3848,4.3646,4.3499,4.3499,4.3499,4.3499,4.3499,4.3499,4.3499,4.3499,4.3499,4.3499,4.3499,4.3499,4.3499,4.3499,4.3499,4.3455,4.3169,4.2934,4.2583,4.1853,4.1049,4.0224,3.9593,3.8471,3.7177,3.6467,3.5445,3.4338,3.3493,3.2833,3.2327,3.2043,3.1853,3.1711,3.1711,3.1711,3.1711,3.1711,3.181,3.1971,3.2078,3.2251,3.2514,3.2808,3.2862,3.2906,3.32,3.3253,3.328,3.3387,3.3414,3.3414,3.3414,3.3414,3.3187,3.2661,3.226,3.1965,3.1738,3.1711,3.1711,3.1711,3.1711,3.1711,3.1711,3.1711,3.1711,3.1711,3.1557,3.1503,3.1503,3.1396,3.1343,3.1343,3.1343,3.1076,3.0279,3.0618,3.1199,3.2324,3.279,3.323,3.4165,3.5119,3.5999,3.6824,3.7833,3.8841,3.9667,0.0,0.0,0.0,4.3838,4.482,4.5242,4.5645,4.5847,0.0,0.0,0.0,0.0,0.0,0.0,0.0,0.0,0.0,0.0,4.4233,4.4031,4.3903,4.3628,4.3499,4.3499,4.3499,4.3499,4.3499,4.3499,4.3499,4.3499,4.3499,4.3499,4.3499,4.3499,4.3499,4.3481,4.3353,4.3209,4.2986,4.2515,4.2005,4.14,4.0465,3.9396,3.837,3.7672,3.6633,3.5464,3.487,3.415,3.3304,3.2597,3.2327,3.209,3.1806,3.1711,3.1711,3.1711,3.1744,3.181,3.181,3.2024,3.2265,3.2358,3.2532,3.2822,3.3053,3.312,3.3173,3.3374,3.3414,3.3414,3.3414,3.3414,3.3414,3.3414,3.3414,3.3187,3.2661,3.2072,3.1711,3.1711,3.1711,3.1711,3.1711,3.1711,3.1711,3.1711,3.1711,3.1711,3.1711,3.1711,3.1711,3.1711,3.1711,3.1711,3.1711,3.157,3.1263,3.0587,3.1056,3.1612,3.2386,3.3211,3.4128,3.5321,3.5944,3.6696,3.8289,3.93,4.0148,4.0956,4.1409,0.0,4.3298,4.416,4.482,4.5242,4.5627,4.5737,0.0,0.0,0.0,0.0,0.0,0.0,0.0,0.0,0.0,0.0,4.4068,4.3903,4.3499,4.3499,4.3499,4.3499,4.3499,4.3499,4.3499,4.3499,4.3499,4.3499,4.3499,4.3499,4.3499,4.3499,4.3481,4.3463,4.3041,4.2549,4.2012,4.1493,4.0777,3.9957,3.8924,3.7733,3.6487,3.5304,3.4552,3.4056,3.3394,3.2833,3.2408,3.2408,3.209,3.1711,3.1711,3.1711,3.1711,3.1711,3.1891,3.2104,3.2104,3.238,3.2674,3.2919,3.2986,3.3066,3.336,3.3414,3.3414,3.3414,3.3414,3.3414,3.3414,3.3414,3.3414,3.3414,3.3414,3.3187,3.2661,3.2072,3.1711,3.1711,3.1711,3.1711,3.1711,3.1711,3.1711,3.1711,3.1711,3.1711,3.1711,3.1711,3.1711,3.1711,3.1711,3.1711,3.1711,3.1356,3.1076,3.058,3.1088,3.1653,3.2753,3.3633,3.4697,3.6438,3.7391,3.8435,4.0382,4.0969,4.1249,4.1506,4.1831,0.0,4.3334,0.0,0.0,4.4801,4.4948,4.4985,4.4875,0.0,0.0,0.0,0.0,0.0,0.0,0.0,0.0,0.0,4.3664,4.3609,4.3499,4.3499,4.3499,4.3499,4.3169,4.3034,4.299,4.2299,4.2479,4.3499,4.3499,4.3499,4.3481,4.3188,4.2882,4.2492,4.146,4.0711,4.0182,3.9372,3.8519,3.7595,3.6323,3.5523,3.4924,3.3894,3.3308,3.291,3.2711,3.2327,3.1901,3.1901,3.1806,3.1711,3.1711,3.1711,3.1711,3.1711,3.1891,3.2104,3.2104,3.2492,3.2929,3.2959,3.3133,3.3307,3.3387,3.3414,3.3414,3.3414,3.3414,3.3414,3.3414,3.3414,3.3414,3.3414,3.3053,3.2781,3.2607,3.2072,3.1711,3.1711,3.1711,3.1711,3.1711,3.1711,3.1711,3.1711,3.1711,3.1711,3.1711,3.1711,3.1711,3.1711,3.1711,3.1711,3.1711,3.1356,3.1076,3.0967,3.1658,3.2368,3.3431,3.4532,3.5981,3.8328,3.9373,4.029,4.1831,4.2204,4.2259,4.2381,4.2454,0.0,4.3389,4.3829,0.0,0.0,4.4627,4.4664,4.4453,0.0,0.0,0.0,0.0,0.0,0.0,0.0,0.0,0.0,4.2855,4.2613,4.2613,4.2452,4.2362,4.2362,4.2074,4.1804,4.1607,4.0864,4.0867,4.1557,4.2093,4.2273,4.2094,4.1727,4.1195,4.0526,3.9691,3.8998,3.8334,3.733,3.6412,3.5564,3.4335,3.3649,3.3253,3.2608,3.2343,3.221,3.2144,3.1948,3.1711,3.1711,3.1711,3.1711,3.1711,3.1711,3.1711,3.1711,3.1891,3.2131,3.2251,3.2639,3.3013,3.3133,3.3293,3.3414,3.3414,3.3414,3.3414,3.3414,3.3414,3.3414,3.3414,3.3414,3.3414,3.3414,3.2906,3.2594,3.2594,3.2072,3.1711,3.1711,3.1711,3.1711,3.1711,3.1711,3.1711,3.1711,3.1711,3.1711,3.1711,3.1711,3.1711,3.1711,3.1711,3.1711,3.1711,3.1356,3.1129,3.1601,3.2581,3.3434,3.4257,3.576,3.7776,4.0552,4.1506,4.2014,4.281,4.2975,4.3085,4.3426,4.3188,4.3041,4.3426,4.3793,0.0,0.0,4.4343,4.448,4.4068,0.0,0.0,0.0,0.0,0.0,0.0,0.0,0.0,0.0,4.1787,4.12,4.1155,4.0702,4.0447,4.0447,4.0402,4.0141,3.9635,3.921,3.8739,3.8363,3.9722,4.0168,3.973,3.9389,3.8768,3.801,3.7816,3.7236,3.6359,3.5296,3.4427,3.3665,3.2739,3.2138,3.1739,3.1514,3.1631,3.1865,3.1725,3.1711,3.1711,3.1711,3.1711,3.1711,3.1711,3.1711,3.1711,3.1711,3.1864,3.2131,3.2487,3.2781,3.3013,3.328,3.3334,3.3334,3.3374,3.3374,3.3374,3.3414,3.3414,3.3414,3.3414,3.3414,3.3414,3.3414,3.2906,3.2594,3.2594,3.2072,3.1711,3.1711,3.1711,3.1711,3.1711,3.1711,3.1711,3.1711,3.1711,3.1711,3.1711,3.1711,3.1711,3.1711,3.1711,3.1711,3.1711,3.1356,3.1176,3.1842,3.2786,3.3837,3.4661,3.7024,3.9593,4.1189,4.2149,4.2791,4.3261,4.3353,4.3389,4.3481,4.3426,4.3389,4.3481,4.3573,4.3628,0.0,0.0,0.0,0.0,0.0,0.0,0.0,0.0,0.0,0.0,0.0,0.0,4.2209,4.1263,4.0566,4.0141,3.9686,3.9412,3.9412,3.9063,3.8686,0.0,3.7055,3.6291,3.5981,3.7782,3.8435,3.7997,3.7562,3.7096,3.6568,3.541,3.4648,3.403,3.3087,3.2361,3.1814,3.1248,3.1239,3.1514,3.1091,3.1316,3.1725,3.1698,3.1711,3.1711,3.1711,3.1711,3.1711,3.1711,3.1711,3.1711,3.1711,3.1764,3.1885,3.2131,3.2474,3.2701,3.2768,3.2781,3.2848,3.3026,3.3066,3.3146,3.3374,3.3414,3.3414,3.3414,3.3414,3.3414,3.3414,3.2906,3.2594,3.2594,3.2072,3.1711,3.1711,3.1711,3.1711,3.1711,3.1711,3.1711,3.1711,3.1711,3.1711,3.1711,3.1711,3.1711,3.1711,3.1711,3.1711,3.1711,3.1356,3.1176,3.2129,3.3175,3.4532,3.6273,3.8603,4.0694,4.1739,4.2582,4.3224,4.3444,4.3499,4.3499,4.3499,4.3499,4.3499,4.3499,4.3499,4.3499,4.3499,4.3499,0.0,0.0,0.0,0.0,0.0,0.0,0.0,0.0,0.0,4.1742,4.0974,3.9611,3.8605,3.8083,3.7219,3.6757,3.6757,3.6388,3.5989,3.5531,3.4667,3.3916,3.3381,3.5038,3.5676,3.5459,3.5023,3.4589,3.4128,3.3381,3.2808,3.2322,3.1626,3.1182,3.0928,3.0437,3.0556,3.0961,3.0834,3.1089,3.1476,3.1671,3.1711,3.1711,3.1711,3.1711,3.1711,3.1711,3.1711,3.1711,3.1711,3.1711,3.1751,3.1864,3.2118,3.242,3.2567,3.2594,3.2634,3.2795,3.2822,3.2875,3.2973,3.3106,3.3253,3.3387,3.3414,3.3414,3.3414,3.2906,3.2594,3.2594,3.2072,3.1711,3.1711,3.1711,3.1711,3.1711,3.1711,3.1711,3.1711,3.1711,3.1711,3.1711,3.1711,3.1711,3.1711,3.1711,3.1711,3.1711,3.1517,3.1436,3.2404,3.3633,3.5339,3.794,3.9813,4.1231,4.2112,4.2858,4.3408,4.3481,4.3499,4.3499,4.3499,4.3499,4.3499,4.3499,4.3499,4.3499,4.3499,4.3499,4.3455,4.341,0.0,0.0,0.0,0.0,0.0,0.0,0.0,4.0504,3.9594,3.7685,3.6421,3.585,3.4607,3.3923,3.3879,3.3663,3.3292,3.2722,3.2306,3.1681,3.0954,3.2051,3.2684,3.295,3.2585,3.2247,3.1893,3.1804,3.1537,3.1137,3.066,3.0482,3.0437,3.0048,3.01,3.044,3.0635,3.0942,3.1263,3.1517,3.1623,3.1711,3.1711,3.1711,3.1711,3.1711,3.1711,3.1711,3.1711,3.1711,3.1711,3.1711,3.1851,3.2091,3.2393,3.2447,3.246,3.2514,3.2567,3.2594,3.2594,3.2795,3.3,3.3293,3.3334,3.336,3.34,3.2906,3.2594,3.2594,3.2072,3.1711,3.1711,3.1711,3.1711,3.1711,3.1711,3.1711,3.1711,3.1711,3.1711,3.1711,3.1711,3.1711,3.1711,3.1711,3.1711,3.1711,3.1711,3.1711,3.2478,3.4238,3.6402,3.816,3.9612,4.0901,4.2057,4.2663,4.3103,4.3426,4.3499,4.3499,4.3499,4.3499,4.3499,4.3499,4.3499,4.3499,4.3499,4.3499,4.3347,4.2945,4.2882,0.0,0.0,0.0,0.0,0.0,3.9947,3.9154,3.8605,3.6715,3.5232,3.4487,3.3472,3.2806,3.2538,3.2496,3.2214,3.1575,3.056,2.979,2.9326,2.9498,3.0324,3.1549,3.1521,3.1449,3.136,3.0973,3.075,3.066,3.0182,3.0003,3.0003,2.9913,3.01,3.0413,3.0453,3.0768,3.1236,3.1276,3.1463,3.1711,3.1711,3.1711,3.1711,3.1711,3.1711,3.1711,3.1711,3.1711,3.1711,3.1711,3.1751,3.1791,3.1831,3.1831,3.1912,3.2104,3.242,3.2594,3.2594,3.2621,3.2755,3.2986,3.304,3.3133,3.3374,3.2906,3.2594,3.2594,3.2072,3.1711,3.1711,3.1711,3.1711,3.1711,3.1711,3.1711,3.1711,3.1711,3.1711,3.1711,3.1711,3.1711,3.1711,3.1711,3.1711,3.1711,3.1711,3.1711,3.3366,3.4692,3.6219,3.7574,3.9043,4.0423,4.1415,4.213,4.27,4.3059,4.3151,4.3224,4.3444,4.3499,4.3499,4.3499,4.3499,4.3499,4.3499,4.3499,4.3303,4.2837,4.2524,4.1984,0.0,0.0,0.0,0.0,3.8696,3.7727,3.6573,3.5129,3.3839,3.274,3.1882,3.1363,3.1227,3.0899,3.0503,3.0035,2.9545,2.9206,2.9001,2.9001,2.9353,3.0035,3.0035,3.0035,2.9991,2.9771,2.9822,2.9984,2.9762,2.9766,2.9913,2.9913,2.9993,3.014,3.0346,3.0574,3.0768,3.0929,3.1183,3.1423,3.1423,3.153,3.1711,3.1711,3.1711,3.1711,3.1711,3.1711,3.1711,3.1711,3.1711,3.1711,3.1711,3.1711,3.1751,3.1837,3.2005,3.2152,3.2265,3.2291,3.2452,3.2906,3.2973,3.3026,3.3146,3.2848,3.2527,3.2318,3.1965,3.1711,3.1711,3.1711,3.1711,3.1711,3.1711,3.1711,3.1711,3.1711,3.1711,3.1711,3.1711,3.1711,3.1711,3.1711,3.1711,3.1711,3.1711,3.1711,3.3923,3.4872,3.5907,3.7232,3.8572,3.9836,4.0864,4.158,4.2149,0.0,4.2755,4.2846,4.3133,4.3353,4.3499,4.3499,4.3392,4.3303,4.3303,4.3079,4.2703,4.2102,4.1561,4.0793,3.9611,3.9092,0.0,0.0,3.6852,3.596,3.4586,3.3559,3.2495,3.1409,3.0667,3.0253,3.0186,2.9553,2.9152,2.8881,2.8845,2.8804,2.8804,2.8804,2.8804,2.8818,2.8935,2.9001,2.9001,2.9001,2.9165,2.9366,2.9366,2.9553,2.9806,2.9806,2.9847,2.9953,3.0167,3.0346,3.044,3.0608,3.0875,3.1129,3.1162,3.1383,3.157,3.1698,3.1711,3.1711,3.1711,3.1711,3.1711,3.1711,3.1711,3.1711,3.1711,3.1711,3.1711,3.1711,3.1711,3.1744,3.1957,3.1998,3.2171,3.2679,3.2759,3.2786,3.2915,3.2661,3.2393,3.2131,3.1837,3.1711,3.1711,3.1711,3.1711,3.1711,3.1711,3.1711,3.1711,3.1711,3.1711,3.1711,3.1711,3.1711,3.1711,3.1711,3.1711,3.1711,3.1711,3.1711,3.3613,3.4704,3.5981,3.7592,3.8305,3.9076,4.0735,4.1139,4.1396,4.2186,4.2307,4.2351,4.2387,4.2968,4.3499,4.3499,4.3124,4.2837,4.2837,4.2012,4.1065,4.005,3.952,3.8513,3.6622,3.6405,3.585,3.4504,3.3981,3.3513,3.3151,3.2129,3.1455,3.1154,3.0357,2.9806,2.9526,2.8951,2.8644,2.8631,2.8366,2.8232,2.8232,2.8232,2.8232,2.8259,2.8791,2.9001,2.9001,2.9001,2.9001,2.9015,2.9015,2.9245,2.9499,2.9499,2.9686,2.9913,2.994,3.0127,3.0413,3.0426,3.0581,3.0862,3.1142,3.1189,3.1303,3.1597,3.1711,3.1711,3.1711,3.1711,3.1711,3.1711,3.1711,3.1711,3.1711,3.1711,3.1711,3.1711,3.1711,3.1724,3.1738,3.1738,3.1845,3.2104,3.2144,3.2251,3.2581,3.2305,3.2118,3.2104,3.1837,3.1711,3.1711,3.1711,3.1711,3.1711,3.1711,3.1711,3.1711,3.1711,3.1711,3.1711,3.1711,3.1711,3.1711,3.1711,3.1711,3.1711,3.1711,3.1711,3.3575,3.4267,3.5135,3.6515,3.7347,3.8105,3.9263,3.9946,4.0552,4.1378,4.1543,4.1708,4.2179,4.2773,4.3096,4.3096,4.2942,4.2613,4.2049,4.1148,4.0076,3.8836,3.8039,3.691,3.5288,3.4831,3.4191,3.3065,3.2821,3.2464,3.1791,3.1459,3.0877,3.0119,2.9775,2.9406,2.8925,2.8711,2.8511,2.8353,2.8232,2.8179,2.8179,2.8179,2.8179,2.8192,2.8406,2.8513,2.8513,2.8513,2.8577,2.8721,2.8721,2.8938,2.9219,2.9419,2.9553,2.9659,2.9847,2.998,3.0074,3.0074,3.0274,3.0574,3.0635,3.0795,3.0969,3.1076,3.1236,3.1383,3.1383,3.153,3.1711,3.1711,3.1711,3.1711,3.1711,3.1711,3.1711,3.1711,3.1711,3.1711,3.1711,3.1711,3.177,3.2064,3.2104,3.2144,3.2251,3.2171,3.2024,3.1837,3.1778,3.1711,3.1711,3.1711,3.1711,3.1711,3.1711,3.1711,3.1711,3.1711,3.1711,3.1711,3.1711,3.1711,3.1711,3.1711,3.1711,3.1711,3.1711,3.1711,3.3553,3.4137,3.4889,3.6064,3.6887,3.7601,3.8255,3.9061,3.9836,4.0327,4.0607,4.0864,4.1396,4.169,4.2006,4.2426,4.1905,4.1266,4.0665,3.9367,3.8059,3.7025,3.6036,3.4955,3.3609,3.3199,3.2668,3.1748,3.1642,0.0,3.0614,3.0555,3.015,2.9249,2.9192,2.8951,2.8457,2.8457,2.8393,2.8179,2.8179,2.8179,2.8179,2.8179,2.8179,2.8179,2.8179,2.8179,2.8179,2.8179,2.8312,2.8457,2.8457,2.8631,2.8868,2.9112,2.9312,2.9513,2.97,2.9833,2.9913,2.9913,3.0047,3.0234,3.0373,3.0533,3.0662,3.0768,3.0929,3.1076,3.1076,3.1303,3.1543,3.165,3.1711,3.1711,3.1711,3.1711,3.1711,3.1711,3.1711,3.1711,3.1711,3.1711,3.1778,3.1931,3.1957,3.1957,3.1957,3.1957,3.1877,3.1738,3.1711,3.1711,3.1711,3.1711,3.1711,3.1711,3.1711,3.1711,3.1711,3.1711,3.1711,3.1711,3.1711,3.1711,3.1711,3.1711,3.1711,3.1711,3.1711,3.1617,0.0,0.0,0.0,3.6351,3.7015,3.7462,3.7855,3.8563,3.915,3.915,3.9538,3.9872,3.9872,3.9814,4.0132,4.1287,3.9974,3.8757,3.874,3.6632,3.4969,3.4472,3.3551,3.2549,3.1556,3.1464,3.1112,3.0386,3.036,3.0119,2.9499,2.9459,2.9192,2.8631,2.8604,2.8444,2.8192,2.8179,2.8179,2.8179,2.8179,2.8179,2.8179,2.8179,2.8179,2.8179,2.8179,2.8179,2.8179,2.8179,2.8179,2.8179,2.8179,2.8366,2.8591,2.8604,2.8965,2.9459,2.9472,2.9673,2.99,2.9913,2.9913,2.9967,3.0306,3.0386,3.0453,3.0688,3.0768,3.0782,3.0795,3.0996,3.1289,3.1631,3.1698,3.1711,3.1711,3.1711,3.1711,3.1711,3.1711,3.1711,3.1711,3.1711,3.1711,3.1711,3.1711,3.1711,3.1711,3.1711,3.1711,3.1711,3.1711,3.1711,3.1711,3.1711,3.1711,3.1711,3.1711,3.1711,3.1711,3.1711,3.1711,3.1711,3.1711,3.1711,3.1711,3.1711,3.1711,3.1711,3.1711,3.1343,3.3113,0.0,0.0,0.0,0.0,0.0,3.6586,3.7558,3.8307,3.8307,3.8915,3.9392,3.9392,3.9109,3.8867,3.8936,3.84,3.7691,3.6751,3.4925,3.3407,3.2659,3.1756,3.0923,3.0263,3.0219,2.9971,0.0,2.9406,2.9295,2.9135,2.8965,2.8778,2.8617,2.839,2.8272,2.8179,2.8179,2.8179,2.8179,2.8179,2.8179,2.8179,2.8179,2.8179,2.8179,2.8179,2.8179,2.8179,2.8179,2.8179,2.8179,2.8179,2.8232,2.8339,2.8524,2.8711,2.8911,2.9339,2.9539,2.9633,2.9847,2.9913,2.9927,3.0007,3.0034,3.006,3.014,3.0314,3.0574,3.0742,3.0849,3.0982,3.1276,3.1343,3.141,3.1671,3.1711,3.1711,3.1711,3.1711,3.1711,3.1711,3.1711,3.1711,3.1711,3.1711,3.1711,3.1711,3.1711,3.1711,3.1711,3.1711,3.1711,3.1711,3.1711,3.1711,3.1711,3.1711,3.1711,3.1711,3.1711,3.1711,3.1711,3.1711,3.1711,3.1711,3.1711,3.1711,3.1711,3.145,3.1142,0.0,0.0,0.0,0.0,0.0,0.0,3.5907,3.6731,3.7537,0.0,3.8105,3.8545,3.8875,3.832,3.7642,3.7229,3.6492,3.5717,3.5093,3.3254,3.1772,3.1296,3.0419,2.977,2.9423,2.9423,2.9292,2.9045,2.9001,2.8948,2.8828,2.8577,2.8417,2.8417,2.8272,2.8179,2.8179,2.8179,2.8179,2.8179,2.8179,2.8179,2.8179,2.8179,2.8179,2.8179,2.8179,2.8179,2.8179,2.8179,2.8179,2.8179,2.8179,2.8179,2.8205,2.8393,2.8497,2.8671,2.9138,2.9379,2.9526,2.982,2.9913,2.9913,2.9913,2.9913,2.9913,2.9913,3.0047,3.0247,3.0587,3.0608,3.0688,3.0982,3.1049,3.1129,3.1423,3.149,3.1517,3.1684,3.1711,3.1711,3.1711,3.1711,3.1711,3.1711,3.1711,3.1711,3.1711,3.1711,3.1711,3.1711,3.1711,3.1711,3.1711,3.1711,3.1711,3.1711,3.1711,3.1711,3.1711,3.1711,3.1711,3.1711,3.1711,3.1711,3.1711,3.1711,3.161,3.1476,3.1183,3.0889,0.0,0.0,0.0,0.0,0.0,0.0,3.5485,3.6108,3.6823,0.0,3.7336,3.7647,3.8289,3.751,3.661,3.6052,3.4546,3.3511,3.3671,3.1751,3.0293,3.0293,2.9487,2.8895,2.8895,2.8895,2.8895,2.8895,2.8895,2.8831,2.8564,2.8339,2.8179,2.8179,2.8179,2.8179,2.8179,2.8179,2.8179,2.8179,2.8179,2.8179,2.8179,2.8179,2.8179,2.8179,2.8179,2.8179,2.8179,2.8179,2.8179,2.8179,2.8179,2.8179,2.8179,2.8179,2.8366,2.8591,2.8855,2.9165,2.9432,2.9726,2.982,2.982,2.986,2.9873,2.9873,2.99,2.9913,2.998,3.0293,3.036,3.0426,3.0675,3.0742,3.0822,3.1116,3.1183,3.1249,3.1517,3.1671,3.1711,3.1711,3.1711,3.1711,3.1711,3.1711,3.1711,3.1711,3.1711,3.1711,3.1711,3.1711,3.1711,3.1711,3.1711,3.1711,3.1711,3.1711,3.1711,3.1711,3.1711,3.1711,3.1711,3.1711,3.1711,3.1711,3.1711,3.1517,3.1176,3.0929,3.0635,0.0,0.0,0.0,0.0,0.0,0.0,3.4623,3.5522,3.6256,0.0,3.697,3.7721,3.7244,3.6952,3.6434,3.5307,3.3923,3.2905,3.2602,3.0882,2.9663,2.9663,2.8903,2.8366,2.8366,2.8366,2.8366,2.8366,2.8366,2.8339,2.8272,2.8219,2.8179,2.8179,2.8179,2.8179,2.8179,2.8179,2.8179,2.8179,2.8179,2.8179,2.8179,2.8179,2.8179,2.8179,2.8179,2.8179,2.8179,2.8179,2.8179,2.8179,2.8179,2.8179,2.8179,2.8179,2.8219,2.8326,2.8591,2.8724,2.8831,2.9068,2.9161,2.9215,2.9499,2.9566,2.9619,2.9847,2.9913,2.9927,2.998,3.0007,3.0074,3.0413,3.0493,3.0574,3.0808,3.0875,3.0889,3.0955,3.139,3.1711,3.1711,3.1711,3.1711,3.1711,3.1711,3.1711,3.1711,3.1711,3.1711,3.1711,3.1711,3.1711,3.1711,3.1711,3.1711,3.1711,3.1711,3.1711,3.1711,3.1711,3.1711,3.1711,3.1711,3.1711,3.1711,3.1711,3.1517,3.1176,3.0929,3.0635,0.0,0.0,0.0,3.3762,0.0,0.0,0.0,3.4862,3.543,3.5834,3.6402,3.6841,3.7061,3.661,3.5846,3.4759,3.3509,3.2304,3.1192,3.0172,2.9481,2.9481,2.8726,2.8179,2.8179,2.8179,2.8179,2.8179,2.8179,2.8179,2.8179,2.8179,2.8179,2.8179,2.8179,2.8179,2.8179,2.8179,2.8179,2.8179,2.8179,2.8179,2.8179,2.8179,2.8179,2.8179,2.8179,2.8179,2.8179,2.8179,2.8179,2.8179,2.8179,2.8179,2.8179,2.8179,2.8179,2.8232,2.8497,2.8604,2.8657,2.8908,2.9001,2.9028,2.9219,2.9366,2.9513,2.9659,2.9806,2.9913,2.9913,2.9913,2.9953,3.01,3.014,3.0221,3.056,3.0627,3.0621,3.0768,3.1036,3.1276,3.1423,3.145,3.1503,3.165,3.1711,3.1711,3.1711,3.1711,3.1711,3.1711,3.1711,3.1711,3.1711,3.1711,3.1711,3.1711,3.1711,3.1711,3.1711,3.1711,3.1711,3.1711,3.1711,3.1711,3.1711,3.1711,3.1517,3.1176,3.0929,3.0715,0.0,0.0,0.0,0.0,0.0,3.3908,0.0,0.0,0.0,3.565,3.5724,3.5852,3.6768,0.0,0.0,0.0,0.0,0.0,0.0,2.9703,0.0,2.9341,2.8729,2.835,2.835,2.8404,2.8418,2.835,2.8404,2.8389,2.8318,2.8318,2.8263,2.8179,2.8179,2.8179,2.8179,2.8179,2.8179,2.8179,2.8179,2.8179,2.8179,2.8179,2.8179,2.8179,2.8179,2.8179,2.8179,2.8179,2.8179,2.8179,2.8179,2.8179,2.8179,2.8179,2.8179,2.8219,2.843,2.8524,2.8564,2.8791,2.8868,2.8908,2.8908,2.9165,2.9392,2.9392,2.9566,2.9753,2.9753,2.9753,2.9722,2.982,2.9833,2.9913,3.0207,3.0319,3.0386,3.0581,3.0621,3.0728,3.1076,3.1196,3.1303,3.1543,3.1684,3.1711,3.1711,3.1711,3.1711,3.1711,3.1711,3.1711,3.1711,3.1711,3.1711,3.1711,3.1711,3.1711,3.1711,3.1711,3.1711,3.1711,3.1711,3.1711,3.1711,3.1711,3.1517,3.1176,3.0982,3.0849,0.0,0.0,0.0,0.0,3.3817,0.0,0.0,0.0,3.444,3.4587,0.0,0.0,0.0,0.0,0.0,0.0,0.0,0.0,3.0654,2.9789,2.9076,2.8751,2.8825,2.891,2.891,2.9202,2.9244,2.8924,2.9202,2.9146,2.874,2.874,2.8571,2.8234,2.8179,2.8179,2.8179,2.8179,2.8179,2.8179,2.8179,2.8179,2.8179,2.8179,2.8179,2.8179,2.8179,2.8179,2.8179,2.8179,2.8179,2.8179,2.8179,2.8179,2.8179,2.8179,2.8179,2.8192,2.8219,2.8232,2.8245,2.8272,2.843,2.8657,2.8657,2.8858,2.9041,2.9041,2.9068,2.9095,2.9095,2.9095,2.9161,2.9472,2.9539,2.9619,2.99,2.9967,2.998,3.0007,3.002,3.0194,3.0742,3.1049,3.1189,3.1276,3.1503,3.1711,3.1711,3.1711,3.1711,3.1711,3.1711,3.1711,3.1711,3.1711,3.1711,3.1711,3.1711,3.1711,3.1711,3.1711,3.1711,3.1711,3.1711,3.1711,3.1711,3.1711,3.1517,3.1176,3.1196,3.1036,0.0,0.0,0.0,0.0,0.0,0.0,3.3817,0.0,3.4128,0.0,0.0,0.0,0.0,0.0,0.0,0.0,3.2685,0.0,0.0,0.0,3.0066,0.0,0.0,0.0,2.8699,2.8824,2.8852,2.8713,2.8824,2.8812,2.8661,2.8551,2.8439,2.8272,2.8224,2.8179,2.8179,2.8179,2.8179,2.8179,2.8179,2.8179,2.8179,2.8179,2.8179,2.8179,2.8179,2.8179,2.8179,2.8179,2.8179,2.8179,2.8179,2.8179,2.8179,2.8179,2.8179,2.8179,2.8179,2.8179,2.8179,2.8179,2.8272,2.8379,2.8379,2.8551,2.8791,2.8791,2.8868,2.9001,2.9001,2.9001,2.9068,2.9419,2.9486,2.9566,2.986,2.9913,2.9913,2.9913,2.9913,2.9993,3.0247,3.0528,3.0835,3.1122,3.133,3.1476,3.165,3.1711,3.1711,3.1711,3.1711,3.1711,3.1711,3.1711,3.1711,3.1711,3.1711,3.1711,3.1711,3.1711,3.1711,3.1711,3.1711,3.1711,3.1711,3.1711,3.161,3.1476,3.1303,3.1249,3.466,0.0,0.0,0.0,0.0,0.0,0.0,0.0,0.0,0.0,0.0,0.0,0.0,0.0,0.0,0.0,0.0,3.2143,0.0,3.0916,0.0,0.0,0.0,0.0,0.0,2.9025,2.9122,2.8916,2.9108,2.9125,2.8882,2.8851,2.8731,2.8483,2.8534,2.8473,2.8361,2.8361,2.8305,2.8179,2.8179,2.8179,2.8179,2.8179,2.8179,2.8179,2.8179,2.8179,2.8179,2.8179,2.8179,2.8179,2.8179,2.8179,2.8179,2.8179,2.8179,2.8179,2.8179,2.8179,2.8179,2.8179,2.8179,2.8179,2.8179,2.8339,2.8484,2.8484,2.8698,2.8881,2.8881,2.8935,2.9068,2.9419,2.9486,2.9566,2.986,2.9913,2.9913,2.9913,2.9913,2.9913,2.9913,3.0167,3.0574,3.1036,3.1122,3.133,3.1684,3.1711,3.1711,3.1711,3.1711,3.1711,3.1711,3.1711,3.1711,3.1711,3.1711,3.1711,3.1711,3.1711,3.1711,3.1711,3.1711,3.1711,3.1711,3.1711,3.1711,3.1711,3.145,3.1463,0.0,0.0,0.0,3.4954,0.0,0.0,0.0,0.0,3.4275,0.0,0.0,0.0,0.0,0.0,0.0,0.0,0.0,0.0,0.0,0.0,0.0,0.0,0.0,0.0,0.0,3.0414,3.0735,3.0022,3.061,3.0656,2.9811,3.0077,2.9842,2.9019,2.9272,2.923,2.8782,2.8782,2.8613,2.8179,2.8179,2.8179,2.8179,2.8179,2.8179,2.8179,2.8179,2.8179,2.8179,2.8179,2.8179,2.8179,2.8179,2.8179,2.8179,2.8179,2.8179,2.8179,2.8179,2.8179,2.8179,2.8179,2.8179,2.8179,2.8179,2.8192,2.8205,2.8205,2.8419,2.8617,2.8617,2.8831,2.9068,2.9419,2.9486,2.9566,2.986,2.9913,2.9913,2.9913,2.9913,2.9913,2.9913,3.0167,3.0507,3.0755,3.1049,3.133,3.1684,3.1711,3.1711,3.1711,3.1711,3.1711,3.1711,3.1711,3.1711,3.1711,3.1711,3.1711,3.1711,3.1711,3.1711,3.1711,3.1711,3.1711,3.1711,3.1711,3.1711,3.1711,3.1711,3.1711,0.0,0.0,3.5321,3.5064,0.0,0.0,0.0,0.0,0.0,0.0,0.0,0.0,0.0,0.0,0.0,0.0,0.0,0.0,0.0,0.0,0.0,0.0,0.0,0.0,0.0,0.0,3.0965,3.02,3.0623,3.0531,2.9703,2.968,2.9533,2.916,2.9143,2.9188,2.9272,2.895,2.874,2.8613,2.8318,2.8179,2.8179,2.8179,2.8179,2.8179,2.8179,2.8179,2.8179,2.8179,2.8179,2.8179,2.8179,2.8179,2.8179,2.8179,2.8179,2.8179,2.8179,2.8179,2.8179,2.8179,2.8179,2.8179,2.8179,2.8326,2.8444,2.8444,2.8671,2.8855,2.8855,2.8921,2.9068,2.9419,2.9486,2.9566,2.986,2.9913,2.9913,2.9913,2.9913,2.9913,2.9913,3.0007,3.0234,3.0715,3.0875,3.1116,3.161,3.1711,3.1711,3.1711,3.1711,3.1711,3.1711,3.1711,3.1711,3.1711,3.1711,3.1711,3.1711,3.1711,3.1711,3.1711,3.1711,3.1711,3.1711,3.1711,3.1711,3.1711,3.1711,3.1711,3.5889,3.5834,0.0,3.5467,3.5302,0.0,3.5211,0.0,0.0,0.0,0.0,0.0,0.0,0.0,0.0,0.0,0.0,0.0,0.0,3.3121,0.0,0.0,0.0,0.0,0.0,3.1798,3.1701,3.0893,3.1066,3.0825,2.9854,2.9984,2.988,2.9475,2.9789,2.9902,2.9771,2.9481,2.9118,2.8782,2.8403,2.8179,2.8179,2.8179,2.8179,2.8179,2.8179,2.8179,2.8179,2.8179,2.8179,2.8179,2.8179,2.8179,2.8179,2.8179,2.8179,2.8179,2.8179,2.8179,2.8179,2.8179,2.8179,2.8179,2.8179,2.8326,2.8444,2.8444,2.8724,2.8975,2.8868,2.9001,2.9219,2.9312,2.9406,2.9539,2.9726,2.9847,2.9913,2.9913,2.9913,2.9913,2.9913,2.9913,3.0114,3.0702,3.0795,3.1009,3.1644,3.1711,3.1711,3.1711,3.1711,3.1711,3.1711,3.1711,3.1711,3.1711,3.1711,3.1711,3.1711,3.1711,3.1711,3.1711,3.1711,3.1711,3.1711,3.1711,3.1711,3.1711,3.1711,3.1711]},{"header":{"parameterUnit":"m.s-1","parameterCategory":1,"la1":30.6,"la2":29.2853,"lo1":-89.7004,"lo2":-87.6739,"dy":0.0162,"dx":0.0183,"nx":112,"ny":82,"refTime":"2023-09-27T00:00:00:Z","depth":0,"parameterNumber":3,"parameterNumberName":"V-component_of_WINDS"},"data":[0.0,0.0,0.0,0.0,0.0,0.0,0.0,0.0,0.0,0.0,0.0,0.0,0.0,0.0,0.0,0.0,0.0,0.0,0.0,0.0,0.0,0.0,0.0,0.0,0.0,0.0,0.0,0.0,0.0,0.0,0.0,0.0,0.0,0.0,0.0,0.0,0.0,0.0,0.0,0.0,0.0,0.0,0.0,0.0,0.0,0.0,0.0,0.0,0.0,0.0,0.0,0.0,0.0,0.0,0.0,0.0,0.0,0.0,0.0,0.0,0.0,0.0,0.0,0.0,0.0,0.0,0.0,0.0,0.0,0.0,0.0,0.0,0.0,0.0,0.0,0.0,0.0,0.0,0.0,0.0,0.0,0.0,0.0,0.0,0.0,0.0,0.0,0.0,0.0,0.0,0.0,4.0834,4.2164,4.2887,4.2459,4.2723,4.2527,4.1541,0.0,0.0,0.0,0.0,0.0,0.0,0.0,0.0,0.0,0.0,0.0,0.0,0.0,0.0,0.0,0.0,0.0,0.0,0.0,0.0,0.0,0.0,0.0,0.0,0.0,0.0,0.0,0.0,0.0,0.0,0.0,0.0,0.0,0.0,0.0,0.0,0.0,0.0,0.0,0.0,0.0,0.0,0.0,0.0,0.0,0.0,0.0,0.0,0.0,0.0,0.0,0.0,0.0,0.0,0.0,0.0,0.0,0.0,0.0,0.0,0.0,0.0,0.0,0.0,0.0,0.0,0.0,0.0,0.0,0.0,0.0,0.0,0.0,0.0,0.0,0.0,0.0,0.0,0.0,0.0,0.0,0.0,0.0,0.0,0.0,0.0,0.0,0.0,0.0,0.0,0.0,0.0,0.0,0.0,0.0,0.0,0.0,0.0,0.0,0.0,0.0,0.0,0.0,0.0,4.1005,4.2403,4.3244,4.3769,4.3876,4.3359,4.2837,4.228,0.0,0.0,0.0,0.0,0.0,0.0,0.0,0.0,0.0,0.0,0.0,0.0,0.0,0.0,0.0,0.0,0.0,0.0,0.0,0.0,0.0,0.0,0.0,0.0,0.0,0.0,0.0,0.0,0.0,0.0,0.0,0.0,0.0,0.0,0.0,0.0,0.0,0.0,0.0,0.0,0.0,0.0,0.0,0.0,0.0,0.0,0.0,0.0,0.0,0.0,0.0,0.0,0.0,0.0,0.0,0.0,0.0,0.0,0.0,0.0,0.0,0.0,0.0,0.0,0.0,0.0,0.0,0.0,0.0,0.0,0.0,0.0,0.0,0.0,0.0,0.0,0.0,0.0,0.0,0.0,0.0,0.0,0.0,0.0,0.0,0.0,0.0,0.0,0.0,0.0,0.0,0.0,0.0,0.0,0.0,0.0,0.0,0.0,0.0,0.0,0.0,0.0,0.0,4.1279,4.2147,4.3747,4.4275,4.4746,4.534,4.4183,4.3217,4.2695,4.1748,0.0,0.0,0.0,0.0,0.0,0.0,0.0,0.0,0.0,0.0,0.0,0.0,0.0,0.0,0.0,0.0,0.0,0.0,0.0,0.0,0.0,0.0,0.0,0.0,0.0,0.0,0.0,0.0,0.0,0.0,0.0,0.0,0.0,0.0,0.0,0.0,0.0,0.0,0.0,0.0,0.0,0.0,0.0,0.0,0.0,0.0,0.0,0.0,0.0,0.0,0.0,0.0,0.0,0.0,0.0,0.0,0.0,0.0,0.0,0.0,0.0,0.0,0.0,0.0,0.0,0.0,0.0,0.0,0.0,0.0,0.0,0.0,0.0,0.0,0.0,0.0,0.0,0.0,0.0,0.0,0.0,0.0,0.0,0.0,0.0,0.0,0.0,0.0,0.0,0.0,0.0,0.0,0.0,0.0,0.0,0.0,0.0,0.0,0.0,0.0,0.0,0.0,4.2034,4.3352,4.4989,4.5433,4.6024,4.6959,4.5411,4.4157,4.3575,4.2416,0.0,0.0,0.0,0.0,0.0,0.0,0.0,0.0,0.0,0.0,0.0,0.0,0.0,0.0,0.0,0.0,0.0,0.0,0.0,0.0,0.0,0.0,0.0,0.0,0.0,0.0,0.0,0.0,0.0,0.0,0.0,0.0,0.0,0.0,0.0,0.0,0.0,0.0,0.0,0.0,0.0,0.0,0.0,0.0,0.0,0.0,0.0,0.0,0.0,0.0,0.0,0.0,0.0,0.0,0.0,0.0,0.0,0.0,0.0,0.0,0.0,0.0,0.0,0.0,0.0,0.0,0.0,0.0,0.0,0.0,0.0,0.0,0.0,0.0,0.0,0.0,0.0,0.0,0.0,0.0,0.0,0.0,0.0,0.0,0.0,0.0,0.0,0.0,0.0,0.0,0.0,0.0,0.0,0.0,0.0,0.0,0.0,0.0,0.0,0.0,0.0,0.0,4.2945,4.4305,4.6095,4.7041,4.7895,4.8835,4.7429,4.6196,4.544,4.3938,0.0,0.0,0.0,0.0,0.0,0.0,0.0,0.0,0.0,0.0,0.0,0.0,0.0,0.0,0.0,0.0,0.0,0.0,0.0,0.0,0.0,0.0,0.0,0.0,0.0,0.0,0.0,0.0,0.0,0.0,0.0,0.0,0.0,0.0,0.0,0.0,0.0,0.0,0.0,0.0,0.0,0.0,0.0,0.0,0.0,0.0,0.0,0.0,0.0,0.0,0.0,0.0,0.0,0.0,0.0,0.0,0.0,0.0,0.0,0.0,0.0,0.0,0.0,0.0,0.0,0.0,0.0,0.0,0.0,0.0,0.0,0.0,0.0,0.0,0.0,0.0,0.0,0.0,0.0,0.0,0.0,0.0,0.0,0.0,0.0,0.0,0.0,0.0,0.0,0.0,0.0,0.0,0.0,0.0,0.0,0.0,0.0,0.0,0.0,0.0,0.0,0.0,4.4226,4.6004,0.0,4.7724,4.8238,4.9608,4.7659,4.6267,4.6108,0.0,0.0,0.0,0.0,0.0,0.0,0.0,0.0,0.0,0.0,0.0,0.0,0.0,0.0,0.0,0.0,0.0,0.0,0.0,0.0,0.0,0.0,0.0,0.0,0.0,0.0,0.0,0.0,0.0,0.0,0.0,0.0,0.0,0.0,0.0,0.0,0.0,0.0,0.0,0.0,0.0,0.0,0.0,0.0,0.0,0.0,0.0,0.0,0.0,0.0,0.0,0.0,0.0,0.0,0.0,0.0,0.0,0.0,0.0,0.0,0.0,0.0,0.0,0.0,0.0,0.0,0.0,0.0,0.0,0.0,0.0,0.0,0.0,0.0,0.0,0.0,0.0,0.0,0.0,0.0,0.0,0.0,0.0,0.0,0.0,0.0,0.0,0.0,0.0,0.0,0.0,0.0,0.0,0.0,0.0,0.0,0.0,0.0,0.0,0.0,0.0,0.0,4.3487,4.5244,4.7177,0.0,4.8629,4.8962,5.0558,4.8497,4.7078,4.706,0.0,0.0,0.0,0.0,0.0,0.0,0.0,0.0,0.0,0.0,0.0,0.0,0.0,0.0,0.0,0.0,0.0,0.0,0.0,0.0,0.0,0.0,0.0,0.0,0.0,0.0,0.0,0.0,0.0,0.0,0.0,0.0,0.0,0.0,0.0,0.0,0.0,0.0,0.0,0.0,0.0,0.0,0.0,0.0,0.0,0.0,0.0,0.0,0.0,0.0,0.0,0.0,0.0,0.0,0.0,0.0,0.0,0.0,0.0,0.0,0.0,0.0,0.0,0.0,0.0,0.0,0.0,0.0,0.0,0.0,0.0,0.0,0.0,0.0,0.0,0.0,0.0,0.0,0.0,0.0,0.0,0.0,0.0,0.0,0.0,0.0,0.0,0.0,0.0,0.0,0.0,0.0,0.0,0.0,0.0,0.0,0.0,0.0,0.0,0.0,0.0,0.0,4.4691,4.5946,4.7621,4.9956,4.9859,5.0273,5.1866,5.0326,4.9091,0.0,0.0,0.0,0.0,0.0,0.0,0.0,0.0,0.0,0.0,0.0,0.0,0.0,0.0,0.0,0.0,0.0,0.0,0.0,0.0,0.0,0.0,0.0,0.0,0.0,0.0,0.0,0.0,0.0,0.0,0.0,0.0,0.0,0.0,0.0,0.0,0.0,0.0,0.0,0.0,0.0,0.0,0.0,0.0,0.0,0.0,0.0,0.0,0.0,0.0,0.0,0.0,0.0,0.0,0.0,0.0,0.0,0.0,0.0,0.0,0.0,0.0,0.0,0.0,0.0,0.0,0.0,0.0,0.0,0.0,0.0,0.0,0.0,0.0,0.0,0.0,0.0,0.0,0.0,0.0,0.0,0.0,0.0,0.0,0.0,0.0,0.0,0.0,0.0,0.0,0.0,0.0,0.0,0.0,0.0,0.0,0.0,0.0,0.0,0.0,0.0,0.0,0.0,4.6284,4.7973,4.9629,5.0969,5.0998,5.1194,5.1745,5.061,4.9621,4.9018,0.0,0.0,0.0,0.0,0.0,0.0,0.0,0.0,0.0,0.0,0.0,0.0,0.0,0.0,0.0,0.0,0.0,0.0,0.0,0.0,0.0,0.0,0.0,0.0,0.0,0.0,0.0,0.0,0.0,0.0,0.0,0.0,0.0,0.0,0.0,0.0,0.0,0.0,0.0,0.0,0.0,0.0,0.0,0.0,0.0,0.0,0.0,0.0,0.0,0.0,0.0,0.0,0.0,0.0,0.0,0.0,0.0,0.0,0.0,0.0,0.0,0.0,0.0,0.0,0.0,0.0,0.0,0.0,0.0,0.0,0.0,0.0,0.0,0.0,0.0,0.0,0.0,0.0,0.0,0.0,0.0,0.0,0.0,0.0,0.0,0.0,0.0,0.0,0.0,0.0,0.0,0.0,0.0,0.0,0.0,0.0,0.0,0.0,0.0,0.0,0.0,0.0,4.7216,4.9014,5.0563,5.1405,5.1552,5.1663,5.1803,5.0903,5.0042,4.943,0.0,0.0,0.0,0.0,0.0,0.0,0.0,0.0,0.0,0.0,0.0,0.0,0.0,0.0,0.0,0.0,0.0,0.0,0.0,0.0,0.0,0.0,0.0,0.0,0.0,0.0,0.0,0.0,0.0,0.0,0.0,0.0,0.0,0.0,0.0,0.0,0.0,0.0,0.0,0.0,0.0,0.0,0.0,0.0,0.0,0.0,0.0,0.0,0.0,0.0,0.0,0.0,0.0,0.0,0.0,0.0,0.0,0.0,0.0,0.0,0.0,0.0,0.0,0.0,0.0,0.0,0.0,0.0,0.0,0.0,0.0,0.0,0.0,0.0,0.0,0.0,0.0,0.0,0.0,0.0,0.0,0.0,0.0,0.0,0.0,0.0,0.0,0.0,0.0,0.0,0.0,0.0,0.0,0.0,0.0,0.0,0.0,0.0,0.0,0.0,0.0,0.0,4.7885,4.9447,5.0856,5.1587,5.1881,5.2037,5.2023,5.123,5.0446,4.9777,0.0,0.0,0.0,0.0,0.0,0.0,0.0,0.0,0.0,0.0,0.0,0.0,0.0,0.0,0.0,0.0,0.0,0.0,0.0,0.0,0.0,0.0,0.0,0.0,0.0,0.0,0.0,0.0,0.0,0.0,0.0,0.0,0.0,0.0,0.0,0.0,0.0,0.0,0.0,0.0,0.0,0.0,0.0,0.0,0.0,0.0,0.0,0.0,0.0,0.0,0.0,0.0,0.0,0.0,0.0,0.0,0.0,0.0,0.0,0.0,4.1586,0.0,0.0,0.0,0.0,0.0,0.0,0.0,0.0,0.0,0.0,0.0,0.0,0.0,0.0,0.0,0.0,0.0,0.0,0.0,0.0,0.0,0.0,0.0,0.0,0.0,0.0,0.0,0.0,0.0,0.0,0.0,0.0,0.0,0.0,0.0,0.0,0.0,0.0,0.0,0.0,0.0,4.9998,5.1062,5.1996,5.291,5.3542,5.3435,5.2261,5.1989,5.13,5.0021,4.9708,0.0,0.0,0.0,0.0,0.0,0.0,0.0,0.0,0.0,0.0,0.0,0.0,0.0,0.0,0.0,0.0,0.0,0.0,0.0,0.0,0.0,0.0,0.0,0.0,0.0,0.0,0.0,0.0,0.0,0.0,0.0,0.0,0.0,0.0,0.0,0.0,0.0,0.0,0.0,0.0,0.0,0.0,0.0,0.0,0.0,0.0,0.0,0.0,0.0,0.0,0.0,0.0,0.0,0.0,0.0,0.0,0.0,0.0,0.0,0.0,4.2078,0.0,0.0,0.0,0.0,0.0,0.0,0.0,0.0,0.0,0.0,0.0,0.0,0.0,0.0,0.0,0.0,0.0,0.0,0.0,0.0,0.0,0.0,0.0,0.0,0.0,0.0,0.0,0.0,0.0,0.0,0.0,0.0,0.0,0.0,0.0,0.0,0.0,0.0,0.0,0.0,5.0708,5.1543,5.236,5.3306,5.408,5.403,5.2858,5.241,5.172,5.0582,5.0095,0.0,0.0,0.0,0.0,0.0,0.0,0.0,0.0,0.0,0.0,0.0,0.0,0.0,0.0,0.0,0.0,0.0,0.0,0.0,0.0,0.0,0.0,0.0,0.0,0.0,0.0,0.0,0.0,0.0,0.0,0.0,0.0,0.0,0.0,0.0,0.0,0.0,0.0,0.0,0.0,0.0,0.0,0.0,0.0,0.0,0.0,0.0,0.0,0.0,0.0,0.0,0.0,0.0,4.4594,4.5325,4.657,4.657,4.735,4.8555,4.5589,4.4,4.3463,0.0,0.0,0.0,0.0,0.0,0.0,0.0,0.0,0.0,0.0,0.0,0.0,0.0,0.0,0.0,0.0,0.0,0.0,0.0,0.0,0.0,0.0,0.0,0.0,0.0,4.8512,4.8289,0.0,0.0,0.0,0.0,0.0,0.0,0.0,0.0,0.0,0.0,0.0,0.0,5.1008,5.1764,5.2566,5.3479,5.4149,5.4203,5.346,5.2789,5.203,5.1168,5.0513,5.0149,0.0,0.0,0.0,0.0,0.0,0.0,0.0,0.0,0.0,0.0,0.0,0.0,0.0,0.0,0.0,0.0,0.0,0.0,0.0,0.0,0.0,0.0,0.0,0.0,0.0,0.0,0.0,0.0,0.0,0.0,0.0,0.0,4.0382,4.0474,0.0,0.0,0.0,0.0,0.0,0.0,0.0,0.0,0.0,0.0,0.0,0.0,0.0,4.4999,4.5797,4.6963,4.7715,4.8023,4.862,4.941,5.0385,5.0385,5.0796,5.1543,5.1291,0.0,4.6887,4.6272,0.0,0.0,0.0,0.0,0.0,0.0,0.0,0.0,0.0,0.0,0.0,0.0,0.0,0.0,0.0,0.0,0.0,0.0,0.0,0.0,0.0,0.0,4.9338,5.0275,5.0914,5.1281,0.0,4.9897,4.8757,4.8941,4.8938,0.0,0.0,0.0,0.0,0.0,0.0,0.0,5.1901,5.2582,5.3322,5.4256,5.4444,5.4203,5.346,5.3287,5.2632,5.1203,5.0996,5.0651,5.0045,4.9982,0.0,0.0,0.0,0.0,0.0,0.0,0.0,0.0,0.0,0.0,0.0,0.0,0.0,0.0,0.0,0.0,0.0,0.0,0.0,0.0,0.0,0.0,0.0,0.0,0.0,0.0,0.0,0.0,0.0,4.1107,4.1261,4.163,4.1691,4.1691,0.0,0.0,0.0,0.0,0.0,0.0,0.0,0.0,0.0,4.6743,4.8188,4.9009,4.9168,5.0181,5.0977,5.1578,5.1865,5.2861,5.4431,5.4431,5.5069,5.6199,5.5889,5.4943,5.3378,5.016,4.8303,4.7385,0.0,0.0,0.0,0.0,4.7521,4.7879,4.8343,4.8606,0.0,4.8734,0.0,0.0,0.0,0.0,0.0,0.0,0.0,0.0,0.0,0.0,5.1898,5.2716,5.3132,5.3307,5.3369,5.2713,5.1822,0.0,5.0458,5.0195,5.036,0.0,0.0,0.0,0.0,5.1428,5.3241,5.3663,5.4285,5.5651,5.5391,5.4996,5.4651,5.3873,5.3115,5.2459,5.1582,5.1134,5.1237,5.0824,5.076,0.0,0.0,0.0,0.0,0.0,0.0,0.0,0.0,0.0,0.0,0.0,0.0,0.0,0.0,0.0,0.0,0.0,0.0,0.0,0.0,0.0,0.0,0.0,0.0,0.0,0.0,0.0,0.0,4.1894,4.2294,4.2786,4.3002,4.3143,0.0,0.0,0.0,0.0,0.0,0.0,4.729,4.8883,5.0014,5.0599,5.2458,5.341,5.325,5.4008,5.4762,5.5492,5.5492,5.6524,5.8335,5.8335,5.9112,6.0445,5.9935,5.9559,5.8863,5.3922,5.1373,5.0535,4.9667,4.9373,4.9557,5.0326,5.0842,5.1286,5.2097,5.2314,5.2208,5.2208,0.0,5.1475,5.037,0.0,0.0,0.0,0.0,5.1412,5.3429,5.4115,5.446,5.5184,5.5513,5.5651,5.5651,5.5651,5.5014,0.0,5.1913,5.1496,5.1395,0.0,0.0,0.0,0.0,5.2413,5.4256,5.4695,5.5351,5.6651,5.6253,5.5823,5.5616,5.4582,5.3804,5.3425,5.2306,5.1824,5.2203,5.1686,5.1651,5.2203,0.0,0.0,0.0,0.0,0.0,0.0,0.0,0.0,0.0,0.0,0.0,0.0,0.0,0.0,0.0,0.0,0.0,0.0,0.0,0.0,0.0,0.0,0.0,0.0,0.0,0.0,0.0,0.0,0.0,4.3562,4.4098,0.0,0.0,0.0,0.0,4.827,4.8616,4.9736,5.2029,5.2441,5.3335,5.4943,5.6376,5.7527,5.8312,5.9037,5.9697,6.0147,6.0147,6.0786,6.1926,6.1926,6.2484,6.3415,6.3572,6.2909,6.1446,5.6917,5.4962,5.466,5.3446,5.3079,5.3331,5.4279,5.4618,5.477,5.5706,5.5585,5.4987,5.4987,5.4076,5.2972,5.2919,5.2994,0.0,0.0,5.372,5.4444,5.5272,5.6081,5.6805,5.7564,5.8237,5.8754,5.8754,5.8754,5.7685,0.0,5.3306,5.303,5.2272,0.0,5.2099,5.2134,5.3219,5.4134,5.4463,5.5608,5.6503,5.6789,5.6771,5.6426,5.5651,5.5513,5.4892,5.3494,5.3322,5.2961,5.2237,5.2168,5.2168,5.2203,5.2203,0.0,0.0,0.0,0.0,0.0,0.0,0.0,0.0,0.0,0.0,0.0,0.0,0.0,0.0,0.0,0.0,0.0,0.0,0.0,0.0,0.0,0.0,0.0,0.0,0.0,0.0,0.0,0.0,4.6334,4.7271,0.0,4.7981,4.8871,4.9974,5.1224,5.2409,5.4217,5.6865,5.7925,5.9093,6.0457,6.1883,6.2398,6.1919,6.2625,6.2886,6.2752,6.2752,6.3182,6.3988,6.3988,6.4537,6.5441,6.5035,6.4726,6.4396,6.1955,5.9704,5.7715,5.684,5.6677,5.6953,5.7295,5.745,5.7586,5.7912,5.7878,5.7637,5.7688,5.6689,5.5483,5.5483,5.517,5.4927,5.546,5.6115,5.7081,5.884,5.9495,6.0013,6.1254,6.1772,6.1944,6.1944,6.1599,6.0703,5.884,5.6909,5.5322,5.4513,5.3996,5.3823,5.4306,5.481,5.5483,5.6547,5.7118,5.7618,5.8168,5.7805,5.7391,5.7116,5.6168,5.5375,5.4858,5.3927,5.3494,5.3651,5.3203,5.3203,5.3651,5.3685,5.3685,0.0,0.0,0.0,0.0,0.0,0.0,0.0,0.0,0.0,0.0,0.0,0.0,0.0,0.0,0.0,0.0,0.0,0.0,0.0,0.0,0.0,0.0,0.0,0.0,0.0,0.0,4.8406,4.9611,5.0897,5.1887,5.2374,5.353,5.4724,5.5783,5.7199,5.9055,6.1492,6.2614,6.3647,6.4681,6.5946,6.6222,6.5404,6.5818,6.5959,6.5737,6.5652,6.5774,6.6103,6.6103,6.6428,6.6925,6.6396,6.6262,6.6285,6.5431,6.3665,6.1431,6.0476,6.0055,6.0113,6.0594,6.07,6.0599,6.084,6.0771,6.053,6.0289,5.9185,5.7943,5.7943,5.7564,5.7322,5.8116,5.8875,5.9909,6.1944,6.2461,6.2772,6.4048,6.4377,6.4377,6.4377,6.3998,6.3411,6.2599,6.0013,5.7702,5.6892,5.634,5.6168,5.6685,5.7012,5.7529,5.853,5.8909,5.915,5.9392,5.8978,5.8461,5.7943,5.672,5.5892,5.5616,5.446,5.4011,5.4478,5.4046,5.4011,5.4494,5.4478,5.4478,5.4478,0.0,0.0,0.0,0.0,0.0,0.0,0.0,0.0,0.0,0.0,0.0,0.0,0.0,0.0,0.0,0.0,0.0,0.0,0.0,0.0,0.0,0.0,0.0,4.6392,4.9504,5.2313,5.3291,5.4815,5.6328,5.7704,5.9209,6.063,6.1966,6.2962,6.4218,6.5912,6.6231,6.673,6.749,6.8415,6.8862,6.8794,6.8794,6.8904,6.911,6.887,6.8596,6.8357,6.8357,6.8165,6.7834,6.7868,6.7575,6.7049,6.7103,6.6689,6.5895,6.4308,6.3239,6.279,6.422,6.4324,6.3807,6.4496,6.4255,6.3531,6.2859,6.1583,6.0323,6.0323,6.0323,6.0496,6.122,6.1979,6.2963,6.4393,6.4807,6.5014,6.5826,6.5999,6.5999,6.5999,6.5964,6.5688,6.491,6.2393,6.0116,5.9237,5.9099,5.9116,5.915,5.9771,0.0,6.022,6.0875,6.1013,6.0323,6.022,5.9599,5.8116,5.7288,5.6495,5.572,5.4961,5.4547,5.4547,5.4547,5.4547,5.4547,5.4547,5.4547,5.4547,0.0,0.0,0.0,0.0,0.0,0.0,0.0,0.0,0.0,0.0,0.0,0.0,0.0,0.0,0.0,0.0,0.0,0.0,0.0,0.0,0.0,0.0,5.2733,5.162,5.3393,5.5581,5.7548,5.9069,6.0304,6.124,6.31,6.4629,6.5547,6.6946,6.8517,7.0196,7.0399,7.0996,7.2045,7.235,7.2021,7.1088,7.111,7.0587,6.9616,6.9518,6.9459,6.9394,6.9394,6.9096,6.8623,6.9227,6.9143,6.8724,6.9242,6.9345,6.8897,6.6309,6.5136,6.5102,6.6033,6.6221,6.6033,6.5688,6.5447,6.524,6.5033,6.4289,6.3462,6.3462,6.3462,6.3496,6.3703,6.4324,6.5171,6.6117,6.6773,6.7359,6.8172,6.8379,6.8379,6.8379,6.7482,6.6654,6.6393,6.5274,6.3756,6.1841,6.153,6.1358,6.0771,6.0875,0.0,6.1013,6.1185,6.122,6.1013,6.053,6.0013,5.9599,5.8357,5.7495,5.7271,5.6598,5.6184,5.6184,5.6184,5.6184,5.6184,5.6184,5.6184,0.0,0.0,0.0,0.0,0.0,0.0,0.0,0.0,0.0,0.0,0.0,0.0,0.0,0.0,0.0,0.0,0.0,0.0,0.0,0.0,0.0,0.0,5.5369,5.7862,5.9001,5.8928,5.9664,6.2065,6.3506,6.4785,6.6013,6.7536,6.8674,6.92,7.0444,7.1601,7.2593,7.2776,7.3196,7.3878,7.4082,7.3852,7.3096,7.3096,7.2479,7.1337,7.123,7.0888,7.0412,7.0412,7.0071,0.0,6.9714,6.9741,6.9759,6.9897,7.0139,0.0,0.0,0.0,0.0,0.0,6.8172,6.8379,6.7931,6.7586,6.731,6.731,6.6792,6.6117,6.6117,6.6117,6.6186,6.6531,6.6965,6.7482,6.8241,6.8739,6.9187,6.9656,6.9759,6.9759,6.9759,6.9069,6.8345,6.8034,6.762,0.0,6.4722,6.4136,6.3756,6.3289,6.322,6.322,6.322,6.2944,6.2599,6.2289,6.1599,6.1013,6.0703,5.9254,0.0,0.0,0.0,5.6805,5.6805,5.6805,0.0,0.0,0.0,5.6805,5.6805,0.0,0.0,0.0,5.5908,5.6099,0.0,0.0,0.0,0.0,0.0,0.0,0.0,0.0,0.0,0.0,0.0,0.0,0.0,0.0,0.0,0.0,5.9795,6.2812,6.6946,6.5359,6.4584,6.6769,6.7953,6.9331,7.1219,7.2107,7.2637,7.2879,7.3624,7.4054,7.4054,0.0,0.0,0.0,0.0,7.4824,7.4778,7.4778,7.44,7.3679,7.3426,7.2707,7.1631,7.1631,7.131,7.076,7.0173,7.0277,7.076,7.0173,7.0277,7.076,7.0518,7.007,6.9552,6.9449,6.9897,7.0518,7.0449,0.0,0.0,6.9414,6.8966,6.8359,6.8359,6.8359,6.8497,6.9242,6.9414,6.9587,7.0242,7.0449,7.0518,7.0518,7.0518,7.0518,7.0518,7.0449,7.0208,6.9552,6.9414,6.9,6.762,6.662,6.5999,6.593,6.5895,6.5895,6.5895,6.5255,6.4565,6.391,0.0,0.0,6.1634,6.0323,5.9444,5.9271,5.8047,5.7322,5.7322,5.7322,5.7322,5.7322,5.7322,5.7322,5.7322,5.7322,5.7322,5.7288,5.7047,5.6909,0.0,0.0,0.0,0.0,0.0,0.0,0.0,0.0,0.0,0.0,0.0,0.0,0.0,0.0,0.0,6.0216,6.3666,6.7135,7.0358,7.0997,7.1232,7.1503,7.1938,7.2821,7.4397,7.5407,7.5966,7.6048,7.6907,7.7434,7.7434,7.7093,7.6962,7.7205,7.6679,7.6197,7.579,7.579,7.5411,7.4619,0.0,0.0,7.4205,7.4205,7.3779,7.3175,7.3636,7.3567,7.3175,7.3615,7.3567,7.2968,7.1139,7.0691,7.0981,7.0415,7.0656,7.1187,7.0622,7.0311,7.0208,7.0208,7.007,6.9966,6.9966,6.9966,0.0,7.0139,7.0208,7.0242,7.038,7.0863,7.1312,7.1312,7.1312,7.1312,7.1312,7.0829,7.038,7.0208,7.0208,7.0104,6.9794,6.8103,6.6585,6.5999,6.5895,6.5895,6.5895,6.5757,6.5619,6.5481,6.4738,6.3979,6.322,6.2875,6.2186,6.0944,6.0599,6.0427,6.0427,6.0427,6.0427,6.0427,6.0427,6.0427,6.0427,6.0427,6.0427,6.0392,5.853,5.7702,0.0,0.0,0.0,0.0,0.0,0.0,0.0,0.0,0.0,0.0,0.0,5.3329,0.0,0.0,6.1765,6.4686,6.8014,7.106,7.3397,7.4795,7.5369,7.4733,7.4892,7.5474,7.6588,7.7183,7.7435,7.7435,7.8041,7.839,7.839,7.8374,7.8393,7.8567,7.7927,7.7467,7.7258,7.6856,7.627,7.5511,7.5511,7.5304,7.4925,7.4925,7.4684,7.4361,7.4361,7.4361,7.4395,7.4753,7.4684,7.4257,7.3084,7.245,7.2071,7.1691,7.1795,7.2071,7.1691,7.1553,7.1553,7.1553,7.1553,7.1553,7.1553,7.1553,7.1553,7.1553,7.1553,7.1553,7.1553,7.1829,7.2105,7.2105,7.2105,7.2105,7.2105,7.1829,7.145,7.1036,7.0946,7.0808,7.0449,6.9483,6.8586,6.8207,6.8138,6.8138,6.8138,6.7827,6.7448,6.7034,6.629,6.5531,6.4826,6.4048,6.3255,6.2496,6.2082,6.2048,6.2427,6.2082,6.191,6.191,6.1496,6.1289,6.1289,6.1289,6.1289,6.1289,6.0116,5.9599,0.0,0.0,0.0,0.0,0.0,0.0,0.0,5.0899,5.1951,5.3563,5.5471,5.7586,5.9991,6.3133,6.6311,6.9254,7.2075,7.4506,7.6125,7.7435,7.7902,7.7098,7.7211,7.7604,7.8373,7.844,7.844,7.844,7.8735,7.8905,7.8905,7.9213,7.9393,7.9393,7.8867,7.8603,7.8603,7.7959,7.727,7.6546,7.6546,7.6132,7.5339,7.5339,7.5339,7.5339,7.4878,7.5016,7.558,7.558,7.5477,7.5339,7.5188,7.4292,7.3106,7.2968,7.283,7.2692,7.2692,7.2692,7.2692,7.2692,7.2692,7.2692,7.2692,7.2692,7.2692,7.2692,7.2692,7.2692,7.2692,7.2692,7.2692,7.2692,7.2692,7.2692,7.2692,7.2692,7.2519,7.1864,7.1705,7.1553,7.0967,7.0863,7.076,7.0449,7.0415,7.0415,7.0415,6.9897,6.9276,6.8601,6.8034,6.7379,6.662,6.5171,6.4324,6.4462,6.3791,6.3653,6.422,6.3549,6.317,6.317,6.253,6.2186,6.2186,6.2186,6.2186,6.2186,6.2186,6.1875,4.5042,4.5934,4.7315,4.8523,5.016,5.1635,0.0,5.4359,5.6534,5.8227,6.0411,6.2788,6.5245,6.8168,7.0805,7.2687,7.4942,7.7004,7.8492,7.8889,7.8932,7.8806,7.8831,7.916,7.987,7.9938,7.9938,7.9938,8.0412,8.0717,8.0717,8.0514,8.0453,8.0453,7.9752,7.9396,7.9396,7.927,7.8879,7.8154,7.8154,7.7718,7.6959,7.6959,7.6959,7.6994,7.7603,7.7948,7.8017,7.8017,7.758,7.6891,7.6201,7.5442,7.458,7.3912,7.3278,7.2692,7.2692,7.2692,7.2692,7.2692,7.2692,7.2692,7.2692,7.2692,7.2692,7.2692,7.2692,7.2692,7.2692,7.2692,7.2692,7.2692,7.2692,7.2692,7.2692,7.2692,7.2657,7.2588,7.2554,7.2554,7.245,7.245,7.1967,7.0622,7.0415,7.0415,7.0415,7.0346,7.0242,7.0173,7.007,6.9725,6.8966,6.7517,6.6876,6.7566,6.6876,6.6551,6.66,6.593,6.5516,6.5516,6.5447,6.5378,6.5378,6.5378,6.5378,6.5378,6.5378,6.391,4.6943,4.8218,5.0013,5.1862,5.3805,5.5686,5.7358,5.9412,6.1434,6.2986,6.4917,6.7036,6.9345,7.1581,7.3597,0.0,7.6995,7.8416,7.9,7.9101,7.9101,7.9101,7.881,7.8868,7.9498,8.0089,8.0435,8.0435,8.0783,8.1078,8.1224,8.1252,8.1293,8.1293,8.0545,8.0132,8.0132,7.9718,7.9339,7.9051,7.9051,7.8856,7.8546,7.8546,7.8546,7.8546,7.889,7.9051,7.9017,7.8603,7.8223,7.7821,7.7028,7.627,7.5511,7.4718,7.3981,7.3347,7.3347,7.3071,7.2692,7.2692,7.3002,7.3347,7.3347,7.3636,7.3878,7.3485,7.3347,7.3244,7.2795,7.2692,7.2692,7.2692,7.2692,7.2692,7.2692,7.2692,7.2692,7.2692,7.2692,7.2692,7.2692,7.2692,7.2485,7.1829,7.1726,7.1726,7.1726,7.1726,7.1553,7.1105,7.0656,7.0277,6.9966,6.8552,6.8152,6.936,6.829,6.8049,6.8966,6.8276,6.7896,6.7896,6.6999,6.6551,6.6551,6.6102,6.5895,6.5895,6.5895,6.5205,4.9335,5.1005,5.3058,5.5618,5.7935,6.0141,6.2183,6.4379,6.6256,6.7374,6.9087,7.0884,7.2492,7.4127,7.5676,7.6995,7.828,7.9169,7.9397,7.9228,7.905,7.8921,7.8623,7.8458,7.8671,7.9701,8.0369,8.0369,8.0819,8.12,8.1369,8.1633,8.181,8.181,8.1235,8.0925,8.0925,8.0373,7.9994,7.9787,7.9787,7.9683,7.9477,7.9477,7.9477,7.9511,7.9718,7.9787,7.9752,7.9224,7.8913,7.8637,7.7821,7.7063,7.6339,7.5753,7.4925,7.4085,7.4085,7.374,7.3291,7.3291,7.3671,7.4085,7.4085,7.4477,7.4787,7.4257,7.3947,7.3692,7.314,7.2864,7.2692,7.2692,7.2692,7.2692,7.2692,7.2692,7.2692,7.2692,7.2692,7.2692,7.2692,7.2692,7.2692,7.2692,7.2692,7.2692,7.2692,7.2692,7.2485,7.1877,7.1153,7.0705,7.0705,6.967,6.9428,7.0346,6.9325,6.9242,7.0346,6.969,6.9414,6.9587,6.8517,6.7965,6.7965,6.7413,6.7137,6.7137,6.7137,6.7034,5.2488,5.4626,5.677,5.9824,6.2617,6.4908,6.6085,6.8649,7.0838,7.1109,7.2912,7.4434,7.4502,7.5811,7.7063,7.7865,7.8619,7.9363,8.0073,7.9566,7.8896,7.8385,7.8548,7.8408,0.0,7.8965,7.9829,7.9829,8.0813,8.1369,8.1393,8.1633,8.181,8.181,8.1776,8.1776,8.1776,8.1741,8.1362,8.058,8.058,8.0201,7.9477,7.9477,7.9477,7.9569,8.0235,8.058,8.0545,8.0545,8.0097,7.9396,7.8672,7.7856,7.7166,7.7132,7.6166,7.4891,7.4891,7.4856,7.4822,7.4822,7.4856,7.4891,7.4891,7.4891,7.4925,7.4891,7.4361,7.3796,7.3761,7.3244,7.2692,7.2692,7.2692,7.2692,7.2692,7.2692,7.2692,7.2692,7.2692,7.2692,7.2692,7.2692,7.2692,7.2692,7.2692,7.2692,7.2692,7.2692,7.2692,7.2657,7.1967,7.1463,7.1463,7.1429,7.1118,7.0449,7.038,7.0346,7.0415,6.969,6.9656,7.0346,7.0311,7.0311,7.0311,7.0277,7.0277,7.0277,7.0277,6.9897,5.5559,5.8469,6.135,6.4367,6.7401,6.9861,7.077,7.2593,7.4151,7.4198,7.4424,7.4762,7.5236,7.5743,7.6352,7.713,7.7874,7.845,7.8686,7.869,7.8371,7.7662,7.7964,0.0,0.0,0.0,0.0,8.0083,8.0899,8.1466,8.1668,8.1763,8.181,8.181,8.181,8.181,8.181,8.181,8.1672,8.1397,8.1397,8.1293,8.1052,8.1052,8.1052,8.1052,8.1293,8.1397,8.1362,8.0821,8.0442,8.0097,7.8879,7.8223,7.7925,7.7408,7.6856,7.6373,7.5856,7.5339,7.4925,7.4925,7.527,7.5684,7.5684,7.6029,7.6339,7.5822,7.5533,7.5223,7.4649,7.4339,7.4167,7.4167,7.3774,7.3416,7.3416,7.3037,7.2692,7.2692,7.2692,7.2692,7.2692,7.2692,7.2692,7.2692,7.2692,7.2692,7.2692,7.2692,7.2692,7.2692,7.245,7.2312,7.2312,7.1829,7.1601,7.1898,7.145,7.1381,7.1898,7.1691,7.1415,7.1139,7.1118,7.0877,7.0415,7.0415,7.0415,7.0415,7.0415,7.0277,5.9165,6.2485,6.5697,6.8652,7.1387,7.3527,7.3976,7.5344,7.6284,7.5473,7.4728,7.4255,7.4492,7.4322,7.4559,7.5879,7.669,7.7517,7.8403,7.8439,7.8394,7.8265,7.8357,7.8419,0.0,0.0,0.0,8.0345,8.1067,8.1644,8.1787,8.181,8.181,8.181,8.181,8.181,8.181,8.181,8.181,8.181,8.181,8.181,8.181,8.181,8.181,8.181,8.181,8.181,8.1776,8.1259,8.0856,8.0511,7.9569,7.8879,7.8361,7.7821,7.7442,7.7132,7.6649,7.6166,7.5718,7.5718,7.6063,7.6477,7.6477,7.6822,7.7097,7.6615,7.6304,7.596,7.5477,7.5132,7.4925,7.4925,7.4546,7.4188,7.4188,7.3809,7.3498,7.3498,7.3498,7.3395,7.314,7.2864,7.2692,7.2692,7.2692,7.2692,7.2692,7.2692,7.2692,7.2692,7.2692,7.2692,7.2692,7.2243,7.2036,7.2278,7.1795,7.1705,7.2243,7.2278,7.2174,7.1933,7.1933,7.1691,7.1208,7.0932,7.0794,7.0794,7.0518,7.0277,6.3299,6.6623,6.9738,7.2669,7.4621,7.5811,7.5811,7.6893,7.7232,7.5067,7.395,7.3161,7.2428,0.0,7.1999,7.4153,7.5168,7.6574,7.9031,7.8866,7.8913,0.0,0.0,0.0,0.0,0.0,0.0,8.0649,0.0,8.181,8.181,8.181,8.181,8.181,8.181,8.181,8.181,8.181,8.181,8.181,8.181,8.181,8.181,8.181,8.181,8.181,8.181,8.181,8.181,8.181,8.1362,8.0649,8.0614,7.9718,7.8499,7.8465,7.7959,7.7304,7.727,7.7235,7.7201,7.7201,7.7201,7.7201,7.7201,7.7201,7.7201,7.7235,7.6718,7.6166,7.6201,7.5615,7.5029,7.5029,7.4994,7.496,7.496,7.4925,7.4925,7.4925,7.4925,7.4684,7.3981,7.3278,7.2795,7.2761,7.2761,7.2726,7.2692,7.2692,7.2692,7.2692,7.2692,7.2692,7.2692,7.2692,7.2381,7.1622,7.1567,7.1567,7.1567,7.1567,7.1898,7.2623,7.2692,7.2692,7.2623,7.1933,7.1567,7.1532,7.0863,7.0139,6.736,7.0333,7.29,7.5334,7.67,7.7401,7.7401,7.6826,7.598,7.483,7.3138,7.165,7.0906,7.1075,0.0,7.28,7.4655,0.0,7.7594,7.8965,0.0,7.9437,0.0,8.0257,8.0304,8.0476,0.0,0.0,8.1672,8.181,8.181,8.181,8.181,8.181,8.181,8.181,8.181,8.181,8.181,8.181,8.181,8.181,8.181,8.181,8.181,8.181,8.181,8.181,8.181,8.181,8.1672,8.1431,8.0821,8.0373,7.9959,7.9408,7.9086,7.8821,7.827,7.7684,7.7201,7.7201,7.7201,7.7201,7.7201,7.7201,7.7304,7.7948,7.7511,7.7063,7.7649,7.7201,7.6615,7.6615,7.6201,7.5787,7.5787,7.5339,7.4925,7.4925,7.4925,7.4856,7.4649,7.4442,7.4154,7.3623,7.352,7.3313,7.2761,7.2692,7.2692,7.2692,7.2692,7.2692,7.2692,7.2692,7.2623,7.2416,7.2381,7.2381,7.2381,7.2381,7.2209,7.1808,7.2381,7.2416,7.1829,7.2209,7.2381,7.2381,7.2209,7.2002,7.0715,7.3441,7.5869,7.7468,7.8179,7.8213,7.7198,7.6082,7.4661,7.2631,7.0669,6.9113,6.8368,6.8842,6.9869,0.0,0.0,0.0,7.8126,7.9498,8.0297,0.0,8.0785,0.0,8.1155,8.1155,8.1328,0.0,8.181,8.181,8.181,8.181,8.181,8.181,8.181,8.181,8.181,8.181,8.181,8.181,8.181,8.181,8.181,8.181,8.181,8.181,0.0,8.181,8.181,8.181,8.181,8.1776,8.1293,8.089,8.0545,8.0132,7.9752,7.9442,7.9051,7.858,7.8097,7.7408,7.7442,7.7718,7.7718,7.7959,7.8304,7.8775,7.8546,7.8304,7.8775,7.8327,7.7718,7.7718,7.7132,7.658,7.658,7.6235,7.5925,7.5925,7.5649,7.5442,7.5442,7.5132,7.4753,7.4361,7.4292,7.4016,7.3278,7.2899,7.2692,7.2692,7.2692,7.2692,7.2692,7.2692,7.2692,7.2692,7.2692,7.2692,7.2692,7.2692,7.2485,7.2036,7.2485,7.2485,7.2036,7.214,7.2388,7.2838,7.2493,7.2631,7.3781,7.6082,7.8179,7.9058,7.9025,7.8247,7.6048,7.4762,7.3071,6.9654,6.7726,6.644,6.5696,6.6237,6.7738,7.0703,0.0,7.6126,7.9296,8.0165,8.0874,8.1821,8.1948,8.1983,8.2086,8.2086,8.2086,8.2086,8.2086,8.2052,8.1948,8.1948,8.1914,8.181,8.181,8.181,8.181,8.181,8.181,8.181,8.181,8.181,8.181,8.181,8.181,8.181,8.181,0.0,8.181,8.181,8.181,8.181,8.181,8.1397,8.0752,8.0752,8.0339,7.981,7.9683,7.9649,7.9408,7.7959,7.7959,7.8568,7.8568,7.8982,7.9511,7.9638,7.9603,7.9511,7.9614,7.912,7.8568,7.8568,7.7925,7.7373,7.7373,7.727,7.7201,7.7201,7.6684,7.6235,7.6235,7.5684,7.5167,7.5063,7.5063,7.4787,7.4016,7.3313,7.2795,7.2726,7.2692,7.2692,7.2692,7.2692,7.2692,7.2692,7.2692,7.2692,7.2692,7.2692,7.2761,7.283,7.2864,7.292,7.3044,7.2354,7.2479,7.3386,7.2768,7.3047,7.7401,7.8077,7.8314,7.9667,7.8619,7.686,7.5168,7.28,7.0398,6.8504,6.6914,6.5683,6.4918,6.5899,6.759,6.9992,7.3175,7.6164,7.8545,8.0422,8.1832,0.0,8.2707,8.2949,8.3545,8.3638,0.0,0.0,0.0,8.3338,8.2742,8.2707,8.2431,8.181,8.181,8.181,8.181,8.181,8.181,8.181,8.181,8.181,8.181,8.181,8.181,8.181,8.181,0.0,8.181,8.181,8.181,8.181,8.181,8.1707,8.1603,8.1603,8.15,8.1328,8.0614,8.0407,8.027,7.9373,7.9201,7.9304,7.9304,7.9396,7.9614,8.0235,7.9959,7.9614,8.0235,7.9856,7.9304,7.9304,7.8741,7.8189,7.8189,7.7649,7.7201,7.7201,7.7097,7.6994,7.6994,7.6891,7.658,7.5994,7.5891,7.5615,7.4822,7.4085,7.3382,7.2761,7.2692,7.2692,7.2692,7.2692,7.2692,7.2692,7.2692,7.2692,7.2692,7.2692,7.3002,7.3589,7.3623,7.4019,7.4847,7.4708,7.4941,7.5463,7.5528,7.575,7.9058,7.9397,7.9295,8.0006,7.8213,7.5676,7.3386,7.0567,6.7895,6.6,6.4749,6.3889,6.3531,6.4986,6.699,6.9388,7.2606,7.5732,7.834,8.0326,8.1837,8.2593,8.3006,8.3434,0.0,8.3993,0.0,0.0,0.0,8.4294,8.3535,8.3121,8.2569,8.181,8.181,8.181,8.181,8.181,8.181,8.181,8.181,8.181,8.181,8.181,8.181,8.181,8.181,0.0,8.181,8.181,8.181,8.181,8.181,8.181,8.181,8.181,8.181,8.1741,8.1362,8.1224,8.119,8.081,8.0431,8.0063,8.0063,8.0339,8.0776,8.1121,8.0983,8.0776,8.1155,8.0672,8.0063,8.0063,7.9534,7.8982,7.8982,7.8373,7.7821,7.7821,7.7477,7.7201,7.7201,7.7201,7.7063,7.6718,7.6649,7.6373,7.5615,7.5223,7.4533,7.3416,7.3278,7.3148,7.2873,7.2859,7.2901,7.3005,7.3026,7.2963,7.2859,7.2963,7.3137,7.3378,7.399,7.4559,7.5025,7.5658,7.6366,7.7077,7.7298,7.7811,7.9904,8.0209,8.0006,8.0175,7.7807,7.4695,7.1751,6.8605,6.5764,6.37,6.2685,6.2144,6.2144,6.3835,6.605,6.8519,7.1535,7.4604,7.7565,7.9672,8.1304,8.2355,8.3193,0.0,8.4442,8.4476,0.0,0.0,0.0,0.0,8.4304,8.3707,8.2983,8.2052,8.2052,8.1948,8.181,8.181,8.181,8.181,8.181,8.181,8.181,8.181,8.181,8.181,8.181,0.0,0.0,8.181,8.181,8.181,8.181,8.181,8.181,8.181,8.181,8.181,8.181,8.181,8.181,8.181,8.1397,8.0856,8.0856,8.1293,8.181,8.181,8.181,8.181,8.181,8.1328,8.0821,8.0649,8.0166,7.9683,7.9511,7.9051,7.8603,7.843,7.7913,7.7408,7.7235,7.7246,7.729,7.729,7.7379,7.7182,7.6616,7.659,7.6115,7.4716,7.429,7.3979,7.3587,7.3656,7.3731,7.3761,7.3746,7.3595,7.3258,7.336,7.3465,7.3502,7.4441,7.5048,7.5289,7.6226,7.7178,7.8074,7.8286,7.9006,8.0234,8.0209,7.9363,8.004,7.7435,7.395,7.0973,6.7455,6.4377,6.2821,6.1907,6.14,6.14,6.2665,6.4505,6.699,6.9556,7.2246,7.5208,7.7949,8.0383,8.2266,0.0,0.0,8.5949,8.6087,0.0,0.0,0.0,0.0,8.5097,8.5018,8.4328,8.2845,8.2811,8.25,8.181,8.181,8.181,8.181,8.181,8.181,8.181,8.181,8.181,8.181,8.181,0.0,0.0,8.181,8.181,8.181,8.181,8.181,8.181,8.181,8.181,8.181,8.181,8.181,8.181,8.181,8.1741,8.1707,8.1707,8.1741,8.181,8.181,8.181,8.181,8.181,8.1741,8.15,8.0752,8.0545,8.0304,7.9614,7.9465,7.9201,7.8534,7.8361,7.8085,7.7339,7.7379,7.7535,7.7535,7.7872,7.806,7.8025,7.8217,7.8049,7.7172,7.593,7.5217,7.5345,7.5761,7.577,7.5231,7.5215,7.4879,7.4135,7.3924,7.4256,7.5136,7.5281,7.5831,7.6908,7.6998,7.7359,7.8008,7.8207,7.8582,7.9092,7.987,7.9735,7.96,7.6724,7.3172,7.0195,6.6271,6.299,6.1941,6.1129,6.0723,6.1231,6.2614,6.4333,6.6378,6.8788,7.1276,7.3802,7.7102,7.9702,8.0971,8.2693,0.0,0.0,0.0,0.0,0.0,0.0,0.0,8.5855,8.5432,8.4501,8.2949,8.2914,8.2569,8.181,8.181,8.181,8.181,8.181,8.181,8.181,8.181,8.181,8.181,8.181,0.0,0.0,8.181,8.181,8.181,8.181,8.181,8.181,8.181,8.181,8.181,8.181,8.181,8.181,8.181,8.181,8.181,8.181,8.181,8.181,8.181,8.181,8.181,8.181,8.181,8.1707,8.1397,8.1328,8.1259,8.0948,8.05,8.0109,7.9983,7.9591,7.9243,7.9032,7.9219,7.9439,7.9557,7.9837,8.0056,8.0168,7.9864,7.9482,7.9164,7.7599,7.6522,7.6378,7.6543,7.6639,7.6669,7.6207,7.5937,7.5999,7.5558,7.5487,7.5768,7.659,7.7012,7.6998,7.7811,7.8314,7.8542,7.8733,7.9008,7.6623,7.8145,7.8686,7.7976,7.5134,7.1785,6.9045,6.5121,6.1839,6.1095,6.0486,6.0283,6.0858,6.2319,6.4063,6.5801,6.7973,7.0202,7.2425,7.5889,7.8648,7.9746,0.0,8.365,0.0,0.0,0.0,0.0,0.0,0.0,8.6269,8.5811,8.4811,8.3293,8.3225,8.2776,8.181,8.181,8.181,8.181,8.181,8.181,8.181,8.181,8.181,8.181,8.181,0.0,0.0,8.181,8.181,8.181,8.181,8.181,8.181,8.181,8.181,8.181,8.181,8.181,8.181,8.181,8.181,8.181,8.181,8.181,8.181,8.181,8.181,8.181,8.181,8.181,8.181,8.181,8.181,8.181,8.181,8.1362,8.0949,8.0986,8.065,8.0357,8.0425,8.0697,8.0977,8.1176,8.1476,8.1708,8.1871,8.1493,8.1252,8.1252,7.9783,7.854,7.7799,7.7921,7.8098,7.8185,7.7738,7.7522,7.7698,7.727,7.6966,7.6875,7.7847,7.8097,7.759,7.8513,7.9024,7.9075,7.9208,7.9519,7.2755,7.4627,7.5574,7.483,7.2428,6.962,6.7354,6.3971,6.1095,6.0283,6.0114,6.0114,6.0114,6.1539,6.3281,6.5016,6.6719,6.8623,7.0902,7.4071,7.687,0.0,0.0,8.2707,8.4984,0.0,0.0,0.0,0.0,0.0,8.6269,8.6294,8.5604,8.4028,8.3993,8.3269,8.181,8.181,8.181,8.181,8.181,8.181,8.181,8.181,8.181,0.0,0.0,0.0,0.0,8.181,8.181,8.181,8.181,8.181,8.181,8.181,8.181,8.181,8.181,8.181,8.181,8.181,8.181,8.181,8.181,8.181,8.181,8.181,8.181,8.181,8.181,8.181,8.181,8.181,8.181,8.181,8.181,8.181,8.164,8.109,8.1145,8.1183,8.0918,8.1282,8.1656,8.1861,8.2385,8.2773,8.2773,8.3188,8.3483,8.3483,8.2686,8.1488,7.9905,8.0308,8.0443,7.9898,8.0036,7.9793,7.8993,7.8786,7.8769,7.8957,7.8974,7.9041,7.9155,7.9208,7.9291,7.9507,7.9507,8.0044,6.8876,7.077,7.1887,7.165,6.9722,6.7557,6.6339,6.3159,6.0554,6.0858,6.0486,6.0306,6.0981,6.2089,6.3493,6.5211,6.649,6.8053,7.0326,7.38,0.0,7.7662,8.1074,8.3604,0.0,0.0,0.0,0.0,0.0,0.0,8.6269,8.6294,8.5604,8.4028,8.3993,8.3197,8.1548,8.1715,8.1715,8.1514,8.1715,8.181,8.181,8.181,8.181,0.0,0.0,0.0,0.0,8.181,8.181,8.181,8.181,8.181,8.181,8.181,8.181,8.181,8.181,8.181,8.181,8.181,8.181,8.181,8.181,8.181,8.181,8.181,8.181,8.181,8.181,8.181,8.181,8.181,8.181,8.1858,8.1988,8.2012,8.2141,8.2601,8.2765,8.2922,8.3294,8.3646,8.3951,8.431,8.4641,8.4946,8.5226,8.49,8.4663,8.4663,8.3972,8.2993,8.1762,8.1309,8.1106,8.1062,8.0621,8.0473,8.0745,8.0167,7.9912,7.9963,8.0081,8.018,8.021,8.0361,8.0463,8.0528,8.0528,8.0413,6.4444,6.6711,6.803,6.7726,6.6406,6.4952,6.4208,6.2067,6.0363,6.0905,6.0861,6.0974,6.1616,6.2708,6.3974,6.5377,6.6602,6.8187,7.0498,7.3602,0.0,7.8649,0.0,0.0,0.0,0.0,0.0,0.0,0.0,0.0,8.6269,8.6294,8.5604,8.4028,8.3993,8.3148,8.1428,8.1691,8.1668,8.1393,8.1657,8.181,8.181,8.181,8.181,0.0,0.0,0.0,0.0,8.181,8.181,8.181,8.181,8.181,8.181,8.181,8.181,8.181,8.181,8.181,8.181,8.181,8.181,8.1834,8.1871,8.1847,8.181,8.181,8.181,8.181,8.181,8.1881,8.1894,8.1894,8.2059,8.2211,8.235,8.2498,8.2839,8.3524,8.3769,8.4108,8.4767,8.5084,8.5359,8.5782,8.6007,8.6229,8.6465,8.6116,8.5876,8.5876,8.5199,8.447,8.3783,8.2947,8.249,8.2594,8.1931,8.1782,8.2257,8.1526,8.1234,8.1526,8.137,8.1399,8.1709,8.1844,8.2076,8.237,8.206,8.1636,0.0,6.2448,6.3971,6.3409,6.2719,6.1975,6.1366,6.0687,0.0,6.0498,6.1211,6.1819,6.1941,6.3307,6.4675,6.5484,6.6966,6.8842,7.1153,7.3615,0.0,0.0,8.3121,0.0,0.0,0.0,0.0,0.0,0.0,0.0,8.6294,8.6294,8.5604,8.4028,8.3993,8.3148,8.1428,8.1668,8.1668,8.1393,8.1657,8.181,8.181,8.181,8.181,0.0,0.0,0.0,0.0,8.181,8.181,8.181,8.181,8.181,8.181,8.181,8.181,8.181,8.181,8.181,8.181,8.181,8.181,8.1847,8.2082,8.1988,8.1834,8.1847,8.1847,8.1881,8.1871,8.2035,8.2187,8.2187,8.2521,8.2884,8.2906,8.3227,8.364,8.3954,8.4332,8.4788,8.5456,8.5706,8.597,8.6338,8.6572,8.6733,8.6696,8.6891,8.6978,8.6978,8.6334,8.5894,8.5894,8.4933,8.4317,8.4317,8.3811,8.3491,8.3491,8.2774,8.2737,8.3454,8.2737,8.2737,8.3491,8.3528,8.3931,8.4572,8.3895,8.3528,5.5886,0.0,5.9708,6.0655,6.0332,5.9911,0.0,5.9407,5.897,6.0766,6.0917,6.1139,6.2503,6.365,6.4714,6.5677,6.6615,6.8256,7.1084,7.5016,0.0,8.1466,8.3121,8.4062,0.0,0.0,0.0,0.0,0.0,8.6294,8.6294,8.6294,8.5604,8.4028,8.3993,8.3148,8.1428,8.1442,8.1442,8.1393,8.1657,8.181,8.181,8.181,8.181,0.0,0.0,0.0,8.181,8.181,8.181,8.181,8.181,8.181,8.181,8.181,8.181,8.181,8.181,8.181,8.181,8.181,8.1894,8.2106,8.2326,8.2234,8.2094,8.2453,8.2544,8.259,8.2829,8.2896,8.2986,8.3116,8.3249,8.3424,8.3805,8.3975,8.4269,8.5004,8.5222,8.5475,8.6081,8.621,8.6338,8.6572,8.6661,8.6768,8.6908,8.696,8.6978,8.6978,8.6848,8.6738,8.6738,8.5382,8.4541,8.4541,8.4392,8.4315,8.4315,8.4132,8.4132,8.4315,8.4132,8.4132,8.4315,8.4939,8.5013,8.4609,8.5049,8.4903,5.4905,5.6224,5.7577,5.8389,5.8524,5.8592,5.8998,5.9072,5.9417,6.0619,6.134,6.2112,6.3422,6.4435,6.5382,6.6255,6.7344,0.0,0.0,0.0,7.9879,8.25,8.3535,8.4269,0.0,0.0,0.0,0.0,0.0,8.6294,8.6294,8.6294,8.5604,8.4028,8.3896,8.3051,8.1428,8.1514,8.1514,8.1393,8.1657,8.181,8.181,8.181,8.181,0.0,0.0,0.0,8.181,8.181,8.181,8.181,8.181,8.181,8.181,8.181,8.181,8.181,8.181,8.181,8.1834,8.1894,8.2071,8.2373,8.2816,8.2951,8.2951,8.3072,8.3182,8.3292,8.3459,8.3568,8.3676,8.3805,8.4045,8.4338,8.46,8.4884,8.5206,8.5687,8.5857,8.6044,8.6447,8.6847,8.7175,8.737,8.7681,8.7973,8.8098,8.7785,8.7545,8.7545,8.7215,8.6978,8.6978,8.6224,8.571,8.571,8.5343,8.5159,8.5159,8.4792,8.4609,8.4609,8.4609,8.4609,8.4609,8.4682,8.4646,8.4609,8.4682,8.4462,5.5193,5.6124,5.6751,5.6954,5.7514,5.8024,5.8126,5.9253,6.035,6.0588,6.1978,6.3405,6.4244,6.5226,6.6206,6.7206,0.0,0.0,7.5856,7.8304,8.0683,8.3476,8.4028,0.0,0.0,0.0,0.0,0.0,0.0,8.6294,8.6294,8.6294,8.5604,8.4028,8.3797,8.2953,8.1476,8.1668,8.1668,8.1442,8.1715,8.181,8.181,8.181,8.181,8.181,0.0,0.0,8.181,8.181,8.181,8.181,8.181,8.181,8.181,8.181,8.181,8.181,8.181,8.1834,8.1871,8.2071,8.2396,8.2771,8.3402,8.3869,8.4102,8.3918,8.394,8.401,8.4073,8.4276,8.4456,8.4497,8.4924,8.5356,8.5395,8.5782,8.6155,8.6192,8.632,8.6574,8.6879,8.7483,8.8049,8.8318,8.8959,8.94,8.94,8.8776,8.8353,8.8206,8.7582,8.7124,8.7014,8.6978,8.6978,8.6978,8.6371,8.5967,8.5967,8.5343,8.4976,8.4976,8.4719,8.4609,8.4609,8.3785,8.3748,8.4389,8.3821,8.3564,5.4737,5.557,5.642,5.7659,5.8192,5.859,5.9204,5.9529,6.0094,6.1391,6.2021,6.2771,6.416,6.5226,6.6585,0.0,0.0,7.5775,0.0,0.0,8.1097,8.288,0.0,8.5121,0.0,0.0,0.0,0.0,0.0,8.6294,8.6294,8.6294,8.5604,8.4028,8.3969,8.3221,8.1739,8.1538,8.1538,8.1739,8.1787,8.181,8.181,8.181,8.181,8.181,0.0,8.181,8.181,8.181,8.181,8.181,8.181,8.181,8.181,8.181,8.181,8.181,8.181,8.1894,8.2094,8.235,8.2861,8.3424,8.3954,8.4661,8.5281,8.5417,8.5222,8.5064,8.5417,8.5533,8.561,8.5782,8.5895,8.6007,8.6174,8.6283,8.6392,8.6554,8.6625,8.6916,8.7806,8.8061,8.8391,8.9106,8.9326,8.94,8.94,8.929,8.8959,8.828,8.8096,8.7729,8.7051,8.6978,8.6978,8.6978,8.6867,8.6811,8.6811,8.6701,8.6611,8.6611,8.5306,8.4609,8.4609,8.3785,8.3454,8.3601,8.4168,8.4425,5.5213,5.5894,5.6645,5.861,5.9107,5.9191,5.9533,6.0251,6.1018,6.1736,6.3033,6.4248,6.4916,6.6499,6.8621,7.1312,0.0,7.7879,7.9373,8.089,8.2407,0.0,0.0,0.0,0.0,0.0,0.0,0.0,0.0,0.0,8.6294,8.5915,8.519,8.4028,8.3614,8.288,8.181,8.1691,8.1691,8.181,8.181,8.181,8.181,8.181,8.181,8.181,0.0,8.181,8.181,8.181,8.181,8.181,8.181,8.181,8.181,8.181,8.1847,8.1965,8.1965,8.2187,8.2521,8.2928,8.3402,8.4017,8.4666,8.5261,8.5744,8.6174,8.6063,8.5876,8.6063,8.6118,8.6137,8.6229,8.6338,8.6447,8.6536,8.6662,8.686,8.7406,8.7496,8.7807,8.8702,8.9234,8.9638,8.9987,9.0427,9.0702,9.0702,9.0317,8.973,8.8923,8.8463,8.7876,8.7051,8.6978,8.6978,8.6978,8.6978,8.6978,8.6978,8.6978,8.6978,8.6978,8.5857,8.5233,8.5233,8.4462,8.4042,8.4058,8.4425,8.4389,5.5775,5.6303,5.6919,5.9355,5.9834,5.9864,6.043,6.1439,6.2398,6.2775,6.4347,6.5783,6.6127,6.8604,0.0,7.4395,7.7292,7.9707,8.1166,8.2407,0.0,0.0,0.0,0.0,0.0,0.0,0.0,0.0,0.0,0.0,8.6053,8.5501,8.4742,8.3752,8.319,8.2569,8.181,8.181,8.181,8.181,8.181,8.181,8.181,8.181,8.181,8.181,8.181,8.181,8.181,8.181,8.181,8.181,8.181,8.181,8.181,8.1823,8.2012,8.2211,8.2326,8.2658,8.3151,8.3597,8.4087,8.4641,8.5359,8.5782,8.61,8.6554,8.6608,8.6555,8.6555,8.6555,8.6555,8.6555,8.668,8.6822,8.7005,8.7184,8.7545,8.8316,8.85,8.8757,8.9546,9.017,9.0665,9.0849,9.14,9.1803,9.1803,9.1253,9.0501,8.951,8.8849,8.8096,8.7088,8.6978,8.6978,8.6978,8.6978,8.6978,8.6978,8.6978,8.6978,8.6978,8.6224,8.58,8.58,8.4976,8.4609,8.4609,8.4609,8.4168,5.5976,5.6472,5.7071,5.9564,6.0168,6.0702,6.2839,6.339,6.3873,6.5321,6.5753,6.6324,6.765,7.1512,7.527,7.7672,8.0017,8.2086,8.3545,0.0,0.0,0.0,0.0,0.0,0.0,0.0,0.0,0.0,0.0,0.0,8.5328,8.5225,8.4535,8.3052,8.2949,8.2569,8.181,8.181,8.181,8.181,8.181,8.181,8.181,8.181,8.181,8.181,8.181,8.181,8.181,8.181,8.181,8.181,8.181,8.181,8.1834,8.2012,8.2234,8.2533,8.2963,8.345,8.389,8.4296,8.4868,8.5456,8.5687,8.6174,8.6625,8.6679,8.6838,8.6943,8.6943,8.6943,8.6943,8.6943,8.696,8.718,8.7932,8.8078,8.8353,8.9143,8.9326,8.9583,9.0372,9.0537,9.0849,9.1583,9.1767,9.1803,9.1803,9.173,9.1106,8.9583,8.9363,8.8702,8.7124,8.6978,8.6978,8.6978,8.6978,8.6978,8.6978,8.6978,8.6978,8.6978,8.6224,8.58,8.58,8.4976,8.4609,8.4609,8.4609,8.4168,5.6159,5.6589,5.7191,6.0133,6.0875,6.1358,6.3186,6.4703,6.6014,6.7049,6.8414,6.9863,7.1381,0.0,7.6408,7.8683,8.1373,8.3535,8.4604,8.5156,0.0,0.0,0.0,0.0,0.0,0.0,0.0,0.0,0.0,0.0,8.4466,8.4018,8.35,8.2914,8.2466,8.2086,8.181,8.181,8.181,8.181,8.181,8.181,8.181,8.181,8.181,8.181,8.181,8.181,8.181,8.181,8.181,8.1834,8.1941,8.1712,8.1367,8.17,8.2107,8.2471,8.2776,8.369,8.4742,8.5008,8.5439,8.5932,8.6265,8.6518,8.675,8.6856,8.6925,8.6978,8.6978,8.6978,8.6978,8.6978,8.7399,8.7839,8.8133,8.861,8.9179,8.9987,9.0134,9.0408,9.1216,9.1363,9.1436,9.173,9.1803,9.1803,9.1803,9.1803,9.1179,8.9583,8.8482,8.7675,8.7051,8.6978,8.6978,8.6978,8.6978,8.6978,8.6978,8.6978,8.6978,8.6978,8.6701,8.6554,8.6554,8.6261,8.6114,8.6114,8.6114,8.538,5.6278,5.6982,5.7912,6.0633,6.1668,6.2496,6.4255,6.6048,6.7793,6.9256,7.1153,7.305,7.4602,0.0,0.0,0.0,8.2338,8.4294,8.5087,8.5846,8.6225,0.0,0.0,0.0,0.0,0.0,0.0,0.0,0.0,0.0,0.0,8.319,8.2811,8.2569,8.2052,8.181,8.181,8.181,8.181,8.181,8.181,8.181,8.181,8.181,8.181,8.181,8.181,8.181,8.1776,8.1535,8.1478,8.1596,8.2107,8.1886,8.1362,8.183,8.2134,8.2403,8.3024,8.4,8.5093,8.5633,8.6007,8.6338,8.6608,8.675,8.6838,8.6943,8.6978,8.6978,8.6978,8.7215,8.7399,8.7399,8.7986,8.8647,8.8904,8.9381,9.0024,9.0812,9.0996,9.1143,9.1693,9.1803,9.1803,9.1803,9.1803,9.1803,9.1803,9.1803,9.1179,8.9583,8.7968,8.6978,8.6978,8.6978,8.6978,8.6978,8.6978,8.6978,8.6978,8.6978,8.6978,8.6978,8.6978,8.6978,8.6978,8.6978,8.6978,8.6978,8.6738,8.5894,5.6333,5.7723,5.9375,6.0909,6.2461,6.4186,6.6516,6.7601,6.9015,7.2105,7.3912,7.5408,7.6925,7.7879,0.0,8.1431,8.3052,8.4294,8.5087,8.5811,8.6018,0.0,0.0,0.0,0.0,0.0,0.0,0.0,0.0,0.0,0.0,8.288,8.2569,8.181,8.181,8.181,8.181,8.181,8.181,8.181,8.181,8.181,8.181,8.181,8.181,8.181,8.181,8.1776,8.1741,8.0948,8.0766,8.1135,8.2321,8.2461,8.2037,8.2531,8.2439,8.2314,8.3805,8.4455,8.4825,8.601,8.6518,8.6679,8.6679,8.6838,8.6978,8.6978,8.6978,8.6978,8.6978,8.7619,8.8206,8.8206,8.8812,8.962,9.0445,9.0629,9.0849,9.1657,9.1803,9.1803,9.1803,9.1803,9.1803,9.1803,9.1803,9.1803,9.1803,9.1803,9.1179,8.9583,8.7968,8.6978,8.6978,8.6978,8.6978,8.6978,8.6978,8.6978,8.6978,8.6978,8.6978,8.6978,8.6978,8.6978,8.6978,8.6978,8.6978,8.6978,8.6151,8.538,5.7136,5.8237,5.953,6.1599,6.3255,6.5255,6.8621,7.0415,7.2381,7.5947,7.7051,7.7477,7.7959,7.8672,0.0,8.15,0.0,0.0,8.4259,8.4535,8.4604,8.4397,0.0,0.0,0.0,0.0,0.0,0.0,0.0,0.0,0.0,8.2121,8.2017,8.181,8.181,8.181,8.181,8.1941,8.2012,8.2035,8.235,8.2257,8.181,8.181,8.181,8.1776,8.1224,8.1076,8.1194,8.0716,8.066,8.0924,8.1626,8.1556,8.1083,8.1703,8.231,8.2905,8.3627,8.4828,8.6155,8.6481,8.675,8.6908,8.6908,8.6943,8.6978,8.6978,8.6978,8.6978,8.6978,8.7619,8.8206,8.8206,8.9271,9.0317,9.0555,9.1033,9.151,9.173,9.1803,9.1803,9.1803,9.1803,9.1803,9.1803,9.1803,9.1803,9.1803,9.0812,8.9913,8.9436,8.7968,8.6978,8.6978,8.6978,8.6978,8.6978,8.6978,8.6978,8.6978,8.6978,8.6978,8.6978,8.6978,8.6978,8.6978,8.6978,8.6978,8.6978,8.6151,8.538,5.7859,5.9306,6.0875,6.2875,6.4945,6.7669,7.2084,7.405,7.5775,7.8672,7.927,7.9373,7.9707,7.9844,0.0,8.1603,8.2431,0.0,0.0,8.3821,8.389,8.3604,0.0,0.0,0.0,0.0,0.0,0.0,0.0,0.0,0.0,8.2106,8.2187,8.2187,8.2315,8.2361,8.2361,8.2465,8.2602,8.2658,8.2636,8.2416,8.2114,8.228,8.2188,8.184,8.1018,8.0633,8.0621,8.0818,8.0852,8.0823,8.1678,8.1664,8.1185,8.1754,8.2377,8.3085,8.3717,8.4949,8.6294,8.6693,8.6891,8.6978,8.6978,8.6978,8.6978,8.6978,8.6978,8.6978,8.6978,8.7619,8.828,8.861,8.9674,9.0702,9.1033,9.1473,9.1803,9.1803,9.1803,9.1803,9.1803,9.1803,9.1803,9.1803,9.1803,9.1803,9.1803,9.0408,8.94,8.94,8.7968,8.6978,8.6978,8.6978,8.6978,8.6978,8.6978,8.6978,8.6978,8.6978,8.6978,8.6978,8.6978,8.6978,8.6978,8.6978,8.6978,8.6978,8.6151,8.5527,5.8583,6.0717,6.2963,6.4427,6.7344,7.1139,7.6166,7.7959,7.9017,8.0407,8.0718,8.0925,8.1672,8.1224,8.0948,8.1672,8.2362,0.0,0.0,8.3397,8.3545,8.288,0.0,0.0,0.0,0.0,0.0,0.0,0.0,0.0,0.0,8.2567,8.2861,8.2884,8.3107,8.3275,8.3275,8.3297,8.3336,8.3448,8.2785,8.2489,8.2622,8.293,8.2585,8.1799,8.1096,8.0486,8.0026,8.098,8.112,8.0832,8.2153,8.2351,8.1906,8.2322,8.2643,8.3089,8.401,8.4884,8.5797,8.6723,8.6978,8.6978,8.6978,8.6978,8.6978,8.6978,8.6978,8.6978,8.6978,8.7545,8.828,8.9106,8.9913,9.0702,9.1436,9.1583,9.1583,9.1693,9.1693,9.1693,9.1803,9.1803,9.1803,9.1803,9.1803,9.1803,9.1803,9.0408,8.94,8.94,8.7968,8.6978,8.6978,8.6978,8.6978,8.6978,8.6978,8.6978,8.6978,8.6978,8.6978,8.6978,8.6978,8.6978,8.6978,8.6978,8.6978,8.6978,8.6151,8.58,5.965,6.1581,6.3722,6.5274,6.9725,7.4464,7.7465,7.9166,8.0373,8.1362,8.1535,8.1603,8.1776,8.1672,8.1603,8.1776,8.1948,8.2052,0.0,0.0,0.0,0.0,0.0,0.0,0.0,0.0,0.0,0.0,0.0,0.0,8.2396,8.2874,8.3173,8.3336,8.3554,8.3683,8.3683,8.389,8.3677,0.0,8.3473,8.3339,8.275,8.2073,8.138,8.068,8.0668,8.0238,7.9664,8.0356,8.0645,8.0781,8.1382,8.1632,8.1679,8.1939,8.2862,8.401,8.4417,8.5458,8.6723,8.6941,8.6978,8.6978,8.6978,8.6978,8.6978,8.6978,8.6978,8.6978,8.6978,8.7124,8.7455,8.828,8.9069,8.9693,8.9877,8.9913,9.0097,9.0739,9.0849,9.1069,9.1693,9.1803,9.1803,9.1803,9.1803,9.1803,9.1803,9.0408,8.94,8.94,8.7968,8.6978,8.6978,8.6978,8.6978,8.6978,8.6978,8.6978,8.6978,8.6978,8.6978,8.6978,8.6978,8.6978,8.6978,8.6978,8.6978,8.6978,8.6151,8.58,6.0427,6.2393,6.4945,6.831,7.2602,7.6533,7.8499,8.0086,8.1293,8.1707,8.181,8.181,8.181,8.181,8.181,8.181,8.181,8.181,8.181,8.181,0.0,0.0,0.0,0.0,0.0,0.0,0.0,0.0,0.0,8.259,8.2973,8.3633,8.4102,8.4296,8.4212,8.4159,8.4159,8.3936,8.364,8.3327,8.3309,8.2901,8.2233,8.1923,8.1562,8.1188,8.0909,8.0628,8.04,8.0713,8.0948,8.1143,8.1459,8.163,8.1768,8.1952,8.2825,8.3924,8.4428,8.5416,8.6481,8.6867,8.6978,8.6978,8.6978,8.6978,8.6978,8.6978,8.6978,8.6978,8.6978,8.6978,8.7088,8.7545,8.8243,8.8923,8.9326,8.94,8.951,8.995,9.0024,9.017,9.0592,9.0959,9.1363,9.173,9.1803,9.1803,9.1803,9.0408,8.94,8.94,8.7968,8.6978,8.6978,8.6978,8.6978,8.6978,8.6978,8.6978,8.6978,8.6978,8.6978,8.6978,8.6978,8.6978,8.6978,8.6978,8.6978,8.6978,8.6591,8.6371,6.0944,6.3255,6.6462,7.145,7.4878,7.7442,7.9097,8.0603,8.1638,8.1776,8.181,8.181,8.181,8.181,8.181,8.181,8.181,8.181,8.181,8.181,8.1834,8.1858,0.0,0.0,0.0,0.0,0.0,0.0,0.0,8.316,8.3597,8.4518,8.5028,8.5101,8.4855,8.4626,8.4517,8.3846,8.3448,8.3337,8.2409,8.1731,8.1299,8.1628,8.1924,8.207,8.1417,8.1215,8.1355,8.1389,8.1493,8.1647,8.1869,8.1935,8.1952,8.2137,8.27,8.3491,8.4168,8.5013,8.5894,8.6591,8.6885,8.6978,8.6978,8.6978,8.6978,8.6978,8.6978,8.6978,8.6978,8.6978,8.6978,8.6978,8.7509,8.8169,8.8849,8.8996,8.9033,8.9179,8.9326,8.94,8.94,8.995,9.0665,9.1473,9.1583,9.1657,9.1767,9.0408,8.94,8.94,8.7968,8.6978,8.6978,8.6978,8.6978,8.6978,8.6978,8.6978,8.6978,8.6978,8.6978,8.6978,8.6978,8.6978,8.6978,8.6978,8.6978,8.6978,8.6978,8.6978,6.1082,6.4393,6.8463,7.1864,7.4499,7.6822,7.8994,8.0132,8.0959,8.1672,8.181,8.181,8.181,8.181,8.181,8.181,8.181,8.181,8.181,8.181,8.1847,8.2059,8.2048,0.0,0.0,0.0,0.0,0.0,8.3516,8.3847,8.4102,8.4944,8.5189,8.4693,8.4973,8.4772,8.4079,8.397,8.3242,8.1855,8.0529,7.9942,8.003,8.0092,8.0702,8.1656,8.1583,8.1527,8.1562,8.1751,8.1835,8.1869,8.2088,8.2154,8.2154,8.2186,8.27,8.3418,8.3528,8.4535,8.582,8.593,8.6444,8.6978,8.6978,8.6978,8.6978,8.6978,8.6978,8.6978,8.6978,8.6978,8.6978,8.6978,8.7088,8.7198,8.7308,8.7308,8.7528,8.8206,8.8923,8.94,8.94,8.9473,8.984,9.0629,9.0776,9.1033,9.1693,9.0408,8.94,8.94,8.7968,8.6978,8.6978,8.6978,8.6978,8.6978,8.6978,8.6978,8.6978,8.6978,8.6978,8.6978,8.6978,8.6978,8.6978,8.6978,8.6978,8.6978,8.6978,8.6978,6.1936,6.4904,6.8118,7.076,7.3429,7.5925,7.7787,7.9132,8.0201,8.0983,8.1155,8.1293,8.1707,8.181,8.181,8.181,8.181,8.181,8.181,8.181,8.1871,8.2071,8.2234,8.251,0.0,0.0,0.0,0.0,8.406,8.4242,8.4239,8.4809,8.4954,8.4462,8.4289,8.4025,8.3659,8.278,8.1719,8.0601,7.995,7.97,7.9816,7.9816,8.0103,8.0601,8.0601,8.0601,8.0617,8.0699,8.0972,8.1412,8.1493,8.1782,8.2186,8.2186,8.2406,8.281,8.3234,8.3858,8.4535,8.4976,8.5673,8.6334,8.6334,8.6628,8.6978,8.6978,8.6978,8.6978,8.6978,8.6978,8.6978,8.6978,8.6978,8.6978,8.6978,8.6978,8.7088,8.7472,8.7785,8.8189,8.8647,8.872,8.916,9.0408,9.0592,9.0739,9.1069,9.0097,8.9216,8.8793,8.7675,8.6978,8.6978,8.6978,8.6978,8.6978,8.6978,8.6978,8.6978,8.6978,8.6978,8.6978,8.6978,8.6978,8.6978,8.6978,8.6978,8.6978,8.6978,8.6978,6.2478,6.4985,6.7532,6.9747,7.2353,7.4822,7.6753,7.8097,7.9166,0.0,8.0304,8.0476,8.1121,8.1535,8.181,8.181,8.1823,8.1871,8.1871,8.1988,8.2141,8.2407,8.2681,8.3062,8.3633,8.3833,0.0,0.0,8.4501,8.446,8.4146,8.4518,8.4515,8.4008,8.3408,8.2977,8.2794,8.1195,8.0094,7.9486,7.925,7.914,7.914,7.914,7.914,7.9176,7.9633,7.9816,7.9816,7.9816,8.0131,8.0681,8.0681,8.1195,8.1893,8.1893,8.2003,8.2296,8.2884,8.3234,8.3491,8.4095,8.4829,8.5527,8.5764,8.6224,8.6738,8.6941,8.6978,8.6978,8.6978,8.6978,8.6978,8.6978,8.6978,8.6978,8.6978,8.6978,8.6978,8.6978,8.6978,8.7215,8.7802,8.7912,8.839,8.9784,9.0005,9.0078,9.028,8.9583,8.8849,8.828,8.7472,8.6978,8.6978,8.6978,8.6978,8.6978,8.6978,8.6978,8.6978,8.6978,8.6978,8.6978,8.6978,8.6978,8.6978,8.6978,8.6978,8.6978,8.6978,8.6978,6.2069,6.4587,6.7492,6.9598,7.1476,7.3589,7.6511,7.727,7.7753,7.9235,7.9569,7.9545,7.9614,8.081,8.181,8.181,8.1965,8.2071,8.2071,8.2453,8.2928,8.338,8.3676,8.4144,8.4984,8.5119,8.4973,8.4602,8.4771,8.4537,8.3756,8.4111,8.399,8.3186,8.2564,8.1893,8.1122,7.9543,7.8699,7.8662,7.7803,7.7436,7.7436,7.7436,7.7436,7.7509,7.9103,7.9816,7.9816,7.9816,7.9816,7.9853,7.9853,8.0351,8.1048,8.1048,8.1562,8.2186,8.226,8.2774,8.3418,8.3454,8.4022,8.4792,8.5563,8.5837,8.6004,8.6811,8.6978,8.6978,8.6978,8.6978,8.6978,8.6978,8.6978,8.6978,8.6978,8.6978,8.6978,8.6978,8.6978,8.7014,8.7051,8.7051,8.7344,8.8206,8.8316,8.861,8.9363,8.8757,8.8243,8.8206,8.7472,8.6978,8.6978,8.6978,8.6978,8.6978,8.6978,8.6978,8.6978,8.6978,8.6978,8.6978,8.6978,8.6978,8.6978,8.6978,8.6978,8.6978,8.6978,8.6978,6.1199,6.3358,6.5907,6.7516,6.9597,7.176,7.3843,7.5029,7.6166,7.7718,7.8028,7.8339,7.9327,8.0339,8.1052,8.1052,8.1619,8.1968,8.1644,8.197,8.2282,8.2228,8.2513,8.3024,8.3769,8.396,8.4096,8.421,8.4263,8.4024,8.3362,8.3446,8.2997,8.1778,8.153,8.0791,7.947,7.8883,7.8332,7.7766,7.7436,7.7289,7.7289,7.7289,7.7289,7.7326,7.7913,7.8206,7.8206,7.8206,7.8516,7.9045,7.9045,7.9507,8.0277,8.0828,8.1195,8.1489,8.2003,8.237,8.2627,8.2627,8.3177,8.3858,8.4168,8.4609,8.5086,8.538,8.582,8.6224,8.6224,8.6628,8.6978,8.6978,8.6978,8.6978,8.6978,8.6978,8.6978,8.6978,8.6978,8.6978,8.6978,8.6978,8.7288,8.8096,8.8206,8.8316,8.861,8.839,8.7986,8.7472,8.7161,8.6978,8.6978,8.6978,8.6978,8.6978,8.6978,8.6978,8.6978,8.6978,8.6978,8.6978,8.6978,8.6978,8.6978,8.6978,8.6978,8.6978,8.6978,8.6978,6.0766,6.2628,6.4931,6.6249,6.8292,7.0347,7.1946,7.3464,7.4822,7.5844,7.627,7.6753,7.7753,7.8614,7.9419,8.0213,8.1146,8.1648,8.1339,8.1845,8.2203,8.2074,8.2385,8.285,8.3447,8.3611,8.3736,8.3797,8.3795,0.0,8.2428,8.2408,8.1725,8.0225,8.0204,7.9543,7.8185,7.8185,7.7876,7.7289,7.7289,7.7289,7.7289,7.7289,7.7289,7.7289,7.7289,7.7289,7.7289,7.7289,7.7656,7.8185,7.8185,7.8662,7.9449,7.9984,8.0534,8.1085,8.1599,8.1966,8.2186,8.2186,8.2553,8.3067,8.3308,8.3748,8.4242,8.4535,8.4976,8.538,8.538,8.6004,8.6664,8.6958,8.6978,8.6978,8.6978,8.6978,8.6978,8.6978,8.6978,8.6978,8.6978,8.6978,8.7161,8.7729,8.7802,8.7802,8.7802,8.7802,8.7582,8.7051,8.6978,8.6978,8.6978,8.6978,8.6978,8.6978,8.6978,8.6978,8.6978,8.6978,8.6978,8.6978,8.6978,8.6978,8.6978,8.6978,8.6978,8.6978,8.6978,8.6721,0.0,0.0,0.0,6.6003,6.7644,6.9357,7.1008,7.2623,7.3727,7.3727,7.4361,7.4891,7.4891,7.5673,7.7094,7.9311,8.0505,8.1141,8.1106,8.2036,8.2759,8.2967,8.3302,8.3698,8.412,8.4154,8.391,8.3344,8.3271,8.261,8.1048,8.0938,8.0204,7.8662,7.8589,7.8148,7.7326,7.7289,7.7289,7.7289,7.7289,7.7289,7.7289,7.7289,7.7289,7.7289,7.7289,7.7289,7.7289,7.7289,7.7289,7.7289,7.7289,7.7803,7.8552,7.8589,7.958,8.0938,8.0975,8.1525,8.215,8.2186,8.2186,8.2333,8.3124,8.3344,8.3528,8.4315,8.4535,8.4572,8.4609,8.5159,8.5967,8.6757,8.6941,8.6978,8.6978,8.6978,8.6978,8.6978,8.6978,8.6978,8.6978,8.6978,8.6978,8.6978,8.6978,8.6978,8.6978,8.6978,8.6978,8.6978,8.6978,8.6978,8.6978,8.6978,8.6978,8.6978,8.6978,8.6978,8.6978,8.6978,8.6978,8.6978,8.6978,8.6978,8.6978,8.6978,8.6978,8.6978,8.6978,8.6114,6.0829,0.0,0.0,0.0,0.0,0.0,6.8808,7.0636,7.214,7.214,7.3188,7.4085,7.4085,7.5028,7.6076,7.683,7.8406,7.9355,7.915,7.9844,8.0279,7.9954,8.0233,8.0558,8.0808,8.0824,8.0833,0.0,8.0791,8.0624,8.0183,7.958,7.9066,7.8626,7.8002,7.7546,7.7289,7.7289,7.7289,7.7289,7.7289,7.7289,7.7289,7.7289,7.7289,7.7289,7.7289,7.7289,7.7289,7.7289,7.7289,7.7289,7.7289,7.7436,7.7729,7.8369,7.8883,7.9433,8.0608,8.1158,8.1415,8.2003,8.2186,8.2223,8.2443,8.2517,8.259,8.281,8.3287,8.3858,8.4462,8.4756,8.5123,8.593,8.6114,8.6297,8.6867,8.6978,8.6978,8.6978,8.6978,8.6978,8.6978,8.6978,8.6978,8.6978,8.6978,8.6978,8.6978,8.6978,8.6978,8.6978,8.6978,8.6978,8.6978,8.6978,8.6978,8.6978,8.6978,8.6978,8.6978,8.6978,8.6978,8.6978,8.6978,8.6978,8.6978,8.6978,8.6978,8.6978,8.6407,8.5563,0.0,0.0,0.0,0.0,0.0,0.0,6.7443,6.9173,7.0691,0.0,7.176,7.2588,7.3209,7.3809,7.4377,7.4977,7.6292,7.7476,7.8017,7.8819,7.926,7.8945,7.9245,7.9491,7.962,7.962,7.9668,7.98,7.9816,7.9669,7.9339,7.8516,7.8075,7.8075,7.7546,7.7289,7.7289,7.7289,7.7289,7.7289,7.7289,7.7289,7.7289,7.7289,7.7289,7.7289,7.7289,7.7289,7.7289,7.7289,7.7289,7.7289,7.7289,7.7289,7.7362,7.7876,7.8295,7.8772,8.0057,8.0718,8.1122,8.1929,8.2186,8.2186,8.2186,8.2186,8.2186,8.2186,8.2553,8.3104,8.3895,8.4095,8.4315,8.5123,8.5306,8.5527,8.6334,8.6518,8.6591,8.6904,8.6978,8.6978,8.6978,8.6978,8.6978,8.6978,8.6978,8.6978,8.6978,8.6978,8.6978,8.6978,8.6978,8.6978,8.6978,8.6978,8.6978,8.6978,8.6978,8.6978,8.6978,8.6978,8.6978,8.6978,8.6978,8.6978,8.6978,8.6978,8.6848,8.6481,8.5673,8.4866,0.0,0.0,0.0,0.0,0.0,0.0,6.6562,6.8,6.9345,0.0,7.0311,7.0898,7.2105,7.2249,7.2534,7.351,7.4402,7.5601,7.7323,7.8341,7.8917,7.8917,7.9263,7.9522,7.9522,7.9522,7.9522,7.9522,7.9522,7.9213,7.8479,7.7729,7.7289,7.7289,7.7289,7.7289,7.7289,7.7289,7.7289,7.7289,7.7289,7.7289,7.7289,7.7289,7.7289,7.7289,7.7289,7.7289,7.7289,7.7289,7.7289,7.7289,7.7289,7.7289,7.7289,7.7289,7.7803,7.8552,7.9412,8.0131,8.0865,8.1672,8.1929,8.1929,8.2039,8.2076,8.2076,8.215,8.2186,8.237,8.3087,8.3271,8.3454,8.4278,8.4462,8.4682,8.549,8.5673,8.5857,8.6591,8.6867,8.6978,8.6978,8.6978,8.6978,8.6978,8.6978,8.6978,8.6978,8.6978,8.6978,8.6978,8.6978,8.6978,8.6978,8.6978,8.6978,8.6978,8.6978,8.6978,8.6978,8.6978,8.6978,8.6978,8.6978,8.6978,8.6978,8.6978,8.6591,8.58,8.4976,8.4168,0.0,0.0,0.0,0.0,0.0,0.0,6.5117,6.6807,6.8187,0.0,6.9621,7.1036,7.0139,7.1174,7.2186,7.2091,7.327,7.4673,7.5997,7.6797,7.7275,7.7275,7.7563,7.7803,7.7803,7.7803,7.7803,7.7803,7.7803,7.7729,7.7546,7.7399,7.7289,7.7289,7.7289,7.7289,7.7289,7.7289,7.7289,7.7289,7.7289,7.7289,7.7289,7.7289,7.7289,7.7289,7.7289,7.7289,7.7289,7.7289,7.7289,7.7289,7.7289,7.7289,7.7289,7.7289,7.7399,7.7693,7.8552,7.8919,7.9213,8.0,8.0257,8.0404,8.1048,8.1232,8.1379,8.2003,8.2186,8.2223,8.237,8.2443,8.2627,8.3418,8.3638,8.3858,8.4646,8.4829,8.4866,8.5049,8.6097,8.6978,8.6978,8.6978,8.6978,8.6978,8.6978,8.6978,8.6978,8.6978,8.6978,8.6978,8.6978,8.6978,8.6978,8.6978,8.6978,8.6978,8.6978,8.6978,8.6978,8.6978,8.6978,8.6978,8.6978,8.6978,8.6978,8.6978,8.6591,8.58,8.4976,8.4168,0.0,0.0,0.0,6.3496,0.0,0.0,0.0,6.5566,6.6635,6.7394,6.8463,6.938,6.9794,7.0516,7.1214,7.1663,7.2687,7.3743,7.4728,7.5987,7.6801,7.6801,7.7087,7.7289,7.7289,7.7289,7.7289,7.7289,7.7289,7.7289,7.7289,7.7289,7.7289,7.7289,7.7289,7.7289,7.7289,7.7289,7.7289,7.7289,7.7289,7.7289,7.7289,7.7289,7.7289,7.7289,7.7289,7.7289,7.7289,7.7289,7.7289,7.7289,7.7289,7.7289,7.7289,7.7289,7.7289,7.7436,7.8295,7.8589,7.8736,7.9559,7.9816,7.989,8.0277,8.0681,8.1085,8.1489,8.1893,8.2186,8.2186,8.2186,8.2296,8.27,8.281,8.303,8.3821,8.4005,8.4132,8.4535,8.527,8.593,8.6334,8.6407,8.6554,8.6958,8.6978,8.6978,8.6978,8.6978,8.6978,8.6978,8.6978,8.6978,8.6978,8.6978,8.6978,8.6978,8.6978,8.6978,8.6978,8.6978,8.6978,8.6978,8.6978,8.6978,8.6978,8.6978,8.6591,8.58,8.4976,8.4389,0.0,0.0,0.0,0.0,0.0,6.3772,0.0,0.0,0.0,6.7049,6.7187,6.7517,6.9242,0.0,0.0,0.0,0.0,0.0,0.0,7.5164,0.0,7.6311,7.6711,7.6976,7.6976,7.7123,7.716,7.6976,7.7123,7.7212,7.7279,7.7279,7.7258,7.7289,7.7289,7.7289,7.7289,7.7289,7.7289,7.7289,7.7289,7.7289,7.7289,7.7289,7.7289,7.7289,7.7289,7.7289,7.7289,7.7289,7.7289,7.7289,7.7289,7.7289,7.7289,7.7289,7.7289,7.7399,7.8112,7.8369,7.8479,7.9103,7.9449,7.9559,7.9559,8.0131,8.0755,8.0755,8.1232,8.1746,8.1746,8.1746,8.1799,8.1929,8.1966,8.2186,8.2994,8.3161,8.3344,8.4022,8.4132,8.4425,8.538,8.571,8.6004,8.6664,8.6904,8.6978,8.6978,8.6978,8.6978,8.6978,8.6978,8.6978,8.6978,8.6978,8.6978,8.6978,8.6978,8.6978,8.6978,8.6978,8.6978,8.6978,8.6978,8.6978,8.6978,8.6978,8.6591,8.58,8.5123,8.4756,0.0,0.0,0.0,0.0,6.36,0.0,0.0,0.0,6.4772,6.5048,0.0,0.0,0.0,0.0,0.0,0.0,0.0,0.0,7.2327,7.3615,7.4529,7.4655,7.5338,7.5807,7.5807,7.6448,7.6558,7.5844,7.6448,7.6929,7.7124,7.7124,7.7186,7.731,7.7289,7.7289,7.7289,7.7289,7.7289,7.7289,7.7289,7.7289,7.7289,7.7289,7.7289,7.7289,7.7289,7.7289,7.7289,7.7289,7.7289,7.7289,7.7289,7.7289,7.7289,7.7289,7.7289,7.7326,7.7399,7.7436,7.7472,7.7546,7.8112,7.8736,7.8736,7.9286,7.9926,7.9926,8.0,8.0073,8.0073,8.0073,8.0257,8.0975,8.1158,8.1379,8.215,8.2333,8.237,8.2443,8.248,8.2957,8.4462,8.5306,8.5837,8.593,8.6554,8.6978,8.6978,8.6978,8.6978,8.6978,8.6978,8.6978,8.6978,8.6978,8.6978,8.6978,8.6978,8.6978,8.6978,8.6978,8.6978,8.6978,8.6978,8.6978,8.6978,8.6978,8.6591,8.58,8.571,8.527,0.0,0.0,0.0,0.0,0.0,0.0,6.36,0.0,6.4186,0.0,0.0,0.0,0.0,0.0,0.0,0.0,6.9106,0.0,0.0,0.0,7.3376,0.0,0.0,0.0,7.4884,7.5213,7.5285,7.4921,7.5213,7.5426,7.5526,7.611,7.6444,7.6506,7.7023,7.7289,7.7289,7.7289,7.7289,7.7289,7.7289,7.7289,7.7289,7.7289,7.7289,7.7289,7.7289,7.7289,7.7289,7.7289,7.7289,7.7289,7.7289,7.7289,7.7289,7.7289,7.7289,7.7289,7.7289,7.7289,7.7289,7.7289,7.7546,7.7839,7.7839,7.8442,7.9103,7.9103,7.9449,7.9816,7.9816,7.9816,8.0,8.0828,8.1012,8.1232,8.2039,8.2186,8.2186,8.2186,8.2186,8.2406,8.3104,8.3875,8.4719,8.5654,8.6077,8.6481,8.6958,8.6978,8.6978,8.6978,8.6978,8.6978,8.6978,8.6978,8.6978,8.6978,8.6978,8.6978,8.6978,8.6978,8.6978,8.6978,8.6978,8.6978,8.6978,8.6978,8.6848,8.6481,8.6004,8.5857,6.5186,0.0,0.0,0.0,0.0,0.0,0.0,0.0,0.0,0.0,0.0,0.0,0.0,0.0,0.0,0.0,0.0,6.854,0.0,7.047,0.0,0.0,0.0,0.0,0.0,7.392,7.4049,7.3879,7.4013,7.4174,7.4269,7.516,7.5708,7.5802,7.67,7.7181,7.7264,7.7264,7.7243,7.7289,7.7289,7.7289,7.7289,7.7289,7.7289,7.7289,7.7289,7.7289,7.7289,7.7289,7.7289,7.7289,7.7289,7.7289,7.7289,7.7289,7.7289,7.7289,7.7289,7.7289,7.7289,7.7289,7.7289,7.7289,7.7289,7.7729,7.8259,7.8259,7.8846,7.9486,7.9486,7.9633,8.0,8.0828,8.1012,8.1232,8.2039,8.2186,8.2186,8.2186,8.2186,8.2186,8.2186,8.2884,8.3858,8.527,8.5654,8.6077,8.6904,8.6978,8.6978,8.6978,8.6978,8.6978,8.6978,8.6978,8.6978,8.6978,8.6978,8.6978,8.6978,8.6978,8.6978,8.6978,8.6978,8.6978,8.6978,8.6978,8.6978,8.6978,8.6407,8.6444,0.0,0.0,0.0,6.5826,0.0,0.0,0.0,0.0,6.4462,0.0,0.0,0.0,0.0,0.0,0.0,0.0,0.0,0.0,0.0,0.0,0.0,0.0,0.0,0.0,0.0,7.264,7.3183,7.2591,7.3108,7.3555,7.3901,7.4678,7.5277,7.5598,7.638,7.6897,7.7108,7.7108,7.7171,7.7289,7.7289,7.7289,7.7289,7.7289,7.7289,7.7289,7.7289,7.7289,7.7289,7.7289,7.7289,7.7289,7.7289,7.7289,7.7289,7.7289,7.7289,7.7289,7.7289,7.7289,7.7289,7.7289,7.7289,7.7289,7.7289,7.7326,7.7362,7.7362,7.7949,7.8626,7.8626,7.9213,8.0,8.0828,8.1012,8.1232,8.2039,8.2186,8.2186,8.2186,8.2186,8.2186,8.2186,8.2884,8.3675,8.4499,8.5306,8.6077,8.6904,8.6978,8.6978,8.6978,8.6978,8.6978,8.6978,8.6978,8.6978,8.6978,8.6978,8.6978,8.6978,8.6978,8.6978,8.6978,8.6978,8.6978,8.6978,8.6978,8.6978,8.6978,8.6978,8.6978,0.0,0.0,6.6516,6.6033,0.0,0.0,0.0,0.0,0.0,0.0,0.0,0.0,0.0,0.0,0.0,0.0,0.0,0.0,0.0,0.0,0.0,0.0,0.0,0.0,0.0,0.0,7.1215,7.061,7.064,7.085,7.1159,7.2098,7.3213,7.4622,7.555,7.6286,7.6882,7.7045,7.7124,7.7171,7.7279,7.7289,7.7289,7.7289,7.7289,7.7289,7.7289,7.7289,7.7289,7.7289,7.7289,7.7289,7.7289,7.7289,7.7289,7.7289,7.7289,7.7289,7.7289,7.7289,7.7289,7.7289,7.7289,7.7289,7.7289,7.7693,7.8148,7.8148,7.8772,7.9412,7.9412,7.9596,8.0,8.0828,8.1012,8.1232,8.2039,8.2186,8.2186,8.2186,8.2186,8.2186,8.2186,8.2443,8.3067,8.4389,8.4829,8.549,8.6848,8.6978,8.6978,8.6978,8.6978,8.6978,8.6978,8.6978,8.6978,8.6978,8.6978,8.6978,8.6978,8.6978,8.6978,8.6978,8.6978,8.6978,8.6978,8.6978,8.6978,8.6978,8.6978,8.6978,6.7497,6.7394,0.0,6.6792,6.6482,0.0,6.6309,0.0,0.0,0.0,0.0,0.0,0.0,0.0,0.0,0.0,0.0,0.0,0.0,6.6069,0.0,0.0,0.0,0.0,0.0,6.9775,6.9562,6.9284,6.8864,6.8929,6.9695,7.0532,7.1804,7.3531,7.4667,7.5547,7.6187,7.6676,7.6982,7.7108,7.7248,7.7289,7.7289,7.7289,7.7289,7.7289,7.7289,7.7289,7.7289,7.7289,7.7289,7.7289,7.7289,7.7289,7.7289,7.7289,7.7289,7.7289,7.7289,7.7289,7.7289,7.7289,7.7289,7.7289,7.7289,7.7693,7.8148,7.8148,7.8919,7.9743,7.9449,7.9816,8.0277,8.0534,8.0791,8.1158,8.1672,8.2003,8.2186,8.2186,8.2186,8.2186,8.2186,8.2186,8.2737,8.4352,8.4609,8.5196,8.6794,8.6978,8.6978,8.6978,8.6978,8.6978,8.6978,8.6978,8.6978,8.6978,8.6978,8.6978,8.6978,8.6978,8.6978,8.6978,8.6978,8.6978,8.6978,8.6978,8.6978,8.6978,8.6978,8.6978]}]]